[[{"header":{"parameterUnit":"m.s-1","parameterCategory":1,"la1":31.0,"la2":29.5877,"lo1":-88.7671,"lo2":-86.6584,"dy":0.0162,"dx":0.0185,"nx":115,"ny":88,"refTime":"2026-05-15T00:00:00:Z","depth":0,"parameterNumber":2,"parameterNumberName":"U-component_of_WINDS"},"data":[0.0,0.0,0.0,0.0,0.0,0.0,0.0,0.0,0.0,0.0,0.0,0.0,0.0,0.0,0.0,0.0,0.0,0.0,0.0,0.0,0.0,0.0,0.0,0.0,0.0,0.0,0.0,0.0,0.0,0.0,0.0,0.0,0.0,0.0,0.0,0.0,0.0,0.0,0.0,0.0,0.0,0.0,0.0,0.0,0.0,0.0,0.0,0.0,0.0,0.0,0.0,0.0,0.0,0.0,0.0,0.0,0.0,0.0,0.0,0.0,0.0,0.0,0.0,0.0,0.0,0.0,0.0,0.0,0.0,0.0,0.0,0.0,0.0,0.0,0.0,0.0,0.0,0.0,0.0,0.0,0.0,0.0,0.0,0.0,0.0,0.0,0.0,0.0,0.0,0.0,0.0,0.0,0.0,0.0,0.0,0.0,0.0,0.0,0.0,0.0,0.0,0.0,0.0,0.0,0.0,0.0,0.0,0.0,0.0,0.0,0.0,0.0,0.0,0.0,0.0,0.0,0.0,0.0,0.0,0.0,0.0,0.0,0.0,0.0,0.0,0.0,0.0,0.0,0.0,0.0,0.0,0.0,0.0,0.0,0.0,0.0,0.0,0.0,0.0,0.0,0.0,0.0,0.0,0.0,0.0,0.0,0.0,0.0,0.0,0.0,0.0,0.0,0.0,0.0,0.0,0.0,0.0,0.0,0.0,0.0,0.0,0.0,0.0,0.0,0.0,0.0,0.0,0.0,0.0,0.0,0.0,0.0,0.0,0.0,0.0,0.0,0.0,0.0,0.0,0.0,0.0,0.0,0.0,0.0,0.0,0.0,0.0,0.0,0.0,0.0,0.0,0.0,0.0,0.0,0.0,0.0,0.0,0.0,0.0,0.0,0.0,0.0,0.0,0.0,0.0,0.0,0.0,0.0,0.0,0.0,0.0,0.0,0.0,0.0,0.0,0.0,0.0,0.0,0.0,0.0,0.0,0.0,0.0,0.0,0.0,0.0,0.0,0.0,0.0,0.0,0.0,0.0,0.0,0.0,0.0,0.0,0.0,0.0,0.0,0.0,0.0,0.0,0.0,0.0,0.0,0.0,0.0,0.0,0.0,0.0,0.0,0.0,0.0,0.0,0.0,0.0,0.0,0.0,0.0,0.0,0.0,0.0,0.0,0.0,0.0,0.0,0.0,0.0,0.0,0.0,0.0,0.0,0.0,0.0,0.0,0.0,0.0,0.0,0.0,0.0,0.0,0.0,0.0,0.0,0.0,0.0,0.0,0.0,0.0,0.0,0.0,0.0,0.0,0.0,0.0,0.0,0.0,0.0,0.0,0.0,0.0,0.0,0.0,0.0,0.0,0.0,0.0,0.0,0.0,0.0,0.0,0.0,0.0,0.0,0.0,0.0,0.0,0.0,0.0,0.0,0.0,0.0,0.0,0.0,0.0,0.0,0.0,0.0,0.0,0.0,0.0,0.0,0.0,0.0,0.0,0.0,0.0,0.0,0.0,0.0,0.0,0.0,0.0,0.0,0.0,0.0,0.0,0.0,0.0,0.0,0.0,0.0,0.0,0.0,0.0,0.0,0.0,0.0,0.0,0.0,0.0,0.0,0.0,0.0,0.0,0.0,0.0,0.0,0.0,0.0,0.0,0.0,0.0,0.0,0.0,0.0,0.0,0.0,0.0,0.0,0.0,0.0,0.0,0.0,0.0,0.0,0.0,0.0,0.0,0.0,0.0,0.0,0.0,0.0,0.0,0.0,0.0,0.0,0.0,0.0,0.0,0.0,0.0,0.0,0.0,0.0,0.0,0.0,0.0,0.0,0.0,0.0,0.0,0.0,0.0,0.0,0.0,0.0,0.0,0.0,0.0,0.0,0.0,0.0,0.0,0.0,0.0,0.0,0.0,0.0,0.0,0.0,0.0,0.0,0.0,0.0,0.0,0.0,0.0,0.0,0.0,0.0,0.0,0.0,0.0,0.0,0.0,0.0,0.0,0.0,0.0,0.0,0.0,0.0,0.0,0.0,0.0,0.0,0.0,0.0,0.0,0.0,0.0,0.0,0.0,0.0,0.0,0.0,0.0,0.0,0.0,0.0,0.0,0.0,0.0,0.0,0.0,0.0,0.0,0.0,0.0,0.0,0.0,0.0,0.0,0.0,0.0,0.0,0.0,0.0,0.0,0.0,0.0,0.0,0.0,0.0,0.0,0.0,0.0,0.0,0.0,0.0,0.0,0.0,0.0,0.0,0.0,0.0,0.0,0.0,0.0,0.0,0.0,0.0,0.0,0.0,0.0,0.0,0.0,0.0,0.0,0.0,0.0,0.0,0.0,0.0,0.0,0.0,0.0,0.0,0.0,0.0,0.0,0.0,0.0,0.0,0.0,0.0,0.0,0.0,0.0,0.0,0.0,0.0,0.0,0.0,0.0,0.0,0.0,0.0,0.0,0.0,0.0,0.0,0.0,0.0,0.0,0.0,0.0,0.0,0.0,0.0,0.0,0.0,0.0,0.0,0.0,0.0,0.0,0.0,0.0,0.0,0.0,0.0,0.0,0.0,0.0,0.0,0.0,0.0,0.0,0.0,0.0,0.0,0.0,0.0,0.0,0.0,0.0,0.0,0.0,0.0,0.0,0.0,0.0,0.0,0.0,0.0,0.0,0.0,0.0,0.0,0.0,0.0,0.0,0.0,0.0,0.0,0.0,0.0,0.0,0.0,0.0,0.0,0.0,0.0,0.0,0.0,0.0,0.0,0.0,0.0,0.0,0.0,0.0,0.0,0.0,0.0,0.0,0.0,0.0,0.0,0.0,0.0,0.0,0.0,0.0,0.0,0.0,0.0,0.0,0.0,0.0,0.0,0.0,0.0,0.0,0.0,0.0,0.0,0.0,0.0,0.0,0.0,0.0,0.0,0.0,0.0,0.0,0.0,0.0,0.0,0.0,0.0,0.0,0.0,0.0,0.0,0.0,0.0,0.0,0.0,0.0,0.0,0.0,0.0,0.0,0.0,0.0,0.0,0.0,0.0,0.0,0.0,0.0,0.0,0.0,0.0,0.0,0.0,0.0,0.0,0.0,0.0,0.0,0.0,0.0,0.0,0.0,0.0,0.0,0.0,0.0,0.0,0.0,0.0,0.0,0.0,0.0,0.0,0.0,0.0,0.0,0.0,0.0,0.0,0.0,0.0,0.0,0.0,0.0,0.0,0.0,0.0,0.0,0.0,0.0,0.0,0.0,0.0,0.0,0.0,0.0,0.0,0.0,0.0,0.0,0.0,0.0,0.0,0.0,0.0,0.0,0.0,0.0,0.0,0.0,0.0,0.0,0.0,0.0,0.0,0.0,0.0,0.0,0.0,0.0,0.0,0.0,0.0,0.0,0.0,0.0,0.0,0.0,0.0,0.0,0.0,0.0,0.0,0.0,0.0,0.0,0.0,0.0,0.0,0.0,0.0,0.0,0.0,0.0,0.0,0.0,0.0,0.0,0.0,0.0,0.0,0.0,0.0,0.0,0.0,0.0,0.0,0.0,0.0,0.0,0.0,0.0,0.0,0.0,0.0,0.0,0.0,0.0,0.0,0.0,0.0,0.0,0.0,0.0,0.0,0.0,0.0,0.0,0.0,0.0,0.0,0.0,0.0,0.0,0.0,0.0,0.0,0.0,0.0,0.0,0.0,0.0,0.0,0.0,0.0,0.0,0.0,0.0,0.0,0.0,0.0,0.0,0.0,0.0,0.0,0.0,0.0,0.0,0.0,0.0,0.0,0.0,0.0,0.0,0.0,0.0,0.0,0.0,0.0,0.0,0.0,0.0,0.0,0.0,0.0,0.0,0.0,0.0,0.0,0.0,0.0,0.0,0.0,0.0,0.0,0.0,0.0,0.0,0.0,0.0,0.0,0.0,0.0,0.0,0.0,0.0,0.0,0.0,0.0,0.0,0.0,0.0,0.0,0.0,0.0,0.0,0.0,0.0,0.0,0.0,0.0,0.0,0.0,0.0,0.0,0.0,0.0,0.0,0.0,0.0,0.0,0.0,0.0,0.0,0.0,0.0,0.0,0.0,0.0,0.0,0.0,0.0,0.0,0.0,0.0,0.0,0.0,0.0,0.0,0.0,0.0,0.0,0.0,0.0,0.0,0.0,0.0,0.0,0.0,0.0,0.0,0.0,0.0,0.0,0.0,0.0,0.0,0.0,0.0,0.0,0.0,0.0,0.0,0.0,0.0,0.0,0.0,0.0,0.0,0.0,0.0,0.0,0.0,0.0,0.0,0.0,0.0,0.0,0.0,0.0,0.0,0.0,0.0,0.0,0.0,0.0,0.0,0.0,0.0,0.0,0.0,0.0,0.0,0.0,0.0,0.0,0.0,0.0,0.0,0.0,0.0,0.0,0.0,0.0,0.0,0.0,0.0,0.0,0.0,0.0,0.0,0.0,0.0,0.0,0.0,0.0,0.0,0.0,0.0,0.0,0.0,0.0,0.0,0.0,0.0,0.0,0.0,0.0,0.0,0.0,0.0,0.0,0.0,0.0,0.0,0.0,0.0,0.0,0.0,0.0,0.0,0.0,0.0,0.0,0.0,0.0,0.0,0.0,0.0,0.0,0.0,0.0,0.0,0.0,0.0,0.0,0.0,0.0,0.0,0.0,0.0,0.0,0.0,0.0,0.0,0.0,0.0,0.0,0.0,0.0,0.0,0.0,0.0,0.0,0.0,0.0,0.0,0.0,0.0,0.0,0.0,0.0,0.0,0.0,0.0,0.0,0.0,0.0,0.0,0.0,0.0,0.0,0.0,0.0,0.0,0.0,0.0,0.0,0.0,0.0,0.0,0.0,0.0,0.0,0.0,0.0,0.0,0.0,0.0,0.0,0.0,0.0,0.0,0.0,0.0,0.0,0.0,0.0,0.0,0.0,0.0,0.0,0.0,0.0,0.0,0.0,0.0,0.0,0.0,0.0,0.0,0.0,0.0,0.0,0.0,0.0,0.0,0.0,0.0,0.0,0.0,0.0,0.0,0.0,0.0,0.0,0.0,0.0,0.0,0.0,0.0,0.0,0.0,0.0,0.0,0.0,0.0,0.0,0.0,0.0,0.0,0.0,0.0,0.0,0.0,0.0,0.0,0.0,0.0,0.0,0.0,0.0,0.0,0.0,0.0,0.0,0.0,0.0,0.0,0.0,0.0,0.0,0.0,0.0,0.0,0.0,0.0,0.0,0.0,0.0,0.0,0.0,0.0,0.0,0.0,0.0,0.0,0.0,0.0,0.0,0.0,0.0,0.0,0.0,0.0,0.0,0.0,0.0,0.0,0.0,0.0,0.0,0.0,0.0,0.0,0.0,0.0,0.0,0.0,0.0,0.0,0.0,0.0,0.0,0.0,0.0,0.0,0.0,0.0,0.0,0.0,0.0,0.0,0.0,0.0,0.0,0.0,0.0,0.0,0.0,0.0,0.0,0.0,0.0,0.0,0.0,0.0,0.0,0.0,0.0,0.0,0.0,0.0,0.0,0.0,0.0,0.0,0.0,0.0,0.0,0.0,0.0,0.0,0.0,0.0,0.0,0.0,0.0,0.0,0.0,0.0,0.0,0.0,0.0,0.0,0.0,0.0,0.0,0.0,0.0,0.0,0.0,0.0,0.0,0.0,0.0,0.0,0.0,0.0,0.0,0.0,0.0,0.0,0.0,0.0,0.0,0.0,0.0,0.0,0.0,0.0,0.0,0.0,0.0,0.0,0.0,0.0,0.0,0.0,0.0,0.0,0.0,0.0,0.0,0.0,0.0,0.0,0.0,0.0,0.0,0.0,0.0,0.0,0.0,0.0,0.0,0.0,0.0,0.0,0.0,0.0,0.0,0.0,0.0,0.0,0.0,0.0,0.0,0.0,0.0,0.0,0.0,0.0,0.0,0.0,0.0,0.0,0.0,0.0,0.0,0.0,0.0,0.0,0.0,0.0,0.0,0.0,0.0,0.0,0.0,0.0,0.0,0.0,0.0,0.0,0.0,0.0,0.0,0.0,0.0,0.0,0.0,0.0,0.0,0.0,0.0,0.0,0.0,0.0,0.0,0.0,0.0,0.0,0.0,0.0,0.0,0.0,0.0,0.0,0.0,0.0,0.0,0.0,0.0,0.0,0.0,0.0,0.0,0.0,0.0,0.0,0.0,0.0,0.0,0.0,0.0,0.0,0.0,0.0,0.0,0.0,0.0,0.0,0.0,0.0,0.0,0.0,0.0,0.0,0.0,0.0,0.0,0.0,0.0,0.0,0.0,0.0,0.0,0.0,0.0,0.0,0.0,0.0,0.0,0.0,0.0,-0.2416,-0.0846,0.0,0.0,0.0,0.0,0.0,0.0,0.0,0.0,0.0,0.0,0.0,0.0,0.0,0.0,0.0,0.0,0.0,0.0,0.0,0.0,0.0,0.0,0.0,0.0,0.0,0.0,0.0,0.0,0.0,0.0,0.0,0.0,0.0,0.0,0.0,0.0,0.0,0.0,0.0,0.0,0.0,0.0,0.0,0.0,0.0,0.0,0.0,0.0,0.0,0.0,0.0,0.0,0.0,0.0,0.0,0.0,0.0,0.0,0.0,0.0,0.0,0.0,0.0,0.0,0.0,0.0,0.0,0.0,0.0,0.0,0.0,0.0,0.0,0.0,0.0,0.0,0.0,0.0,0.0,0.0,0.0,0.0,0.0,0.0,0.0,0.0,0.0,0.0,0.0,0.0,0.0,0.0,0.0,0.0,0.0,0.0,0.0,0.0,0.0,0.0,0.0,0.0,0.0,0.0,0.0,0.0,0.0,0.0,0.0,0.0,0.0,-0.1953,0.0,-0.3928,-0.1436,0.0,0.0,0.0,0.0,0.0,0.0,0.0,0.0,0.0,0.0,0.0,0.0,0.0,0.0,0.0,0.0,0.0,0.0,0.0,0.0,0.0,0.0,0.0,0.0,0.0,0.0,0.0,0.0,0.0,0.0,0.0,0.0,0.0,0.0,0.0,0.0,0.0,0.0,0.0,0.0,0.0,0.0,0.0,0.0,0.0,0.0,0.0,0.0,0.0,0.0,0.0,0.0,0.0,0.0,0.0,0.0,0.0,0.0,0.0,0.0,0.0,0.0,0.0,0.0,0.0,0.0,0.0,0.0,0.0,0.0,0.0,0.0,0.0,0.0,0.0,0.0,0.0,0.0,0.0,0.0,0.0,0.0,0.0,0.0,0.0,0.0,0.0,0.0,0.0,0.0,0.0,0.0,0.0,0.0,0.0,0.0,0.0,0.0,0.0,0.0,0.0,0.0,0.0,0.0,0.0,0.0,0.0,0.0,0.0,0.0,0.0,0.0,-0.1453,-0.3863,-0.1446,0.0,0.0,0.0,0.0,0.0,0.0,0.0,0.0,0.0,0.0,0.0,0.0,0.0,0.0,0.0,0.0,0.0,0.0,0.0,0.0,0.0,0.0,0.0,0.0,0.0,0.0,0.0,0.0,0.0,0.0,0.0,0.0,0.0,0.0,0.0,0.0,0.0,0.0,0.0,0.0,0.0,0.0,0.0,0.0,0.0,0.0,0.0,0.0,0.0,0.0,0.0,0.0,0.0,0.0,0.0,0.0,0.0,0.0,0.0,0.0,0.0,0.0,0.0,0.0,0.0,0.0,0.0,0.0,0.0,0.0,0.0,0.0,0.0,0.0,0.0,0.0,0.0,0.0,0.0,0.0,0.0,0.0,0.0,0.0,0.0,0.0,0.0,0.0,0.0,0.0,0.0,0.0,0.0,0.0,0.0,0.0,0.0,0.0,0.0,0.0,0.0,0.0,0.0,0.0,0.0,0.0,0.0,0.0,0.0,0.0,0.0,0.0,-0.0459,-0.1446,-0.2182,-0.1796,0.0,0.0,0.0,0.0,0.0,0.0,0.0,0.0,0.0,0.0,0.0,0.0,0.0,0.0,0.0,0.0,0.0,0.0,0.0,0.0,0.0,0.0,0.0,0.0,0.0,0.0,0.0,0.0,0.0,0.0,0.0,0.0,0.0,0.0,0.0,0.0,0.0,0.0,0.0,0.0,0.0,0.0,0.0,0.0,0.0,0.0,0.0,0.0,0.0,0.0,0.0,0.0,0.0,0.0,0.0,0.0,0.0,0.0,0.0,0.0,0.0,0.0,0.0,0.0,0.0,0.0,0.0,0.0,0.0,0.0,0.0,0.0,0.0,0.0,0.0,0.0,0.0,0.0,0.0,0.0,0.0,0.0,0.0,0.0,0.0,0.0,0.0,0.0,0.0,0.0,0.0,0.0,0.0,0.0,0.0,0.0,0.0,0.0,0.0,0.0,0.0,0.0,0.0,0.0,0.0,0.0,0.0,0.0,0.0,0.0,0.0,0.0,0.0,-0.1787,-0.1893,0.0,0.0,0.0,0.0,0.0,0.0,0.0,0.0,0.0,0.0,0.0,0.0,0.0,0.0,0.0,0.0,0.0,0.0,0.0,0.0,0.0,0.0,0.0,0.0,0.0,0.0,0.0,0.0,0.0,0.0,0.0,0.0,0.0,0.0,0.0,0.0,0.0,0.0,0.0,0.0,0.0,0.0,0.0,0.0,0.0,0.0,0.0,0.0,0.0,0.0,0.0,0.0,0.0,0.0,0.0,0.0,0.0,0.0,0.0,0.0,0.0,0.0,0.0,0.0,0.0,0.0,0.0,0.0,0.0,0.0,0.0,0.0,0.0,0.0,0.0,0.0,0.0,0.0,0.0,0.0,0.0,0.0,0.0,0.0,0.0,0.0,0.0,0.0,0.0,0.0,0.0,0.0,0.0,0.0,0.0,0.0,0.0,0.0,0.0,0.0,0.0,0.0,0.0,0.0,0.0,0.0,0.0,0.0,0.0,0.0,0.0,0.0,0.0,0.0,0.0,0.0,0.0,0.0,0.0,0.0,0.0,0.0,0.0,0.0,0.0,0.0,0.0,0.0,0.0,0.0,0.0,0.0,0.0,0.0,0.0,0.0,0.0,0.0,0.0,0.0,0.0,0.0,0.0,0.0,0.0,0.0,0.0,0.0,0.0,0.0,0.0,0.0,0.0,0.0,0.0,0.0,0.0,0.0,0.0,0.0,0.0,0.0,0.0,0.0,0.0,0.0,0.0,0.0,0.0,0.0,0.0,0.0,0.0,0.0,0.0,0.0,0.0,0.0,0.0,0.0,0.0,0.0,0.0,0.0,0.0,0.0,0.0,0.0,0.0,0.0,0.0,0.0,0.0,0.0,0.0,0.0,0.0,0.0,0.0,0.0,0.0,0.0,0.0,0.0,0.0,0.0,0.0,0.0,0.0,0.0,0.0,0.0,0.0,0.0,0.0,0.0,0.0,0.0,0.0,0.0,0.0,0.0,0.0,0.0,-0.2992,-0.1064,0.0,0.0,0.0,0.0,0.0,0.0,0.0,0.0,0.0,0.0,0.0,0.0,0.0,0.0,0.0,0.0,0.0,0.0,0.0,0.0,0.0,0.0,0.0,0.0,0.0,0.0,0.0,0.0,0.0,0.0,0.0,0.0,0.0,0.0,0.0,0.0,0.0,0.0,0.0,0.0,0.0,0.0,0.0,0.0,0.0,0.0,0.0,0.0,0.0,0.0,0.0,0.0,0.0,0.0,0.0,0.0,0.0,0.0,0.0,0.0,0.0,0.0,0.0,0.0,0.0,0.0,0.0,0.0,0.0,0.0,0.0,0.0,0.0,0.0,0.0,0.0,0.0,0.0,0.0,0.0,0.0,0.0,0.0,0.0,0.0,0.0,0.0,0.0,0.0,0.0,0.0,0.0,0.0,0.0,0.0,0.0,0.0,0.0,0.0,0.0,0.0,0.0,0.0,0.0,0.0,0.0,0.0,0.0,0.0,0.0,0.0,0.0,0.0,-0.4252,-0.2624,-0.1113,-0.0017,0.0,0.0,0.0,0.0,0.0,0.0,0.0,0.0,0.0,0.0,0.0,0.0,0.0,0.0,0.0,0.0,0.0,0.0,0.0,0.0,0.0,0.0,0.0,0.0,0.0,0.0,0.0,0.0,0.0,0.0,0.0,0.0,0.0,0.0,0.0,0.0,0.0,0.0,0.0,0.0,0.0,0.0,0.0,0.0,0.0,0.0,0.0,0.0,0.0,0.0,0.0,0.0,0.0,0.0,0.0,0.0,0.0,0.0,0.0,0.0,0.0,0.0,0.0,0.0,0.0,0.0,0.0,0.0,0.0,0.0,0.0,0.0,0.0,0.0,0.0,0.0,0.0,0.0,0.0,0.0,0.0,0.0,0.0,0.0,0.0,0.0,0.0,0.0,0.0,0.0,0.0,0.0,0.0,0.0,0.0,0.0,0.0,0.0,0.0,0.0,0.0,0.0,0.0,0.0,0.0,0.0,0.0,0.0,0.0,0.0,0.0,-0.4353,-0.4389,-0.3048,0.0,0.0,0.0,0.0,0.0,0.0,0.0,0.0,0.0,0.0,0.0,0.0,0.0,0.0,0.0,0.0,0.0,0.0,0.0,0.0,0.0,0.0,0.0,0.0,0.0,0.0,0.0,0.0,0.0,0.0,0.0,0.0,0.0,0.0,0.0,0.0,0.0,0.0,0.0,0.0,0.0,0.0,0.0,0.0,0.0,0.0,0.0,0.0,0.0,0.0,0.0,0.0,0.0,0.0,0.0,0.0,0.0,0.0,0.0,0.0,0.0,0.0,0.0,0.0,0.0,0.0,0.0,0.0,0.0,0.0,0.0,0.0,0.0,0.0,0.0,0.0,0.0,0.0,0.0,0.0,0.0,0.0,0.0,0.0,0.0,0.0,0.0,0.0,0.0,0.0,0.0,0.0,0.0,0.0,0.0,0.0,0.0,0.0,0.0,0.0,0.0,0.0,0.0,0.0,0.0,0.0,0.0,0.0,0.0,0.0,0.0,0.0,-0.4372,-0.4295,-0.3906,-0.3138,-0.1116,0.0,0.0,0.0,0.0,0.0,0.0,0.0,0.0,0.0,0.0,0.0,0.0,0.0,0.0,0.0,0.0,0.0,0.0,0.0,0.0,0.0,0.0,0.0,0.0,0.0,0.0,0.0,0.0,0.0,0.0,0.0,0.0,0.0,0.0,0.0,0.0,0.0,0.0,0.0,0.0,0.0,0.0,0.0,0.0,0.0,0.0,0.0,0.0,0.0,0.0,0.0,0.0,0.0,0.0,0.0,0.0,0.0,0.0,0.0,0.0,0.0,0.0,0.0,0.0,0.0,0.0,0.0,0.0,0.0,0.0,0.0,0.0,0.0,0.0,0.0,0.0,0.0,0.0,0.0,0.0,0.0,0.0,0.0,0.0,0.0,0.0,0.0,0.0,0.0,0.0,0.0,0.0,0.0,0.0,0.0,0.0,0.0,0.0,0.0,0.0,0.0,0.0,0.0,0.0,0.0,0.0,0.0,0.0,0.0,-0.4482,-0.4397,-0.4274,-0.4208,-0.4258,-0.2634,-0.1163,0.0,0.0,0.0,0.0,0.0,0.0,0.0,0.0,0.0,0.0,0.0,0.0,0.0,0.0,0.0,0.0,0.0,0.0,0.0,0.0,0.0,0.0,0.0,0.0,0.0,0.0,0.0,0.0,0.0,0.0,0.0,0.0,0.0,0.0,0.0,0.0,0.0,0.0,0.0,0.0,0.0,0.0,0.0,0.0,0.0,0.0,0.0,0.0,0.0,0.0,0.0,0.0,0.0,0.0,0.0,0.0,0.0,0.0,0.0,0.0,0.0,0.0,0.0,0.0,0.0,0.0,0.0,0.0,0.0,0.0,0.0,0.0,0.0,0.0,0.0,0.0,0.0,0.0,0.0,0.0,0.0,0.0,0.0,0.0,0.0,0.0,0.0,0.0,0.0,0.0,0.0,0.0,0.0,0.0,0.0,0.0,0.0,0.0,0.0,0.0,0.0,0.0,0.0,0.0,0.0,0.0,0.0,0.0,-0.4457,-0.4392,-0.4268,-0.4217,-0.4208,-0.4139,-0.2954,0.0,0.0,0.0,0.0,0.0,0.0,0.0,0.0,0.0,0.0,0.0,0.0,0.0,0.0,0.0,0.0,0.0,0.0,0.0,0.0,0.0,0.0,0.0,0.0,0.0,0.0,0.0,0.0,0.0,0.0,0.0,0.0,0.0,0.0,0.0,0.0,0.0,0.0,0.0,0.0,0.0,0.0,0.0,0.0,0.0,0.0,0.0,0.0,0.0,0.0,0.0,0.0,0.0,0.0,0.0,0.0,0.0,0.0,0.0,0.0,0.0,0.0,0.0,0.0,0.0,0.0,0.0,0.0,0.0,0.0,0.0,0.0,0.0,0.0,0.0,0.0,0.0,0.0,0.0,0.0,0.0,0.0,0.0,0.0,0.0,0.0,0.0,0.0,0.0,0.0,0.0,0.0,0.0,0.0,0.0,0.0,0.0,0.0,0.0,0.0,0.0,0.0,0.0,0.0,0.0,0.0,0.0,0.0,-0.4462,-0.4386,-0.4252,-0.4204,-0.4208,-0.4144,-0.3798,0.0,0.0,0.0,0.0,0.0,0.0,0.0,0.0,0.0,0.0,0.0,0.0,0.0,0.0,0.0,0.0,0.0,0.0,0.0,0.0,0.0,0.0,0.0,0.0,0.0,0.0,0.0,0.0,0.0,0.0,0.0,0.0,0.0,0.0,0.0,0.0,0.0,0.0,0.0,0.0,0.0,0.0,0.0,0.0,0.0,0.0,0.0,0.0,0.102,0.0,0.0,0.0,0.0,0.0,0.0,0.0,0.0,0.0,0.0,0.0,0.0,0.0,0.0,0.0,0.0,0.0,0.0,0.0,0.0,0.0,0.0,0.0,0.0,0.0,0.0,0.0,0.0,0.0,0.0,0.0,0.0,0.0,0.0,0.0,0.0,0.0,0.0,0.0,0.0,0.0,0.0,0.0,0.0,0.0,0.0,0.0,0.0,0.0,0.0,0.0,0.0,0.0,0.0,0.0,0.0,0.0,0.0,0.0,-0.442,-0.4367,-0.4252,-0.4217,-0.4195,-0.4098,-0.4035,0.0,0.0,0.0,0.0,0.0,0.0,0.0,0.0,0.0,0.0,0.0,0.0,0.0,0.0,0.0,0.0,0.0,0.0,0.0,0.0,0.0,0.0,0.0,0.0,0.0,0.0,0.0,0.0,0.0,0.0,0.0,0.0,0.0,0.0,0.0,0.0,0.0,0.0,0.0,0.0,0.0,0.0,0.0,0.0,0.0,0.0,0.0,0.0,0.0,0.0,0.0,0.0,0.0,0.0,0.0,0.0,0.0,0.0,0.0,0.0,0.0,0.0,0.0,0.0,0.0,0.0,0.0,0.0,0.0,0.0,0.0,0.0,0.0,0.0,0.0,0.0,0.0,0.0,0.0,0.0,0.0,0.0,0.0,0.0,0.0,0.0,0.0,0.0,0.0,0.0,0.0,0.0,0.0,0.0,0.0,0.0,0.0,0.0,0.0,0.0,0.0,0.0,0.0,0.0,0.0,0.0,0.0,-0.3606,-0.4348,-0.4296,-0.4217,-0.4176,-0.4178,-0.4065,-0.3994,0.0,0.0,0.0,0.0,0.0,0.0,0.0,0.0,0.0,0.0,0.0,0.0,0.0,0.0,0.0,0.0,0.0,0.0,0.0,0.0,0.0,0.0,0.0,0.0,0.0,0.0,0.0,0.0,0.0,0.0,0.0,0.0,0.0,0.0,0.0,0.0,0.0,0.0,0.0,0.0,0.0,0.0,0.0,0.0,0.0,0.0,0.0,0.0,0.0,0.0241,0.0,0.0,0.0,0.0,0.0,0.0,0.0,0.0,0.0,0.0,0.0,0.0,0.0,0.0,0.0,0.0,0.0,0.0,0.0,0.0,0.0,0.0,0.0,0.0,0.0,0.0,0.0,0.0,0.0,0.0,0.0,0.0,0.0,0.0,0.0,0.0,0.0,0.0,0.0,0.0,0.0,0.0,0.0,0.0,0.0,0.0,0.0,0.0,0.0,0.0,0.0,0.0,0.0,0.0,0.0,0.0,-0.2086,-0.3563,-0.4279,-0.4227,-0.4214,-0.4179,-0.4112,-0.4048,-0.397,-0.3844,0.0,0.0,0.0,0.0,0.0,0.0,0.0,0.0,0.0,0.0,0.0,0.0,0.0,0.0,0.0,0.0,0.0,0.0,0.0,0.0,0.0,0.0,0.0,0.0,0.0,0.0,0.0,0.0,0.0,0.0,0.0,0.0,0.0,0.0,0.0,0.0,0.0,0.0,0.0,0.0,0.0052,0.0,0.0,0.0,0.0,0.0,0.0,0.0,0.0,0.0071,0.0,0.0,0.0,0.0,0.0,0.0,0.0,0.0,0.0,0.0,0.0,0.0,0.0,0.0,0.0,0.0,0.0,0.0,0.0,0.0,0.0,0.0,0.0,0.0,0.0,0.0,0.0,0.0,0.0,0.0,0.0,0.0,0.0,0.0,0.0,0.0,0.0,0.0,0.0,0.0,0.0,0.0,0.0,0.0,0.0,0.0,0.0,0.0,0.0,0.0,0.0,0.0,0.0,0.0,0.0,-0.2038,-0.3469,-0.4205,-0.4208,-0.4153,-0.4129,-0.4084,-0.3991,-0.3938,0.0,0.0,0.0,0.0,0.0,0.0,0.0,0.0,0.0,0.0,0.0,0.0,0.0,0.0,0.0,0.0,0.0,0.0,0.0,0.0,0.0,0.0,0.0,0.0,0.0,0.0,0.0,0.0,0.0,0.0,0.0,0.0,0.0,0.0,0.0,0.0,0.0,0.0,0.0,0.0,0.0061,0.0025,-0.0176,0.0,0.0,0.0,0.0,0.0,0.0,0.0,0.0,0.0,0.0,0.0,0.0,0.0,0.0,0.0,0.0,0.0,0.0,0.0,0.0,0.0,0.0,0.0,0.0,0.0,0.0,0.0,0.0,0.0,0.0,0.0,0.0,0.0,0.0,0.0,0.0,0.0,0.0,0.0,0.0,0.0,0.0,0.0,0.0,0.0,0.0,0.0,0.0,0.0,0.0,0.0,0.0,0.0,0.0,0.0,0.0,0.0,0.0,0.0,0.0,0.0,0.0,0.0,-0.1987,-0.3388,-0.4128,-0.4168,-0.4131,-0.4094,-0.4068,-0.3967,-0.3913,0.0,0.0,0.0,0.0,0.0,0.0,0.0,0.0,0.0,0.0,0.0,0.0,0.0,0.0,0.0,0.0,0.0,0.0,0.0,0.0,0.0,0.0,0.0,0.0,0.0,0.0,0.0,0.0,0.0,0.0,0.0,0.0,0.0,0.0,0.0,0.0,0.0,0.0,0.0,0.0,0.0,0.0083,-0.0413,0.0516,0.0,0.0,0.0,0.0,0.0,0.0052,0.0,0.0,0.0,0.0,0.0,0.0,0.0,0.0,0.0,0.0,0.0,0.0,0.0,0.0,0.0,0.0,0.0,0.0,0.0,0.0,0.0,0.0,0.0,0.0,0.0,0.0,0.0,0.0,0.0,0.0,0.0,0.0,0.0,0.0,0.0,0.0,0.0,0.0,0.0,0.0,0.0,0.0,0.0,0.0,0.0,0.0,0.0,0.0,0.0,0.0,0.0,0.0,0.0,0.0,0.0,0.0,-0.2001,-0.339,-0.4089,-0.4118,-0.4111,-0.4062,-0.4013,-0.3938,-0.3913,0.0,0.0,0.0,0.0,0.0,0.0,0.0,0.0,0.0,0.0,0.0,0.0,0.0,0.0,0.0,0.0,0.0,0.0,0.0,0.0,0.0,0.0,0.0,0.0,0.0,0.0,0.0,0.0,0.0,0.0,0.0,0.0,0.0,0.0,0.0,0.0,0.0,0.0,0.0,0.0,0.0,0.0145,-0.0718,-0.0256,0.0323,0.0,0.0,0.0,0.0044,0.0249,0.0,0.0,0.0,0.0,0.0,0.0,0.0,0.0,0.0,0.0,0.0,0.0,0.0,0.0,0.0,0.0,0.0,0.0,0.0,0.0,0.0,0.0,0.0,0.0,0.0,0.0,0.0,0.0,0.0,0.0,0.0,0.0,0.0,0.0,0.0,0.0,0.0,0.0,0.0,0.0,0.0,0.0,0.0,0.0,0.0,0.0,0.0,0.0,0.0,0.0,0.0,0.0,0.0,0.0,0.0,-0.0649,-0.1973,-0.3313,-0.3992,-0.4039,-0.4039,-0.4025,-0.3997,-0.3229,-0.3157,0.0,0.0,0.0,0.0,0.0,0.0,0.0,0.0,0.0,0.0,0.0,0.0,0.0,0.0,0.0,0.0,0.0,0.0,0.0,0.0,0.0,0.0,0.0,0.0,0.0,0.0,0.0,0.0,0.0,0.0,0.0,0.0,0.0,0.0,0.0,0.0,0.0,0.0,0.0,0.0,0.0,0.0,-0.0507,-0.0189,0.0,0.0,0.0,0.0429,0.0256,0.0,0.0,0.0,0.0,0.0,0.0,0.0,0.0,0.0,0.0,0.0,0.0,0.0,0.0,0.0,0.0,0.0,0.0,0.0,0.0,0.0,0.0,0.0,0.0,0.0,0.0,0.0,0.0,0.0,0.0,0.0,0.0,0.0,0.0,0.0,0.0,0.0,0.0,0.0,0.0,0.0,0.0,0.0,0.0,0.0,0.0,0.0,0.0,0.0,0.0,0.0,0.0,0.0,0.0,0.0,0.0,0.0,-0.1983,-0.3244,-0.3916,-0.397,-0.3993,-0.3994,-0.3953,-0.2696,0.0,0.0,0.0,0.0,0.0,0.0,0.0,0.0,0.0,0.0,0.0,0.0,0.0,0.0,0.0,0.0,0.0,0.0,0.0,0.0,0.0,0.0,0.0,0.0,0.0,0.0,0.0,0.0,0.0,0.0,0.0,0.0,0.0,0.0,0.0,0.0,0.0,0.0,0.0,0.0,0.0,0.0,0.0364,-0.0611,-0.047,-0.0121,0.0,0.0,0.0078,0.0033,0.0821,0.1469,0.0,0.0,0.0,0.0,0.0,0.0,0.0,0.0,0.0,0.0,0.0,0.0,0.0,0.0,0.0,0.0,0.0,0.0,0.0,0.0,0.0,0.0,0.0,0.0,0.0,0.0,0.0,0.0,0.0,0.0,0.0,0.0,0.0,0.0,0.0,0.0,0.0,0.0,0.0,0.0,0.0,0.0,0.0,0.0,0.0,0.0,0.0,0.0,0.0,0.0,0.0,0.0,0.0,0.0,0.0,-0.1977,-0.3253,-0.3913,-0.3913,-0.3964,-0.3964,-0.3883,-0.2666,-0.1472,0.0,0.0,0.0,0.0,0.0,0.0,0.0,0.0,0.0,0.0,0.0,0.0,0.0,0.0,0.0,0.0,0.0,0.0,0.0,0.0,0.0,0.0,0.0,0.0,0.0,0.0,0.0,0.0,0.0,0.0,0.0,0.0,0.0,0.0,0.0,0.0,0.0,0.0,0.0,0.0,0.0,0.0589,-0.1431,-0.1576,-0.1367,0.0,0.0,-0.0989,-0.0998,-0.0166,0.0496,0.0513,0.0,0.0,0.0,0.0,0.0,0.0,0.0,0.0,0.0,0.0,0.0,0.0,0.0,0.0,0.0,0.0,0.0,0.0,0.0,0.0,0.0,0.0,0.0,0.0,0.0,0.0,0.0,0.0,0.0,0.0,0.0,0.0,0.0,0.0,0.0,0.0,0.0,0.0,0.0,0.0,0.0,0.0,0.0,0.0,0.0,0.0,0.0,0.0,0.0,0.0,0.0,0.0,0.0,-0.0656,-0.1999,-0.3256,-0.3913,-0.3913,-0.3916,-0.3939,-0.3913,-0.3422,-0.217,0.0,0.0,0.0,0.0,0.0,0.0,0.0,0.0,0.0,0.0,0.0,0.0,0.0,0.0,0.0,0.0,0.0,0.0,0.0,0.0,0.0,0.0,0.0,0.0,0.0,0.0,0.0,0.0,0.0,0.0,0.0,0.0,0.0,0.0,0.0,0.0,0.0,0.0,0.0,0.0,0.0,-0.1036,-0.2617,-0.2692,0.0,0.0,-0.2326,-0.2148,-0.2148,-0.1095,-0.0078,0.0479,0.0513,0.0,0.0,0.0,0.0,0.0,0.0,0.0,0.0,0.0,0.0,0.0,0.0,0.0,0.0,0.0,0.0,0.0,0.0,0.0,0.0,0.0,0.0,0.0,0.0,0.0,0.0,0.0,0.0,0.0,0.0,0.0,0.0,0.0,0.0,0.0,0.0,0.0,0.0,0.0,0.0,0.0,0.0,0.0,0.0,0.0,0.0,0.0,0.0,0.0,0.0,0.0,0.0,-0.1432,-0.1985,-0.325,-0.3913,-0.3913,-0.3913,-0.3913,-0.3913,-0.3913,-0.2859,0.0,0.0,0.0,0.0,0.0,0.0,0.0,0.0,0.0,0.0,0.0,0.0,0.0,0.0,0.0,0.0,0.0,0.0,0.0,0.0,0.0,0.0,0.0,0.0,0.0,0.0,0.0,0.0,0.0,0.0,0.0,0.0,0.0,0.0,0.0,0.0,0.0,0.0,0.0,0.0,0.0,-0.2662,-0.3403,-0.3379,-0.3351,-0.359,-0.3266,-0.3004,-0.2999,-0.1774,-0.0544,0.0206,0.0,0.0,0.0,0.0,0.0,0.0,0.0,0.0,0.0,0.0,0.0,0.0,0.0,0.0,0.0,0.0,0.0,0.0,0.0,0.0,0.0,0.0,0.0,0.0,0.0,0.0,0.0,0.0,0.0,0.0,0.0,0.0,0.0,0.0,0.0,0.0,0.0,0.0,0.0,0.0,0.0,0.0,0.0,0.0,0.0,0.0,0.0,0.0,0.0,0.0,0.0,0.0,0.0,0.0,-0.2055,-0.3283,-0.3913,-0.3913,-0.3913,-0.3913,-0.3913,-0.3913,-0.3289,-0.1929,0.0,0.0,0.0,0.0,0.0,0.0,0.0,0.0,0.0,0.0,0.0,0.0,0.0,0.0,0.0,0.0,0.0,0.0,0.0,0.0,0.0,0.0,0.0,0.0,0.0,0.0,0.0,0.0,0.0,0.0,0.0,0.0,0.0,0.0,0.0,0.0,0.0,0.0,0.0,-0.4401,-0.3966,-0.3563,-0.3506,-0.3587,-0.3827,-0.3643,-0.3485,-0.3474,-0.2145,-0.0954,0.0,0.0,0.0,0.0,0.0,0.0,0.0,0.0,0.0,0.0,0.0,0.0,0.0,0.0,0.0,0.0,0.0,0.0,0.0,0.0,0.0,0.0,0.0,0.0,0.0,0.0,0.0,-0.0066,-0.0061,0.0,0.0,0.0,0.0,0.0,0.0,0.0,0.0,0.0,0.0,0.0,-0.2403,-0.2412,0.0,0.0,0.0,0.0,0.0,0.0,0.0,0.0,0.0,0.0,0.0,0.0,-0.3689,-0.33,-0.3689,-0.3913,-0.3913,-0.3913,-0.3913,-0.3913,-0.3913,-0.2877,-0.0743,0.0,0.0,0.0,0.0,0.0,0.0,0.0,0.0,0.0,0.0,0.0,0.0,0.0,0.0,0.0,0.0,0.0,0.0,0.0,0.0,0.0,0.0,0.0,0.0,0.0,0.0,0.0,0.0,0.0,0.0,0.0,0.0,0.0,0.0,0.0,0.0,0.0,-0.2918,-0.4753,-0.4774,-0.4441,-0.4032,-0.396,-0.3839,0.0,0.0,0.0,0.0,0.0,0.0,0.0,0.0,0.0,0.0,0.0,0.0,0.0,0.0,-0.0798,-0.0564,0.0086,0.0585,0.0515,0.0,0.0,0.0,0.0,0.0,0.0,0.0,0.0,0.0,0.0,0.0,0.0,0.0,0.0,0.0,0.0,-0.1538,0.0,0.0,0.0,0.0,0.0,0.0,0.0,0.0,-0.3748,-0.3889,-0.3751,-0.3751,-0.4043,0.0,-0.4357,-0.3238,0.0,0.0,0.0,0.0,0.0,0.0,0.0,0.0,-0.3913,-0.3913,-0.3913,-0.3913,-0.3913,-0.3913,-0.3913,-0.3913,-0.391,-0.3063,-0.1333,-0.0456,0.0,0.0,0.0,0.0,0.0,0.0,0.0,0.0,0.0,0.0,0.0,0.0,0.0,0.0,0.0,0.0,0.0,0.0,0.0,0.0,0.0,0.0,0.0,0.0,0.0,0.0,0.0,0.0,0.0,0.0,0.0,0.0,0.0,0.0,-0.1363,-0.2705,-0.4078,-0.5259,-0.5108,-0.4783,-0.4462,0.0,0.0,0.0,0.0,0.0,0.0,0.0,-0.2417,-0.1468,-0.1449,-0.1479,-0.1177,-0.0864,-0.0665,-0.0757,0.0,0.0,-0.1009,-0.0456,-0.0025,-0.0283,-0.0189,-0.0078,-0.0167,0.0206,0.0357,0.0,0.0,0.0,0.0,0.0,0.0,0.0,0.0,-0.4722,-0.4429,0.0,-0.4251,0.0,0.0,0.0,0.0,0.0,0.0,0.0,0.0,-0.559,-0.5918,-0.5857,-0.5837,-0.5868,-0.5853,-0.5232,-0.457,-0.3785,-0.1371,0.0,0.0,0.0,0.0,0.0,0.0,-0.3913,-0.3913,-0.3913,-0.3913,-0.3913,-0.3913,-0.3913,-0.3913,-0.391,-0.3817,-0.3611,-0.1402,0.0,0.0,0.0,0.0,0.0,0.0,0.0,0.0,0.0,0.0,0.0,0.0,0.0,0.0,0.0,0.0,0.0,0.0,0.0,0.0,0.0,0.0,0.0,0.0,0.0,0.0,0.0,0.0,0.0,0.0,0.0,0.0,0.0,0.0,-0.0405,-0.3532,-0.5966,-0.5845,0.0,0.0,0.0,0.0,-0.2392,-0.2325,-0.2203,-0.2276,-0.2705,-0.2968,-0.2895,-0.2226,0.0,0.0,-0.1392,-0.1039,-0.091,-0.0899,-0.0799,-0.0637,-0.0449,-0.0393,-0.0321,-0.0225,-0.0006,0.0083,-0.0145,-0.0169,-0.0201,-0.9057,0.0,0.0,0.0,0.0,-0.6407,-0.5983,-0.5386,-0.5162,-0.4842,-0.4487,-0.4412,0.0,0.0,0.0,0.0,0.0,0.0,-0.57,-0.5579,-0.6291,-0.6356,-0.5898,-0.5892,-0.5892,-0.5877,-0.5715,-0.5213,-0.4443,-0.333,-0.2489,-0.1931,0.0,0.0,0.0,0.0,-0.3913,-0.3913,-0.3913,-0.3913,-0.3913,-0.3913,-0.3913,-0.3913,-0.391,-0.3869,-0.3825,-0.3057,-0.1817,0.0,0.0,0.0,0.0,0.0,0.0,0.0,0.0,0.0,0.0,0.0,0.0,0.0,0.0,0.0,0.0,0.0,0.0,0.0,0.0,0.0,0.0,0.0,0.0,0.0,0.0,0.0,0.0,0.0,0.0,0.0,0.0,0.0,-0.2159,-0.4288,-0.531,0.0,0.0,-0.3264,-0.3115,-0.2692,-0.2378,-0.2378,0.0,0.0,0.0,-0.2164,-0.2174,-0.2537,-0.2324,-0.1944,-0.1564,-0.1275,-0.1095,-0.1062,-0.0945,-0.0768,-0.0509,-0.022,-0.0098,-0.0147,0.0022,0.0111,-0.0128,-0.0211,-0.0245,-1.1612,-1.0364,-0.8884,-0.8243,-0.8175,-0.8146,-0.7919,-0.7574,-0.7531,-0.7335,-0.7038,-0.6976,-0.6763,-0.6393,-0.5758,0.0,0.0,0.0,-0.6518,-0.6687,-0.7107,-0.7077,-0.6706,-0.6691,-0.6691,-0.6697,-0.6437,-0.6065,-0.5549,-0.4984,-0.4309,-0.3565,0.0,0.0,-0.3847,-0.4129,-0.4159,-0.3924,-0.3913,-0.3913,-0.3913,-0.3913,-0.3913,-0.3913,-0.3913,-0.3906,-0.3902,-0.381,-0.2834,-0.0805,-0.0249,0.0,0.0,0.0,0.0,0.0,0.0,0.0,0.0,0.0,0.0,0.0,0.0,0.0,0.0,0.0,0.0,0.0,0.0,0.0,0.0,0.0,0.0,0.0,0.0,0.0,0.0,0.0,0.0,-0.0099,-0.2038,-0.3328,-0.3073,-0.3951,-0.4153,-0.2756,-0.2554,-0.2476,-0.2413,0.0,-0.2413,-0.2413,-0.2233,-0.2108,-0.2108,-0.1872,-0.1853,-0.2323,-0.2082,-0.1798,-0.1683,-0.1539,-0.1389,-0.1233,-0.1041,-0.0854,-0.0687,-0.0379,-0.0156,-0.025,-0.0172,-0.0106,-0.0117,-0.0067,-0.0033,-1.3922,-1.3238,-1.189,-1.1176,-1.0906,-1.0899,-1.0882,-1.0899,-1.0882,-1.0899,-1.0899,-1.084,-1.0418,-0.9683,-0.829,0.0,0.0,-0.7615,-0.7549,-0.8083,-0.7951,-0.7906,-0.7906,-0.7891,-0.7906,-0.7891,-0.7256,-0.6951,-0.6867,-0.6276,-0.5948,-0.5872,-0.4733,-0.4054,-0.3916,-0.4608,-0.4649,-0.3995,-0.3987,-0.3965,-0.3913,-0.3913,-0.3913,-0.3913,-0.3913,-0.391,-0.391,-0.391,-0.329,-0.2015,-0.0713,0.0,0.0,0.0,0.0,0.0,0.0,0.0,0.0,0.0,0.0,0.0,0.0,0.0,0.0,0.0,0.0,0.0,0.0,0.0,-0.0197,-0.0217,0.0,0.0,0.0,-0.0663,-0.1276,-0.0682,-0.0229,-0.024,0.0,0.0,0.0,0.0,-0.2794,-0.2486,-0.2423,-0.2418,-0.2413,-0.2413,-0.2413,-0.2413,-0.2233,-0.2108,-0.2102,-0.1924,-0.1803,-0.1861,-0.1803,-0.1803,-0.1803,-0.1783,-0.1692,-0.1426,-0.1117,-0.0899,-0.0882,-0.0687,-0.0524,-0.0485,-0.049,-0.0407,0.0,0.0222,0.0367,-1.4951,-1.4771,-1.4416,-1.2979,-1.0915,-1.0899,-1.0899,-1.0899,-1.0899,-1.0899,-1.0899,-1.0894,-1.072,-1.0442,-1.0042,-0.9841,-0.9781,-0.8987,-0.8674,-0.8712,-0.8154,-0.7906,-0.7906,-0.7906,-0.7906,-0.7884,-0.7734,-0.7405,-0.6906,-0.6742,-0.6401,-0.5937,-0.6094,-0.5915,-0.5396,-0.5555,-0.5327,-0.4672,-0.4672,-0.441,-0.3924,-0.3913,-0.3913,-0.3913,-0.3913,-0.3909,-0.391,-0.391,-0.3747,-0.3367,-0.1228,0.0,0.0,0.0,0.0,0.0,0.0,0.0,0.0,0.0,0.0,0.0,0.0,0.0,0.0,0.0,0.0,0.0,0.0,-0.056,-0.1925,-0.2152,0.0,0.0,-0.2104,-0.239,-0.2563,-0.2405,-0.2291,-0.2273,-0.3145,-0.3538,-0.3051,-0.2985,-0.2934,-0.2858,-0.268,-0.2529,-0.2427,-0.2413,-0.2413,-0.2403,-0.2313,-0.2211,-0.2161,-0.1929,-0.1832,-0.1803,-0.1811,-0.1803,-0.1803,-0.1803,-0.1703,-0.1448,-0.1134,-0.0921,-0.0899,-0.0854,-0.0851,-0.0911,-0.0864,-0.0485,0.0457,0.0809,0.0883,-1.6083,-1.579,-1.5801,-1.4662,-1.2854,-1.2862,-1.2663,-1.2364,-1.2373,-1.2191,-1.1884,-1.1893,-1.1802,-1.1653,-1.1261,-1.0975,-1.0733,-0.9917,-0.9516,-0.9402,-0.8681,-0.8342,-0.8327,-0.8041,-0.7906,-0.7906,-0.7906,-0.7719,-0.7368,-0.7353,-0.7152,-0.6816,-0.7167,-0.7167,-0.6786,-0.6496,-0.589,-0.4921,-0.4608,-0.4271,-0.3924,-0.3913,-0.3913,-0.3913,-0.3913,-0.3913,-0.3913,-0.3526,-0.3241,-0.3006,-0.1094,0.0,0.0,0.0,0.0,0.0,0.0,0.0,0.0,0.0,0.0,0.0,0.0,0.0,0.0,0.0,0.0,0.0,-0.0493,-0.1351,-0.2667,-0.2867,-0.2927,-0.2985,-0.2985,-0.2985,-0.2985,-0.2985,-0.2985,-0.2985,-0.2985,-0.2985,-0.2985,-0.2985,-0.2985,-0.2985,-0.2809,-0.2583,-0.2432,-0.2413,-0.2413,-0.2408,-0.2378,-0.2543,-0.2935,-0.2757,-0.2568,-0.2553,-0.256,-0.2413,-0.1902,-0.1803,-0.1708,-0.1437,-0.1128,-0.0932,-0.0988,-0.0995,-0.1017,-0.1057,-0.1046,-0.0572,0.0479,0.0912,0.0925,-1.7133,-1.6553,-1.6553,-1.6155,-1.5591,-1.5585,-1.5126,-1.4351,-1.4334,-1.392,-1.3233,-1.3251,-1.3121,-1.284,-1.2129,-1.1713,-1.1467,-1.0609,-1.0184,-1.007,-0.9284,-0.8921,-0.8883,-0.8199,-0.7906,-0.7906,-0.7906,-0.7906,-0.7906,-0.7906,-0.7906,-0.7906,-0.7906,-0.7906,-0.7869,-0.7323,-0.6374,-0.5047,-0.429,-0.3913,-0.3913,-0.3913,-0.3913,-0.3913,-0.3913,-0.3913,-0.3894,-0.3175,-0.2607,-0.2188,-0.079,0.0,0.0,0.0,0.0,0.0,0.0,0.0,0.0,0.0,0.0,0.0,0.0,0.0,0.0,-0.0357,-0.0368,-0.0393,-0.1329,-0.2223,-0.2857,-0.2913,-0.3036,-0.3346,-0.3146,-0.2985,-0.2985,-0.2985,-0.2985,-0.2985,-0.2985,-0.2985,-0.2985,-0.2985,-0.3024,-0.3391,-0.3008,-0.2636,-0.2456,-0.2413,-0.2413,-0.2413,-0.2591,-0.3207,-0.389,-0.3821,-0.3553,-0.3539,-0.344,-0.3157,-0.2198,-0.187,-0.1682,-0.141,-0.1123,-0.0967,-0.1086,-0.1097,-0.1091,-0.1097,-0.1086,-0.074,0.0222,0.067,0.0687,-1.741,-1.7316,-1.7287,-1.72,-1.7084,-1.7072,-1.6337,-1.5093,-1.5093,-1.4685,-1.4003,-1.3994,-1.358,-1.2885,-1.2583,-1.2329,-1.2083,-1.1228,-1.0798,-1.066,-0.9477,-0.8921,-0.886,-0.8222,-0.7906,-0.7906,-0.7906,-0.7906,-0.7906,-0.7906,-0.7906,-0.7906,-0.7906,-0.7906,-0.7884,0.0,0.0,0.0,-0.4521,-0.3913,-0.3913,-0.3913,-0.3913,-0.3913,-0.3913,0.0,-0.3891,-0.3743,-0.3535,-0.3242,-0.1194,0.0,0.0,0.0,0.0,0.0,0.0,0.0,0.0,0.0,0.0,0.0,-0.2046,-0.2303,-0.2196,-0.2279,-0.2371,-0.2431,-0.2652,-0.2835,-0.2969,-0.2976,-0.363,-0.5166,-0.3989,-0.2985,-0.2985,-0.3012,-0.2985,-0.2985,-0.2996,-0.3012,-0.3085,-0.2985,-0.3635,-0.4956,-0.3849,-0.2701,-0.2432,-0.2413,-0.2413,-0.2482,-0.3466,-0.4284,-0.4434,-0.4219,-0.4004,-0.3859,-0.3619,-0.3359,-0.2947,-0.2153,-0.1568,-0.1302,-0.1128,-0.1073,-0.1097,-0.1097,-0.1097,-0.1097,-0.1097,-0.0794,0.02,0.0463,0.0407,-1.7489,0.0,-1.7486,-1.7486,0.0,-1.7486,-1.7072,-1.6354,-1.5989,-1.5425,-1.4735,-1.436,-1.39,-1.3368,-1.2796,-1.2447,-1.2231,-1.1637,-1.1373,-1.1282,-1.0288,-0.9689,-0.9377,-0.8694,-0.8222,-0.7914,-0.7906,-0.7906,-0.7906,-0.7906,-0.7906,-0.7906,-0.7906,-0.7906,-0.7906,-0.7906,-0.7391,-0.6401,-0.476,-0.4051,-0.4361,-0.4073,-0.3913,-0.3913,0.0,0.0,0.0,0.0,0.0,0.0,0.0,0.0,0.0,0.0,0.0,0.0,0.0,-0.0491,-0.1564,-0.169,-0.192,-0.249,-0.2794,-0.2871,-0.2718,-0.2824,-0.2932,-0.2985,-0.2985,-0.2985,-0.3024,-0.3874,-0.488,-0.5806,-0.5093,-0.4491,-0.4491,-0.4491,-0.4478,-0.4473,-0.4478,-0.4485,-0.4473,-0.448,-0.4857,-0.5703,-0.4102,-0.2656,-0.2447,-0.2413,-0.2628,-0.3439,-0.4182,-0.4745,-0.4674,-0.4574,-0.438,-0.4086,-0.3741,-0.3453,-0.3229,-0.2459,-0.171,-0.128,-0.1128,-0.1097,-0.1097,-0.1097,-0.1097,-0.1091,-0.1046,-0.087,-0.0306,0.0128,0.0538,-1.7517,-1.7482,-1.7486,-1.7486,-1.7486,-1.7486,-1.7486,-1.7465,0.0,0.0,0.0,-1.4827,-1.4294,-1.3818,-1.2995,-1.2457,-1.2179,-1.1912,-1.1816,-1.176,-1.1121,-1.0479,-0.986,-0.9212,-0.8559,-0.7921,-0.7906,-0.7906,-0.7906,-0.7906,-0.7906,-0.7906,-0.7906,-0.7906,-0.7906,-0.7906,-0.7629,-0.7041,-0.5451,-0.4768,-0.5052,-0.454,-0.4248,-0.4252,-0.4178,-0.4118,-0.4073,-0.3969,-0.3843,-0.3708,-0.3632,-0.3533,-0.3363,-0.1619,-0.0605,-0.0597,-0.0604,-0.1427,-0.3251,-0.3386,-0.3336,-0.3207,-0.3225,-0.31,-0.2748,-0.2805,-0.3071,-0.3493,-0.3532,-0.3544,-0.3538,-0.4975,-0.6018,-0.6018,-0.6018,-0.5986,-0.5986,-0.6018,-0.5906,-0.6018,-0.5906,-0.6007,-0.5926,-0.5906,-0.6018,-0.5788,-0.4489,-0.3107,-0.2891,-0.2937,-0.3363,-0.4429,-0.472,-0.4783,-0.4734,-0.4664,-0.4554,-0.4176,-0.3762,-0.3442,-0.3165,-0.2653,-0.2037,-0.1526,-0.1247,-0.1143,-0.1176,-0.1151,-0.1105,-0.1097,-0.1008,-0.0927,-0.0862,-0.0344,0.0386,-1.7559,-1.7489,-1.7489,-1.7477,-1.7486,-1.7486,-1.7486,-1.7486,-1.7399,-1.6888,-1.6159,-1.5994,-1.5098,-1.3706,-1.3352,-1.28,-1.2101,-1.1891,-1.1816,0.0,-1.1121,-1.0479,-0.9884,-0.9212,-0.8552,-0.7929,-0.7906,-0.7906,-0.7906,-0.7906,-0.7906,-0.7906,-0.7906,-0.7906,-0.7906,-0.7906,-0.7847,-0.7749,-0.748,-0.6823,-0.5799,-0.567,-0.5615,-0.56,-0.5271,-0.5,-0.4753,-0.421,-0.3828,-0.3713,-0.3638,-0.3536,-0.3398,-0.3073,-0.2917,-0.2917,-0.2917,-0.3069,-0.3368,-0.3386,-0.3357,-0.3266,-0.3819,-0.3782,-0.2819,-0.2785,-0.3578,-0.5318,-0.5474,-0.5574,-0.5608,-0.5814,-0.6018,-0.6018,-0.6018,-0.6018,-0.6018,-0.6018,-0.6018,-0.6018,-0.6018,-0.6018,-0.6018,-0.6018,-0.6018,-0.5929,-0.5228,-0.4846,-0.4426,-0.4456,-0.4548,-0.4739,-0.4793,-0.4714,-0.4574,-0.4382,-0.4179,-0.3973,-0.371,-0.3432,-0.3262,-0.2934,-0.2599,-0.2336,-0.1688,-0.1321,-0.1465,-0.1295,-0.1166,-0.1129,-0.1062,-0.1062,-0.1057,-0.0874,-0.0474,-1.7536,-1.75,-1.7489,-1.7482,-1.7486,-1.7486,-1.7479,-1.7443,-1.7419,-1.7185,-1.6804,-1.6289,-1.5353,-1.4167,-1.3488,-1.2759,-1.2033,-1.1869,-1.1816,-1.1775,-1.1491,-1.0832,-0.9935,-0.9569,-0.8904,-0.7944,-0.7906,-0.7906,-0.7906,-0.7906,-0.7906,-0.7906,-0.7906,-0.7906,-0.7906,-0.7906,-0.7906,-0.7906,-0.7906,-0.7436,-0.6482,-0.6795,-0.6646,-0.5922,-0.5511,-0.5181,-0.4901,-0.4254,-0.3861,-0.3762,-0.3654,-0.354,-0.3411,-0.3386,-0.3386,-0.3386,-0.3386,-0.3386,-0.3386,-0.3386,-0.3361,-0.3344,-0.3882,-0.449,-0.4961,-0.4195,-0.4409,-0.5969,-0.607,-0.6018,-0.6018,-0.6018,-0.6018,-0.6018,-0.6018,-0.6018,-0.6018,-0.6018,-0.6018,-0.6018,-0.6018,-0.6018,-0.6018,-0.6018,-0.6018,-0.5954,-0.5528,-0.503,-0.4833,-0.4793,-0.4793,-0.4793,-0.4783,-0.4673,-0.4403,-0.4035,-0.3804,-0.3678,-0.3584,-0.3464,-0.3362,-0.3234,-0.3117,-0.2886,-0.2187,-0.1782,-0.1857,-0.1756,-0.1511,-0.1133,-0.1097,-0.1097,-0.1097,-0.1097,-0.0707,-1.7662,-1.7484,-1.7493,-1.7486,-1.7486,-1.7486,-1.7455,-1.7371,-1.7281,-1.7191,-1.7048,-1.6374,-1.5495,-1.4487,-1.3675,-1.2817,-1.2041,-1.1859,-1.1816,-1.1816,-1.1816,-1.1176,-1.0183,-0.9974,-0.927,-0.8214,-0.7974,-0.7906,-0.7906,-0.7906,-0.7906,-0.7906,-0.7906,-0.7906,-0.7906,-0.7906,-0.7906,-0.7906,-0.7906,-0.7652,-0.7173,-0.7637,-0.7384,-0.6422,-0.6056,-0.5636,-0.5132,-0.4347,-0.3869,-0.3805,-0.3697,-0.3576,-0.3445,-0.3416,-0.3386,-0.3386,-0.3386,-0.3386,-0.3403,-0.3663,-0.3685,-0.3442,-0.4098,-0.5196,-0.6545,-0.579,-0.5414,-0.6254,-0.6278,-0.6117,-0.6027,-0.6018,-0.6018,-0.6018,-0.6018,-0.6018,-0.6018,-0.6018,-0.6018,-0.6018,-0.6018,-0.6018,-0.6018,-0.6018,-0.5973,-0.5799,-0.5262,-0.4823,-0.4793,-0.4793,-0.4793,-0.4793,-0.4793,-0.4664,-0.4301,-0.397,-0.371,-0.3594,-0.3541,-0.3506,-0.3485,-0.3495,-0.3421,-0.317,-0.2697,-0.2263,-0.2167,-0.2098,-0.1871,-0.1474,-0.1258,-0.1097,-0.1097,-0.1068,-0.0919,-1.8123,-1.7534,-1.75,-1.7477,-1.7486,-1.7486,-1.7431,-1.7293,-1.7113,-1.6895,-1.6657,-1.657,-1.5694,-1.4412,-1.3995,-1.3163,-1.1957,-1.1837,-1.1816,-1.1816,-1.1816,-1.1405,-1.0688,-1.0174,-0.9524,-0.8777,-0.8222,-0.7944,-0.7906,-0.7906,-0.7906,-0.7906,-0.7906,-0.7906,-0.7906,-0.7906,-0.7906,-0.7906,-0.7906,-0.7876,-0.7824,-0.7869,-0.7832,-0.7749,-0.7681,-0.7083,-0.5799,-0.4587,-0.3877,-0.3799,-0.378,-0.3689,-0.3517,-0.3424,-0.3386,-0.3386,-0.3386,-0.3386,-0.3464,-0.442,-0.4517,-0.3664,-0.491,-0.6049,-0.6794,-0.6748,-0.6693,-0.6752,-0.6621,-0.6339,-0.6063,-0.6018,-0.6018,-0.6018,-0.6018,-0.6018,-0.6018,-0.6018,-0.6018,-0.6018,-0.6018,-0.6018,-0.6018,-0.6018,-0.5891,-0.5672,-0.5195,-0.4823,-0.4823,-0.4802,-0.4793,-0.4793,-0.4793,-0.4704,-0.4485,-0.4291,-0.4066,-0.39,-0.3647,-0.3538,-0.3506,-0.3495,-0.3453,-0.3272,-0.3152,-0.2847,-0.2386,-0.2206,-0.208,-0.1869,-0.1511,-0.1122,-0.1087,-0.1019,-0.0983,-1.8402,-1.8123,-1.7671,-1.7498,-1.7486,-1.7486,-1.7391,-1.722,-1.6987,-1.6725,-1.6463,-1.6315,-1.545,-1.413,-1.3958,-1.3133,-1.1882,-1.1816,-1.1816,-1.1816,-1.1816,-1.145,-1.0812,-1.0568,-0.9905,-0.8965,-0.8604,-0.8267,-0.7966,-0.7906,-0.7906,-0.7906,-0.7906,-0.7906,-0.7906,-0.7906,-0.7906,-0.7906,-0.7906,-0.7906,-0.7906,-0.7906,-0.7906,-0.7906,-0.7906,-0.7271,-0.5942,-0.4606,-0.3873,-0.3851,-0.3786,-0.3725,-0.3682,-0.354,-0.3445,-0.3403,-0.3386,-0.3386,-0.3412,-0.3868,-0.452,-0.5378,-0.5637,-0.607,-0.6807,-0.6833,-0.6689,-0.6406,-0.6274,-0.6159,-0.6036,-0.6018,-0.6018,-0.6018,-0.6018,-0.6018,-0.6018,-0.6018,-0.6018,-0.6018,-0.6018,-0.6018,-0.6018,-0.6018,-0.592,-0.567,-0.5272,-0.501,-0.4981,-0.4882,-0.4793,-0.4793,-0.4793,-0.4773,-0.4684,-0.4634,-0.4423,-0.4107,-0.3741,-0.3506,-0.3506,-0.3506,-0.3474,-0.3362,-0.3817,-0.368,-0.2842,-0.2384,-0.2096,-0.201,-0.1885,-0.1519,-0.151,-0.1185,-0.1112,-1.8709,-1.8464,-1.7797,-1.7486,-1.7486,-1.7486,-1.7371,-1.7104,-1.6857,-1.6596,-1.633,-1.6052,-1.5305,-1.4293,-1.3938,-1.3077,-1.191,-1.1816,-1.1816,-1.1816,-1.1816,-1.155,-1.1091,-1.0857,-1.0314,-0.9503,-0.9055,-0.8552,-0.7981,-0.7906,-0.7906,-0.7906,-0.7906,-0.7906,-0.7906,-0.7906,-0.7906,-0.7906,-0.7906,-0.7906,-0.7906,-0.7885,-0.7885,-0.7906,-0.7906,-0.7353,-0.6228,-0.5041,-0.4416,-0.4395,-0.4277,-0.4076,-0.3811,-0.3626,-0.3491,-0.3494,-0.4029,-0.4064,-0.3494,-0.3989,-0.5077,-0.6611,-0.6284,-0.6202,-0.6665,-0.6782,-0.6522,-0.6099,-0.6018,-0.6027,-0.6018,-0.6018,-0.6018,-0.6018,-0.6018,-0.6018,-0.6018,-0.6018,-0.6018,-0.6018,-0.6018,-0.6018,-0.6018,-0.6009,-0.5945,-0.5837,-0.5566,-0.53,-0.5195,-0.5,-0.4793,-0.4793,-0.4793,-0.4783,-0.4793,-0.4764,-0.4623,-0.4248,-0.3811,-0.3506,-0.3506,-0.3506,-0.3506,-0.3564,-0.4602,-0.465,-0.3365,-0.2658,-0.2265,-0.2173,-0.2044,-0.1869,-0.1734,-0.1394,-0.1229,-1.9151,-1.8439,-1.7773,-1.7474,-1.7486,-1.7474,-1.7297,-1.6996,-1.6727,-1.6465,-1.6208,-1.5912,-1.5409,-1.4704,-1.4079,-1.3077,-1.195,-1.1831,-1.1816,-1.1816,-1.1816,-1.1775,-1.1715,-1.1121,-1.0768,-1.0464,-0.9533,-0.8657,-0.7996,-0.7906,-0.7906,-0.7906,-0.7906,-0.7906,-0.7906,-0.7906,-0.7906,-0.7906,-0.7906,-0.7906,-0.7899,-0.7841,-0.7841,-0.7878,-0.7906,-0.7541,-0.6834,-0.612,-0.5665,-0.5598,-0.5454,-0.4964,-0.3971,-0.3759,-0.3691,-0.3738,-0.5489,-0.5712,-0.4148,-0.5339,-0.6632,-0.6847,-0.6791,-0.6734,-0.6587,-0.674,-0.6591,-0.6043,-0.6018,-0.6018,-0.6018,-0.6018,-0.6018,-0.6018,-0.6018,-0.6018,-0.6018,-0.6018,-0.6018,-0.6133,-0.6101,-0.6011,-0.6009,-0.6018,-0.5973,-0.5945,-0.5916,-0.578,-0.5416,-0.5059,-0.4833,-0.4793,-0.4793,-0.4793,-0.4793,-0.4793,-0.4613,-0.4238,-0.3845,-0.3517,-0.3506,-0.3506,-0.3506,-0.369,-0.4429,-0.4428,-0.3579,-0.303,-0.2724,-0.2512,-0.2294,-0.2125,-0.1847,-0.1814,-0.1665,-1.9353,-1.8202,-1.7481,-1.7187,-1.7171,-1.7171,-1.7018,-1.6799,-1.657,-1.6342,-1.6123,-1.5899,-1.5425,-1.4752,-1.4096,-1.3301,-1.2445,-1.1999,-1.1816,-1.1816,-1.1816,-1.1816,-1.1775,-1.1536,-1.1196,-1.0768,-1.0314,-0.9563,-0.8574,-0.8132,-0.7906,-0.7906,-0.7906,-0.7906,-0.7906,-0.7906,-0.7906,-0.7906,-0.7906,-0.7906,-0.7899,-0.7834,-0.7775,-0.7724,-0.7849,-0.7557,-0.6855,-0.6871,-0.6518,-0.5691,-0.5538,-0.5279,-0.4936,-0.5404,-0.5687,-0.5719,-0.6435,-0.6519,-0.5811,-0.5726,-0.6146,-0.6829,-0.6782,-0.6557,-0.6357,-0.6488,-0.6496,-0.6115,-0.6018,-0.6018,-0.6018,-0.6018,-0.6018,-0.6018,-0.6018,-0.6018,-0.6018,-0.6041,-0.6477,-0.7428,-0.6945,-0.5984,-0.5854,-0.5752,-0.568,-0.568,-0.5689,-0.5548,-0.5301,-0.4981,-0.4793,-0.4793,-0.4793,-0.4793,-0.4793,-0.4793,-0.4644,-0.423,-0.3856,-0.3615,-0.3527,-0.3517,-0.3506,-0.3506,-0.4168,-0.4157,-0.3362,-0.3245,-0.2966,-0.2686,-0.2479,-0.2245,-0.1902,-0.1825,-0.1803,-1.9269,-1.7976,-1.7399,-1.7075,-1.6895,-1.6866,-1.676,-1.6594,-1.6407,-1.6232,-1.6067,-1.5885,-1.5544,-1.5065,-1.4423,-1.375,-1.3074,-1.2224,-1.1816,-1.1816,-1.1816,-1.1816,-1.1816,-1.1816,-1.1565,-1.1091,-1.0648,-0.9911,-0.8902,-0.8184,-0.7885,-0.7885,-0.7863,-0.7878,-0.7892,-0.787,-0.7885,-0.787,-0.787,-0.7885,-0.7856,-0.7768,-0.7702,-0.7583,-0.765,-0.7482,-0.7017,-0.7278,-0.7054,-0.6227,-0.5996,-0.5943,-0.5956,-0.6521,-0.6894,-0.6894,-0.6894,-0.6894,-0.6829,-0.6187,-0.6093,-0.6794,-0.6698,-0.6422,-0.609,-0.626,-0.6233,-0.6072,-0.6018,-0.6018,-0.6018,-0.6018,-0.6018,-0.6018,-0.6018,-0.6018,-0.6064,-0.6637,-0.7623,-0.8393,-0.7199,-0.6089,-0.5717,-0.5492,-0.5349,-0.5282,-0.5262,-0.5175,-0.502,-0.4892,-0.4793,-0.4793,-0.4793,-0.4793,-0.4793,-0.4793,-0.4714,-0.4352,-0.4104,-0.3835,-0.3594,-0.3569,-0.3506,-0.3506,-0.3506,-0.3506,-0.3453,-0.3357,-0.3133,-0.2826,-0.2659,-0.2464,-0.2132,-0.1814,-0.1803,-1.8885,-1.7735,-1.7594,-1.7166,-1.6644,-1.661,-1.6517,-1.6382,-1.6244,-1.6136,-1.5997,-1.587,-1.5769,-1.5619,-1.499,-1.4378,-1.3573,-1.2448,-1.1861,-1.1805,-1.1816,-1.1816,-1.1816,-1.1816,-1.179,-1.164,-1.0459,-0.9567,-0.8954,-0.8287,-0.7909,-0.7857,-0.782,-0.7849,-0.7906,-0.7849,-0.7797,-0.7798,-0.7783,-0.779,-0.779,-0.7657,-0.7537,-0.7483,-0.7396,-0.7343,-0.7342,-0.7312,-0.7183,-0.7049,-0.7007,-0.7001,-0.6795,-0.686,-0.6894,-0.6894,-0.6894,-0.6894,-0.6894,-0.6821,-0.6724,-0.6874,-0.6723,-0.643,-0.6099,-0.6043,-0.6043,-0.6007,-0.6018,-0.6018,-0.6018,-0.6018,-0.6018,-0.6018,-0.6018,-0.6018,-0.6341,-0.7806,-0.9058,-0.8851,-0.7462,-0.6021,-0.5578,-0.531,-0.5117,-0.499,-0.4911,-0.4892,-0.4853,-0.4812,-0.4793,-0.4793,-0.4793,-0.4793,-0.4793,-0.4774,-0.4674,-0.4534,-0.4362,-0.4145,-0.3866,-0.3741,-0.3548,-0.3506,-0.3432,-0.3421,-0.3404,-0.3298,-0.3138,-0.2886,-0.2789,-0.2605,-0.2241,-0.1913,-0.1814,-1.8842,-1.7989,-1.7495,-1.6936,-1.6363,-1.6316,-1.6262,-1.6193,-1.6094,-1.6011,-1.5927,-1.5842,-1.5814,-1.5664,-1.5109,-1.4438,-1.3765,-1.2882,-1.225,-1.1891,-1.1816,-1.1816,-1.1816,-1.1816,-1.1816,-1.1655,-1.0877,-1.0269,-0.9815,-0.8911,-0.8367,-0.8254,-0.7945,-0.7841,-0.7892,-0.7819,-0.7753,-0.7687,-0.7665,-0.7627,-0.7522,-0.7438,-0.7345,-0.7256,-0.7262,-0.7222,-0.7058,-0.7018,-0.7039,-0.7093,-0.705,-0.6992,-0.6916,-0.6894,-0.6894,-0.6894,-0.6894,-0.6894,-0.6894,-0.6894,-0.6894,-0.6866,-0.6706,-0.6422,-0.6081,-0.6018,-0.6018,-0.6018,-0.6018,-0.6018,-0.6018,-0.6018,-0.6052,-0.6029,-0.6018,-0.6052,-0.6385,-0.7864,-0.8909,-0.9046,-0.8507,-0.7497,-0.6118,-0.5457,-0.5313,-0.5144,-0.4977,-0.4822,-0.4848,-0.4976,-0.4793,-0.4793,-0.4793,-0.4875,-0.4793,-0.4764,-0.4674,-0.4554,-0.4413,-0.4268,-0.4024,-0.3772,-0.359,-0.3486,-0.3404,-0.3355,-0.3338,-0.3255,-0.31,-0.2939,-0.2789,-0.2524,-0.2208,-0.2044,-0.1971,-1.8993,-1.8324,-1.7653,-1.7,-1.6376,-1.6162,-1.6041,-1.5983,-1.5941,-1.5913,-1.5842,-1.5813,-1.5814,-1.5709,-1.5335,-1.4796,-1.4139,-1.3478,-1.2819,-1.2179,-1.1865,-1.1816,-1.1816,-1.1816,-1.1816,-1.1674,-1.1039,-1.0631,-1.0405,-0.9271,-0.8562,-0.8384,-0.7977,-0.7783,-0.7834,-0.7761,-0.7665,-0.7568,-0.7514,-0.7452,-0.7351,-0.7266,-0.7185,-0.7112,-0.7158,-0.7093,-0.6916,-0.6894,-0.6932,-0.6995,-0.6984,-0.6946,-0.6894,-0.6894,-0.6894,-0.6894,-0.6894,-0.6894,-0.6894,-0.6894,-0.6894,-0.6874,-0.6774,-0.6578,-0.6286,-0.6126,-0.6018,-0.6018,-0.6018,-0.6018,-0.6018,-0.6018,-0.6305,-0.7118,-0.6432,-0.6431,-0.705,-0.8266,-0.9002,-0.9081,-0.9012,-0.8342,-0.7382,-0.6826,-0.6481,-0.6271,-0.5474,-0.5288,-0.5458,-0.5732,-0.565,-0.565,-0.5872,-0.5616,-0.4903,-0.4744,-0.4684,-0.4544,-0.4403,-0.423,-0.4024,-0.372,-0.3485,-0.3496,-0.3438,-0.3428,-0.3411,-0.3299,-0.3164,-0.2982,-0.2918,-0.2594,-0.2376,-0.225,-0.2173,-1.9318,-1.8657,-1.7968,-1.7296,-1.6622,-1.6068,-1.5842,-1.5813,-1.5813,-1.5813,-1.5799,-1.5814,-1.5814,-1.5814,-1.5709,-1.5334,-1.4737,-1.4006,-1.3331,-1.2673,-1.2145,-1.1816,-1.1816,-1.1816,-1.1816,-1.1689,-1.1122,-1.0712,-1.0477,-0.937,-0.8564,-0.8546,-0.804,-0.7707,-0.7796,-0.7686,-0.753,-0.7453,-0.7345,-0.7294,-0.7252,-0.7166,-0.7088,-0.7082,-0.7023,-0.6974,-0.6903,-0.6878,-0.6886,-0.6894,-0.6916,-0.6908,-0.6894,-0.6894,-0.6894,-0.6894,-0.6894,-0.6894,-0.6894,-0.6874,-0.6883,-0.6886,-0.6883,-0.6816,-0.6526,-0.6269,-0.6174,-0.628,-0.6396,-0.6396,-0.6408,-0.6442,-0.7232,-0.8439,-0.7497,-0.7336,-0.8725,-0.9046,-0.9081,-0.9092,-0.9092,-0.9035,-0.8779,-0.8752,-0.8507,-0.7826,-0.6435,-0.6168,-0.6532,-0.6776,-0.7059,-0.6995,-0.6721,-0.641,-0.5732,-0.5656,-0.5569,-0.5159,-0.4822,-0.4362,-0.4052,-0.3706,-0.3432,-0.3429,-0.3596,-0.3561,-0.3573,-0.3572,-0.3578,-0.3585,-0.3333,-0.2872,-0.2666,-0.2623,-0.2566,-1.9318,-1.8642,-1.7983,-1.7324,-1.6667,-1.6069,-1.5814,-1.5814,-1.5814,-1.5814,-1.5814,-1.5814,-1.5814,-1.5814,-1.5799,-1.5439,-1.4811,-1.4109,-1.3436,-1.2774,-1.2104,-1.1831,-1.1816,-1.1816,-1.1816,-1.1749,-1.1467,-1.1216,-1.0878,-1.0063,-0.9567,-0.9331,-0.8383,-0.7988,-0.8048,-0.7611,-0.7328,-0.7219,-0.7182,-0.711,-0.7023,-0.699,-0.6944,-0.6949,-0.6927,-0.6911,-0.6894,-0.6849,-0.6858,-0.6894,-0.6894,-0.6894,-0.6894,-0.6894,-0.6894,-0.6894,-0.6894,-0.6894,-0.6878,-0.6824,-0.682,-0.6891,-0.6883,-0.6782,-0.6538,-0.6486,-0.6672,-0.7143,-0.7761,-0.8196,-0.8231,-0.8185,-0.8612,-0.8876,-0.8428,-0.8346,-0.8897,-0.9092,-0.9092,-0.9092,-0.9092,-0.9092,-0.9092,-0.9065,-0.8872,-0.8196,-0.7342,-0.6601,-0.7055,-0.7196,-0.7196,-0.7196,-0.7031,-0.6922,-0.6748,-0.6675,-0.6431,-0.5963,-0.5384,-0.462,-0.4188,-0.3705,-0.3458,-0.3299,-0.3817,-0.3943,-0.4082,-0.416,-0.4178,-0.4126,-0.3721,-0.3288,-0.3254,-0.3208,-0.3129,-1.9465,-1.9031,-1.8087,-1.7473,-1.701,-1.6173,-1.5814,-1.5814,-1.5814,-1.5814,-1.5814,-1.5814,-1.5814,-1.5814,-1.5814,-1.5589,-1.5125,-1.4229,-1.36,-1.3148,-1.2254,-1.1846,-1.1816,-1.1816,-1.1816,-1.1794,-1.1659,-1.1412,-1.1028,-1.0456,-1.0029,-0.9522,-0.8596,-0.8104,-0.8111,-0.7552,-0.7185,-0.7104,-0.7082,-0.7017,-0.6908,-0.6894,-0.6894,-0.6894,-0.6894,-0.6894,-0.6886,-0.6849,-0.6824,-0.6866,-0.6883,-0.6894,-0.6894,-0.6894,-0.6894,-0.6894,-0.6894,-0.6894,-0.6878,-0.6833,-0.6782,-0.6782,-0.6787,-0.6898,-0.6886,-0.6708,-0.6656,-0.7583,-0.8547,-0.9002,-0.9092,-0.9092,-0.9092,-0.9081,-0.9092,-0.9092,-0.9092,-0.9092,-0.9092,-0.9092,-0.9092,-0.9092,-0.9092,-0.9092,-0.8792,-0.8276,-0.7603,-0.7237,-0.7196,-0.7196,-0.7196,-0.7196,-0.7196,-0.7086,-0.7031,-0.6967,-0.6629,-0.6224,-0.5642,-0.4907,-0.4528,-0.4008,-0.4018,-0.3998,-0.421,-0.435,-0.4451,-0.4548,-0.4536,-0.4366,-0.4021,-0.3839,-0.3783,-0.3799,-0.3724,-1.9723,-1.9588,-1.8252,-1.7699,-1.7474,-1.6368,-1.5814,-1.5814,-1.5814,-1.5814,-1.5814,-1.5814,-1.5814,-1.5814,-1.5814,-1.5799,-1.5664,-1.4378,-1.372,-1.3109,-1.2336,-1.1794,-1.1794,-1.1794,-1.1816,-1.1768,-1.1659,-1.1415,-1.1053,-1.0482,-1.007,-0.9669,-0.8742,-0.8283,-0.8253,-0.7626,-0.722,-0.7183,-0.7061,-0.6975,-0.6899,-0.6878,-0.6883,-0.6883,-0.6883,-0.6886,-0.6883,-0.6824,-0.6782,-0.6807,-0.6858,-0.6866,-0.6874,-0.6883,-0.6894,-0.6894,-0.6894,-0.6894,-0.6878,-0.6858,-0.674,-0.6582,-0.6645,-0.7047,-0.7541,-0.7202,-0.7039,-0.7664,-0.8585,-0.9014,-0.9092,-0.9092,-0.9092,-0.9092,-0.9092,-0.9092,-0.9092,-0.9092,-0.9092,-0.9092,-0.9092,-0.9092,-0.9092,-0.9051,-0.8878,-0.8432,-0.7821,-0.7495,-0.7324,-0.7255,-0.7225,-0.7196,-0.7196,-0.7196,-0.7178,-0.7168,-0.6734,-0.6283,-0.5689,-0.513,-0.4985,-0.4726,-0.4848,-0.49,-0.4792,-0.4709,-0.4675,-0.4742,-0.4754,-0.4705,-0.4421,-0.4306,-0.4265,-0.4346,-0.433,-1.9723,-1.9603,-1.8268,-1.7699,-1.7489,-1.6368,-1.5814,-1.5814,-1.5814,-1.5814,-1.5814,-1.5814,-1.5814,-1.5814,-1.5814,-1.5814,-1.5634,-1.4408,-1.3316,-1.2198,-1.1959,-1.1725,-1.1725,-1.1747,-1.1779,-1.1747,-1.1659,-1.1415,-1.1084,-1.0805,-1.0539,-1.0082,-0.9463,-0.9171,-0.9007,-0.8059,-0.7568,-0.7489,-0.7166,-0.6929,-0.6891,-0.6841,-0.6824,-0.6824,-0.6833,-0.6858,-0.6874,-0.6782,-0.674,-0.6774,-0.6765,-0.6757,-0.6774,-0.6858,-0.6894,-0.6894,-0.6894,-0.6894,-0.6892,-0.6817,-0.65,-0.6296,-0.697,-0.7737,-0.8547,-0.847,-0.806,-0.8062,-0.851,-0.9019,-0.9092,-0.9092,-0.9092,-0.9092,-0.9092,-0.9092,-0.9092,-0.9092,-0.9092,-0.9092,-0.9092,-0.9092,-0.9092,-0.9092,-0.8875,-0.8502,-0.8134,-0.771,-0.7495,-0.7359,-0.7255,-0.7196,-0.7196,-0.7196,-0.7166,-0.7131,-0.6801,-0.6368,-0.5811,-0.5221,-0.5093,-0.503,-0.4982,-0.5078,-0.5201,-0.5084,-0.4828,-0.4796,-0.4778,-0.479,-0.4796,-0.4651,-0.4584,-0.4754,-0.479,-1.9723,-1.9555,-1.8252,-1.7699,-1.7489,-1.6368,-1.5814,-1.5814,-1.5814,-1.5814,-1.5814,-1.5814,-1.5814,-1.5814,-1.5814,-1.5814,-1.5485,-1.4421,-1.3092,-1.2078,-1.1736,-1.1659,-1.156,-1.1593,-1.1641,-1.1659,-1.1575,-1.1339,-1.1085,-1.0887,-1.0619,-1.0285,-0.9776,-0.9457,-0.9328,-0.8351,-0.7744,-0.7575,-0.7157,-0.6866,-0.6878,-0.6807,-0.6748,-0.6757,-0.6782,-0.6807,-0.6799,-0.6732,-0.6715,-0.6732,-0.6727,-0.671,-0.6736,-0.6837,-0.6899,-0.6894,-0.6894,-0.6894,-0.6897,-0.7355,-0.7294,-0.6142,-0.727,-0.8111,-0.865,-0.8836,-0.8754,-0.8466,-0.8644,-0.8916,-0.9065,-0.9092,-0.9092,-0.9092,-0.9092,-0.9092,-0.9092,-0.9092,-0.9092,-0.9092,-0.9092,-0.9092,-0.9092,-0.9038,-0.9012,-0.8712,-0.8723,-0.8305,-0.7768,-0.7588,-0.7285,-0.7196,-0.7196,-0.7181,-0.7151,-0.7041,-0.6839,-0.6444,-0.6013,-0.5404,-0.4982,-0.495,-0.4918,-0.5062,-0.5173,-0.5014,-0.4806,-0.4812,-0.4796,-0.4796,-0.4796,-0.4796,-0.4796,-0.4796,-0.4796,-1.9723,-1.957,-1.8268,-1.7699,-1.7504,-1.6353,-1.5814,-1.5814,-1.5814,-1.5814,-1.5814,-1.5814,-1.5784,-1.577,-1.577,-1.571,-1.5127,-1.4382,-1.3029,-1.187,-1.1663,-1.1549,-1.1426,-1.1384,-1.1373,-1.1471,-1.1384,-1.1167,-1.0956,-1.0765,-1.056,-1.0246,-0.9882,-0.9687,-0.9361,-0.8607,-0.8083,-0.8047,-0.7549,-0.7014,-0.6997,-0.6941,-0.7058,-0.6969,-0.7119,-0.7231,-0.7238,-0.715,-0.7011,-0.694,-0.6782,-0.6719,-0.6757,-0.6824,-0.6874,-0.6866,-0.6866,-0.7253,-0.7803,-0.8285,-0.8123,-0.6524,-0.7655,-0.8464,-0.8617,-0.8645,-0.8698,-0.8739,-0.8781,-0.8659,-0.8958,-0.9079,-0.9092,-0.9092,-0.9092,-0.9092,-0.9092,-0.9092,-0.9092,-0.9092,-0.9092,-0.9079,-0.8969,-0.8886,-0.893,-0.8958,-0.8944,-0.8778,-0.8176,-0.7729,-0.7368,-0.7196,-0.7196,-0.7196,-0.7166,-0.7005,-0.6803,-0.6605,-0.6207,-0.5686,-0.5103,-0.503,-0.5062,-0.5014,-0.502,-0.4886,-0.4806,-0.4796,-0.4796,-0.4796,-0.4796,-0.4796,-0.4796,-0.4796,-0.4796,-1.9723,-1.9603,-1.8268,-1.7699,-1.7504,-1.6338,-1.5814,-1.5814,-1.5814,-1.5814,-1.5814,-1.5814,-1.5741,-1.5668,-1.5639,-1.5061,-1.4281,-1.3664,-1.2913,-1.1817,-1.1526,-1.1373,-1.1259,-1.112,-1.105,-1.1038,-1.1015,-1.092,-1.0803,-1.0644,-1.0461,-1.0236,-1.0108,-1.0017,-0.9799,-0.9352,-0.8887,-0.8722,-0.8249,-0.7634,-0.7227,-0.763,-0.7849,-0.7615,-0.7756,-0.8042,-0.827,-0.8161,-0.8067,-0.8019,-0.7148,-0.6842,-0.695,-0.7005,-0.701,-0.6982,-0.7095,-0.7794,-0.9001,-0.885,-0.8637,-0.8281,-0.8445,-0.8571,-0.8603,-0.8603,-0.8659,-0.8614,-0.8516,-0.8404,-0.8642,-0.8944,-0.9079,-0.9092,-0.9276,-0.931,-0.9287,-0.915,-0.9088,-0.9026,-0.904,-0.8971,-0.8764,-0.8516,-0.8351,-0.8322,-0.8308,-0.8219,-0.7846,-0.7515,-0.7279,-0.7196,-0.7196,-0.7196,-0.7196,-0.699,-0.6788,-0.6712,-0.6407,-0.6075,-0.5592,-0.5325,-0.5214,-0.5046,-0.494,-0.4844,-0.4796,-0.4796,-0.4796,-0.4796,-0.4796,-0.4796,-0.4796,-0.4796,-0.4796,-1.9723,-1.9558,-1.8252,-1.7699,-1.7474,-1.6338,-1.5814,-1.5814,-1.5814,-1.5814,-1.5814,-1.5784,-1.5711,-1.5595,-1.5477,-1.4775,-1.3895,-1.3335,-1.2677,-1.1827,-1.1383,-1.1108,-1.1003,-1.0849,-1.0681,-1.0583,-1.0559,-1.0632,-1.0632,-1.0497,-1.0349,-1.0237,-1.0173,-1.0122,-0.9982,-0.9533,-0.9367,-0.9176,-0.8695,-0.8152,-0.7716,-0.8591,-0.8762,-0.846,-0.8295,-0.8493,-0.8696,-0.8504,-0.8314,-0.8213,-0.7804,-0.7604,-0.7687,-0.7947,-0.8144,-0.8043,-0.8097,-0.8557,-0.9553,-0.9058,-0.8612,-0.8581,-0.8673,-0.8673,-0.8631,-0.8603,-0.8589,-0.8572,-0.853,-0.8446,-0.86,-0.8891,-0.9065,-0.9301,-0.9922,-1.0497,-1.0409,-0.9692,-0.9317,-0.9083,-0.9021,-0.8855,-0.8375,-0.8105,-0.7778,-0.7676,-0.7705,-0.7603,-0.748,-0.7353,-0.7196,-0.7196,-0.7196,-0.7175,-0.7131,-0.6945,-0.6811,-0.6751,-0.6659,-0.6307,-0.6044,-0.5749,-0.5293,-0.4918,-0.4828,-0.4796,-0.4796,-0.4796,-0.4796,-0.4796,-0.4796,-0.4796,-0.4796,-0.4796,-0.4796,-1.9723,-1.9603,-1.8386,-1.7833,-1.7503,-1.6458,-1.5875,-1.5756,-1.5755,-1.5756,-1.5741,-1.5726,-1.5653,-1.5477,-1.5182,-1.4641,-1.3752,-1.3249,-1.2648,-1.1896,-1.1402,-1.1016,-1.0718,-1.0571,-1.0461,-1.0312,-1.0274,-1.0299,-1.0411,-1.0336,-1.0224,-1.0148,-1.0097,-1.0072,-0.9944,-0.9664,-0.9447,-0.9257,-0.8955,-0.8667,-0.8906,-0.9414,-0.9654,-0.9089,-0.8749,-0.8811,-0.9063,-0.8912,-0.8773,-0.8761,-0.865,-0.8625,-0.873,-0.918,-0.9394,-0.9271,-0.9244,-0.9244,-0.9097,-0.885,-0.8502,-0.8519,-0.8726,-0.8715,-0.867,-0.86,-0.853,-0.8575,-0.8684,-0.8698,-0.8781,-0.8933,-0.9365,-1.0083,-1.1129,-1.1957,-1.1538,-1.0868,-0.9973,-0.9651,-0.927,-0.8689,-0.8144,-0.7778,-0.7486,-0.7368,-0.7383,-0.7383,-0.7279,-0.7294,-0.7196,-0.7196,-0.719,-0.7145,-0.7056,-0.6915,-0.6818,-0.6781,-0.6766,-0.6605,-0.6376,-0.616,-0.5577,-0.4934,-0.4812,-0.4796,-0.4796,-0.4796,-0.4796,-0.4796,-0.4796,-0.4796,-0.4796,-0.4796,-0.4796,-1.9723,-1.9633,-1.8882,-1.8203,-1.7572,-1.6813,-1.6099,-1.5625,-1.5625,-1.5595,-1.5536,-1.5566,-1.5477,-1.5193,-1.4887,-1.4321,-1.3783,-1.342,-1.2842,-1.2019,-1.1584,-1.1141,-1.0689,-1.0474,-1.0362,-1.0199,-1.0186,-1.0173,-1.0198,-1.016,-1.0097,-1.0034,-1.0021,-0.9995,-0.9932,-0.9805,-0.9856,-0.9818,-0.9705,-0.9654,-0.9667,-0.9805,-0.978,-0.9717,-0.9642,-0.9604,-0.9617,-0.9529,-0.9541,-0.9592,-0.9629,-0.9679,-0.9704,-0.9522,-0.9069,-0.8611,-0.8343,-0.8358,-0.8428,-0.8372,-0.8343,-0.8421,-0.8558,-0.8687,-0.8684,-0.8488,-0.8375,-0.8589,-0.8809,-0.893,-0.8939,-0.914,-0.9999,-1.0855,-1.1662,-1.2023,-1.1869,-1.1545,-1.0709,-0.9973,-0.9519,-0.8567,-0.7782,-0.7479,-0.7211,-0.7116,-0.7056,-0.7071,-0.7116,-0.716,-0.7196,-0.7196,-0.7101,-0.7035,-0.7005,-0.6848,-0.6811,-0.6796,-0.6796,-0.6781,-0.6575,-0.6253,-0.5584,-0.5062,-0.4924,-0.4796,-0.4796,-0.4796,-0.4796,-0.4796,-0.4796,-0.4796,-0.4796,-0.4796,-0.4796,-1.9723,-1.9648,-1.8972,-1.8502,-1.8045,-1.6921,-1.6239,-1.5961,-1.5595,-1.5433,-1.5433,-1.5433,-1.5164,-1.4747,-1.4433,-1.4135,-1.3693,-1.3411,-1.2994,-1.2298,-1.1762,-1.1256,-1.0925,-1.0545,-1.0274,-1.0186,-1.0135,-1.0072,-1.0034,-1.0034,-1.0034,-0.9995,-0.997,-0.9944,-0.9893,-0.9893,-0.988,-0.9867,-0.9867,-0.988,-0.9893,-0.9893,-0.9893,-0.9893,-0.9893,-0.9893,-0.9893,-0.9893,-0.9893,-0.9893,-0.9893,-0.9893,-0.9841,-0.9605,-0.9122,-0.8329,-0.8215,-0.823,-0.823,-0.8201,-0.8258,-0.8287,-0.8372,-0.846,-0.8572,-0.8507,-0.8389,-0.8586,-0.8726,-0.8864,-0.9221,-0.9864,-1.071,-1.1485,-1.1748,-1.176,-1.1741,-1.1734,-1.1234,-1.0494,-0.9718,-0.8784,-0.8149,-0.8236,-0.7768,-0.6975,-0.693,-0.693,-0.7005,-0.7101,-0.716,-0.7196,-0.7065,-0.6893,-0.6878,-0.6811,-0.6766,-0.6751,-0.6751,-0.672,-0.6621,-0.6245,-0.5545,-0.5078,-0.486,-0.4796,-0.4796,-0.4796,-0.4796,-0.4796,-0.4796,-0.4796,-0.4796,-0.4796,-0.478,-1.9723,-1.9648,-1.9151,-1.8798,-1.8466,-1.7182,-1.6603,-1.6447,-1.5964,-1.5629,-1.5412,-1.5189,-1.4735,-1.4335,-1.4127,-1.3967,-1.3756,-1.3333,-1.3059,-1.2614,-1.209,-1.1542,-1.1149,-1.0717,-1.0379,-1.011,-1.0072,-1.0008,-0.9957,-0.9944,-0.997,-0.9957,-0.9931,-0.9918,-0.9905,-0.9893,-0.9893,-0.9893,-0.9893,-0.9893,-0.9893,-0.9893,-0.9893,-0.9893,-0.9893,-0.9893,-0.9893,-0.9893,-0.9893,-0.9893,-0.9893,-0.9893,-0.9854,-0.9618,-0.9217,-0.8625,-0.8442,-0.8301,-0.8244,-0.8201,-0.8201,-0.8243,-0.8386,-0.8575,-0.8499,-0.8532,-0.8953,-0.9382,-0.9365,-0.9327,-0.9472,-1.0583,-1.0959,-1.1236,-1.1343,-1.1354,-1.1373,-1.1373,-1.1174,-1.0448,-0.9745,-0.9237,-0.887,-0.9177,-0.8547,-0.7193,-0.6811,-0.6854,-0.705,-0.7289,-0.7304,-0.738,-0.7072,-0.6913,-0.6863,-0.6809,-0.6754,-0.6553,-0.6553,-0.6507,-0.6307,-0.5998,-0.5435,-0.5078,-0.4828,-0.4796,-0.4796,-0.4796,-0.4796,-0.4796,-0.4796,-0.4796,-0.4796,-0.482,-0.4828,-1.9723,-1.9675,-1.963,-1.9197,-1.8502,-1.8071,-1.7458,-1.6887,-1.6693,-1.6179,-1.5527,-1.4883,-1.4385,-1.4127,-1.3977,-1.3874,-1.3791,-1.3752,-1.3396,-1.3056,-1.2716,-1.2086,-1.155,-1.1079,-1.0676,-1.0212,-1.0072,-0.997,-0.9918,-0.9905,-0.9918,-0.9918,-0.9905,-0.9893,-0.9893,-0.9893,-0.9893,-0.9893,-0.9893,-0.9893,-0.9893,-0.9893,-0.9893,-0.9893,-0.9893,-0.9893,-0.9893,-0.9893,-0.9893,-0.9893,-0.9893,-0.9893,-0.9841,-0.9684,-0.9339,-0.9097,-0.8781,-0.8544,-0.8315,-0.8201,-0.8201,-0.8375,-0.8634,-0.8879,-0.8873,-0.995,-1.0503,-1.0435,-1.0273,-1.0433,-1.0552,-1.0876,-1.1023,-1.1071,-1.109,-1.109,-1.109,-1.1052,-1.0813,-1.0273,-0.9765,-0.9297,-0.8996,-0.9177,-0.9009,-0.7723,-0.7466,-0.7508,-0.7646,-0.7818,-0.768,-0.7584,-0.7179,-0.6987,-0.6896,-0.6729,-0.6323,-0.6005,-0.5874,-0.5858,-0.5796,-0.5451,-0.5173,-0.503,-0.4796,-0.4796,-0.4814,-0.4857,-0.4863,-0.4814,-0.4796,-0.4796,-0.4941,-0.5069,-0.5057,-1.9508,-1.9508,-1.9523,-1.9353,-1.8982,-1.8136,-1.7582,-1.7223,-1.6611,-1.5944,-1.5315,-1.4604,-1.4141,-1.3944,-1.3861,-1.3775,-1.3708,-1.3691,-1.3493,-1.321,-1.2858,-1.2468,-1.191,-1.1384,-1.0841,-1.0518,-1.0224,-0.997,-0.9905,-0.9943,-0.9893,-0.9893,-0.9893,-0.9893,-0.9893,-0.9918,-0.993,-0.9905,-0.9905,-0.9893,-0.9893,-0.9893,-0.9893,-0.9893,-0.9893,-0.9893,-0.9893,-0.9893,-0.9893,-0.9893,-0.9905,-0.9918,-0.9893,-0.9763,-0.9672,-0.9527,-0.9247,-0.8809,-0.8336,-0.8222,-0.8201,-0.8294,-0.8708,-0.9218,-0.9501,-1.0108,-1.0446,-1.0601,-1.09,-1.09,-1.089,-1.0879,-1.0919,-1.09,-1.09,-1.09,-1.09,-1.09,-1.0843,-1.0496,-0.9951,-0.9406,-0.9185,-0.9016,-0.8753,-0.8339,-0.8237,-0.816,-0.8254,-0.8339,-0.8219,-0.8177,-0.7851,-0.7834,-0.7782,-0.6932,-0.5915,-0.5611,-0.5385,-0.5491,-0.5605,-0.517,-0.4937,-0.4818,-0.4978,-0.5184,-0.5237,-0.5032,-0.4923,-0.4845,-0.4808,-0.4796,-0.5002,-0.5329,-0.5438,-1.912,-1.9139,-1.9139,-1.9176,-1.9132,-1.8219,-1.7786,-1.7584,-1.6905,-1.6045,-1.5333,-1.4695,-1.414,-1.3894,-1.3758,-1.3695,-1.3615,-1.3598,-1.3547,-1.336,-1.3125,-1.2794,-1.2385,-1.1936,-1.1422,-1.1047,-1.0715,-1.0473,-1.0207,-1.0157,-1.0043,-0.9955,-0.9893,-0.9893,-0.993,-1.0069,-1.0144,-1.0131,-0.9968,-1.003,-1.0093,-0.9968,-0.9893,-0.9893,-0.9893,-0.9893,-0.9893,-0.9893,-0.9893,-0.9993,-1.0069,-1.0081,-0.998,-0.9893,-0.9893,-0.9827,-0.9616,-0.9117,-0.8524,-0.8491,-0.844,-0.8321,-0.9015,-0.9815,-1.0365,-1.0293,-1.051,-1.0776,-1.09,-1.09,-1.09,-1.09,-1.09,-1.09,-1.09,-1.09,-1.09,-1.09,-1.09,-1.0756,-1.0273,-0.9902,-0.9477,-0.9277,-0.8884,-0.8699,-0.8656,-0.8577,-0.8682,-0.8759,-0.8793,-0.8756,-0.8705,-0.8791,-0.8873,-0.7703,-0.6622,-0.6011,-0.5813,-0.5646,-0.5553,-0.5214,-0.5226,-0.5493,-0.5687,-0.576,-0.5742,-0.5663,-0.5268,-0.4851,-0.4869,-0.4929,-0.5523,-0.588,-0.605,-1.8553,-1.85,-1.8553,-1.8716,-1.8903,-1.8481,-1.8131,-1.7885,-1.7537,-1.6819,-1.5766,-1.5061,-1.4352,-1.3862,-1.3661,-1.3598,-1.3564,-1.3514,-1.348,-1.3395,-1.3297,-1.3059,-1.2733,-1.2329,-1.1956,-1.1744,-1.1383,-1.1025,-1.0695,-1.0695,-1.0444,-1.0206,-1.0206,-1.0081,-0.9993,-1.0419,-1.0657,-1.0632,-1.0232,-1.0395,-1.0533,-1.0332,-1.0181,-1.0018,-0.9918,-0.9893,-0.9893,-0.9893,-0.9893,-0.9943,-1.0521,-1.0546,-1.0244,-1.0345,-1.0357,-1.0293,-0.9961,-0.9313,-0.8473,-0.9093,-0.9102,-0.8772,-0.9557,-1.0211,-1.0735,-1.0807,-1.0706,-1.09,-1.09,-1.09,-1.09,-1.09,-1.09,-1.09,-1.09,-1.09,-1.09,-1.0756,-1.0718,-1.0699,-1.0766,-1.0651,-1.0069,-0.9587,-0.9157,-0.8953,-0.8978,-0.8996,-0.8996,-0.8996,-0.8996,-0.8996,-0.8996,-0.8996,-0.8874,-0.818,-0.7346,-0.6684,-0.6195,-0.6007,-0.5995,-0.5967,-0.6058,-0.6234,-0.6191,-0.61,-0.6222,-0.6343,-0.5838,-0.5377,-0.5117,-0.5244,-0.5892,-0.6289,-0.6322,-1.8307,-1.8293,-1.8293,-1.8274,-1.8262,-1.8075,-1.7908,-1.77,-1.7117,-1.6395,-1.5599,-1.4881,-1.4237,-1.3766,-1.3577,-1.3514,-1.3463,-1.3446,-1.3425,-1.3318,-1.3306,-1.3213,-1.2944,-1.2629,-1.2373,-1.2121,-1.1854,-1.16,-1.1286,-1.1286,-1.1249,-1.1048,-1.0834,-1.0784,-1.057,-1.0695,-1.0833,-1.1211,-1.115,-1.115,-1.1276,-1.1086,-1.0822,-1.0469,-1.0131,-0.9943,-1.0005,-1.0043,-1.0043,-1.0131,-1.0773,-1.0985,-1.1073,-1.1324,-1.1908,-1.1892,-1.1704,-1.1095,-1.0355,-1.0342,-1.0303,-1.0108,-1.0053,-1.0487,-1.0828,-1.089,-1.09,-1.09,-1.09,-1.09,-1.09,-1.09,-1.09,-1.09,-1.09,-1.09,-1.0843,-1.0603,-1.0458,-1.0438,-1.0487,-1.0069,-0.9567,-0.9448,-0.9116,-0.8996,-0.8996,-0.8996,-0.8996,-0.8996,-0.8996,-0.8996,-0.8996,-0.8996,-0.8793,-0.8242,-0.7524,-0.6721,-0.6398,-0.6307,-0.6362,-0.6474,-0.6392,-0.6325,-0.6368,-0.641,-0.641,-0.6392,-0.6268,-0.5977,-0.5692,-0.5608,-0.6086,-0.6289,-0.6221,-1.7855,-1.7835,-1.7868,-1.7788,-1.7686,-1.774,-1.7666,-1.745,-1.6908,-1.631,-1.5665,-1.507,-1.4446,-1.3907,-1.3548,-1.3429,-1.3391,-1.334,-1.3323,-1.3228,-1.321,-1.319,-1.3052,-1.2877,-1.278,-1.2563,-1.2363,-1.2099,-1.1876,-1.1892,-1.1713,-1.155,-1.1615,-1.1462,-1.1309,-1.1435,-1.1523,-1.1889,-1.1952,-1.2027,-1.2027,-1.1889,-1.1748,-1.1048,-1.0484,-1.0081,-1.037,-1.0483,-1.0483,-1.0671,-1.1035,-1.1462,-1.1899,-1.2439,-1.3007,-1.2943,-1.23,-1.166,-1.0985,-1.0797,-1.0716,-1.0745,-1.058,-1.0621,-1.0838,-1.089,-1.09,-1.09,-1.09,-1.09,-1.09,-1.09,-1.09,-1.09,-1.09,-1.09,-1.0622,-1.0361,-0.9912,-0.9922,-0.9883,-0.9428,-0.9177,-0.9116,-0.9016,-0.8996,-0.8996,-0.8996,-0.8996,-0.8996,-0.8996,-0.8996,-0.8996,-0.8996,-0.8834,-0.8427,-0.7663,-0.6766,-0.6681,-0.6766,-0.6638,-0.6717,-0.6575,-0.6438,-0.6416,-0.641,-0.641,-0.6374,-0.6298,-0.6298,-0.6252,-0.6258,-0.641,-0.6325,-0.6218,-1.7233,-1.7212,-1.7212,-1.724,-1.7282,-1.7537,-1.7496,-1.722,-1.7186,-1.6785,-1.6125,-1.5575,-1.4913,-1.4226,-1.3688,-1.3425,-1.3357,-1.325,-1.3232,-1.3215,-1.321,-1.321,-1.321,-1.3135,-1.3065,-1.314,-1.301,-1.2663,-1.2467,-1.2425,-1.2162,-1.1889,-1.1927,-1.204,-1.2212,-1.2271,-1.2325,-1.25,-1.2676,-1.2663,-1.2538,-1.2747,-1.2375,-1.1688,-1.1035,-1.0937,-1.1186,-1.1487,-1.1472,-1.1648,-1.1961,-1.1886,-1.2064,-1.2456,-1.2643,-1.2359,-1.1482,-1.1136,-1.0938,-1.09,-1.09,-1.09,-1.0869,-1.089,-1.09,-1.09,-1.09,-1.09,-1.09,-1.09,-1.09,-1.09,-1.09,-1.09,-1.09,-1.0699,-1.0361,-0.9942,-0.9397,-0.9237,-0.9237,-0.9056,-0.9056,-0.8996,-0.8996,-0.8996,-0.8996,-0.8996,-0.8996,-0.8996,-0.8996,-0.8996,-0.8996,-0.8996,-0.8793,-0.857,-0.8296,-0.7572,-0.7419,-0.7419,-0.7231,-0.7006,-0.6787,-0.6645,-0.6474,-0.641,-0.641,-0.641,-0.6404,-0.641,-0.641,-0.641,-0.641,-0.6395,-0.6181,-1.7212,-1.7212,-1.7212,-1.7212,-1.7233,-1.7303,-1.7269,-1.7212,-1.7199,-1.679,-1.6064,-1.5897,-1.5229,-1.417,-1.3981,-1.3642,-1.3375,-1.3215,-1.3228,-1.321,-1.321,-1.321,-1.321,-1.321,-1.321,-1.321,-1.3173,-1.311,-1.3002,-1.2947,-1.291,-1.2789,-1.2588,-1.2789,-1.2847,-1.2947,-1.2922,-1.2964,-1.314,-1.3052,-1.2989,-1.311,-1.2714,-1.2187,-1.2112,-1.2002,-1.1814,-1.2363,-1.2268,-1.1759,-1.2083,-1.2061,-1.1723,-1.2349,-1.265,-1.1501,-1.1052,-1.09,-1.09,-1.09,-1.09,-1.09,-1.09,-1.09,-1.09,-1.09,-1.09,-1.09,-1.09,-1.09,-1.09,-1.09,-1.09,-1.09,-1.09,-1.0756,-1.0438,-1.0137,-0.9556,-0.9036,-0.8996,-0.8996,-0.8996,-0.8996,-0.8996,-0.8996,-0.8996,-0.8996,-0.8996,-0.8996,-0.8996,-0.8996,-0.8996,-0.8996,-0.8996,-0.8834,-0.8724,-0.8513,-0.8267,-0.8124,-0.8111,-0.7801,-0.7223,-0.6766,-0.6496,-0.641,-0.641,-0.641,-0.641,-0.641,-0.641,-0.641,-0.6416,-0.6395,-0.6309,-1.7212,-1.7199,-1.7149,-1.7128,-1.7149,-1.7191,-1.7178,-1.7136,-1.7115,-1.6811,-1.6358,-1.6066,-1.5495,-1.4796,-1.433,-1.3896,-1.3596,-1.3315,-1.321,-1.321,-1.3235,-1.321,-1.321,-1.321,-1.321,-1.321,-1.321,-1.3185,-1.321,-1.321,-1.3173,-1.3148,-1.321,-1.321,-1.3185,-1.3148,-1.3173,-1.3173,-1.3198,-1.321,-1.321,-1.321,-1.2977,-1.2852,-1.3085,-1.2714,-1.235,-1.2998,-1.266,-1.2127,-1.2469,-1.2345,-1.1924,-1.2205,-1.1975,-1.1014,-1.0938,-1.09,-1.09,-1.09,-1.09,-1.09,-1.09,-1.09,-1.09,-1.09,-1.09,-1.09,-1.09,-1.09,-1.09,-1.09,-1.09,-1.09,-1.09,-1.09,-1.067,-1.0439,-0.9862,-0.9197,-0.8996,-0.8996,-0.8996,-0.903,-0.8996,-0.8996,-0.8996,-0.8996,-0.8996,-0.8996,-0.8996,-0.8996,-0.8996,-0.8996,-0.8996,-0.8996,-0.8895,-0.8825,-0.8785,-0.8704,-0.8842,-0.8262,-0.7335,-0.6815,-0.6432,-0.641,-0.641,-0.641,-0.641,-0.641,-0.641,-0.641,-0.641,-0.6416,-0.6282,-1.7199,-1.7178,-1.7044,-1.7002,-1.7023,-1.7128,-1.7094,-1.6989,-1.6981,-1.6926,-1.6726,-1.6247,-1.5858,-1.5369,-1.479,-1.4362,-1.4079,-1.3785,-1.3541,-1.3315,-1.3403,-1.3378,-1.3223,-1.321,-1.321,-1.321,-1.321,-1.321,-1.321,-1.321,-1.321,-1.321,-1.321,-1.321,-1.321,-1.321,-1.321,-1.321,-1.321,-1.321,-1.321,-1.321,-1.321,-1.3173,-1.3198,-1.3093,-1.3106,-1.3181,-1.3146,-1.2978,-1.2801,-1.2636,-1.2236,-1.1681,-1.1145,-1.0957,-1.09,-1.09,-1.09,-1.09,-1.09,-1.09,-1.09,-1.09,-1.09,-1.09,-1.09,-1.09,-1.09,-1.09,-1.09,-1.09,-1.09,-1.09,-1.09,-1.09,-1.0805,-1.0477,-0.998,-0.9517,-0.9624,-0.9632,-0.9778,-0.9872,-0.9932,-0.9512,-0.9435,-0.9478,-0.929,-0.929,-0.9038,-0.903,-0.8996,-0.8996,-0.8996,-0.8996,-0.8996,-0.8996,-0.8996,-0.8996,-0.8915,-0.8221,-0.7321,-0.6836,-0.641,-0.641,-0.641,-0.641,-0.641,-0.641,-0.641,-0.641,-0.641,-0.6389,-0.6346,-1.7136,-1.7044,-1.696,-1.696,-1.6981,-1.6981,-1.6981,-1.6981,-1.6825,-1.6761,-1.6714,-1.6541,-1.6178,-1.5688,-1.5399,-1.5022,-1.467,-1.4393,-1.423,-1.3966,-1.384,-1.3536,-1.3261,-1.3218,-1.3193,-1.321,-1.321,-1.321,-1.3198,-1.321,-1.321,-1.321,-1.321,-1.3198,-1.321,-1.321,-1.3193,-1.3176,-1.3181,-1.3181,-1.3193,-1.321,-1.321,-1.321,-1.321,-1.3163,-1.3129,-1.3007,-1.2838,-1.265,-1.2544,-1.2318,-1.2018,-1.1306,-1.0957,-1.09,-1.09,-1.09,-1.09,-1.09,-1.09,-1.09,-1.09,-1.09,-1.09,-1.09,-1.09,-1.09,-1.09,-1.09,-1.09,-1.09,-1.09,-1.09,-1.0931,-1.0931,-1.0943,-1.0607,-1.0163,-1.0025,-1.0173,-1.0386,-1.0531,-1.0634,-1.0761,-1.0786,-1.0804,-1.0701,-1.0229,-0.9988,-0.9226,-0.9115,-0.9013,-0.8996,-0.8996,-0.8996,-0.8996,-0.8996,-0.8996,-0.8996,-0.8955,-0.7884,-0.6857,-0.6666,-0.641,-0.641,-0.641,-0.641,-0.641,-0.641,-0.6303,-0.6239,-0.6282,-0.6288,-0.6346,-1.7023,-1.6973,-1.6918,-1.6888,-1.6876,-1.6888,-1.6897,-1.6846,-1.674,-1.6641,-1.662,-1.6595,-1.6388,-1.5982,-1.5819,-1.5618,-1.5223,-1.4979,-1.4714,-1.4488,-1.4168,-1.3813,-1.3545,-1.3256,-1.3072,-1.3077,-1.3141,-1.3159,-1.3184,-1.321,-1.321,-1.321,-1.3198,-1.3181,-1.3163,-1.3146,-1.3112,-1.3077,-1.3089,-1.3114,-1.3114,-1.3154,-1.321,-1.321,-1.3181,-1.3146,-1.2925,-1.2768,-1.249,-1.2347,-1.2258,-1.1833,-1.1519,-1.109,-1.0919,-1.09,-1.09,-1.09,-1.09,-1.09,-1.09,-1.09,-1.09,-1.09,-1.09,-1.09,-1.09,-1.09,-1.09,-1.09,-1.09,-1.09,-1.09,-1.09,-1.1076,-1.1189,-1.1685,-1.1991,-1.0764,-0.9415,-0.9949,-1.0907,-1.1001,-1.1001,-1.1078,-1.1078,-1.125,-1.1258,-1.0898,-1.0615,-0.9863,-0.9235,-0.9149,-0.9038,-0.8996,-0.8996,-0.8996,-0.8996,-0.8996,-0.8692,-0.8386,-0.7286,-0.641,-0.6401,-0.6401,-0.641,-0.641,-0.6419,-0.6422,-0.641,-0.6239,-0.6046,-0.611,-0.6138,-0.6132,-1.6897,-1.6876,-1.6854,-1.6803,-1.6718,-1.6803,-1.6803,-1.6718,-1.6688,-1.6599,-1.6522,-1.65,-1.65,-1.6333,-1.607,-1.5906,-1.5718,-1.5537,-1.5236,-1.4902,-1.4481,-1.4181,-1.3785,-1.3411,-1.3283,-1.3149,-1.316,-1.3212,-1.3258,-1.3229,-1.321,-1.321,-1.3193,-1.3146,-1.3107,-1.3037,-1.298,-1.2996,-1.2992,-1.2992,-1.302,-1.3092,-1.3124,-1.3146,-1.3163,-1.3129,-1.2803,-1.2437,-1.2113,-1.1986,-1.1913,-1.1501,-1.1193,-1.0957,-1.0938,-1.09,-1.09,-1.09,-1.09,-1.09,-1.09,-1.09,-1.09,-1.1014,-1.1086,-1.1293,-1.1293,-1.1303,-1.1303,-1.1303,-1.1313,-1.1313,-1.1324,-1.1344,-1.1561,-1.1716,-1.2457,-1.3012,-1.1324,-0.9513,-1.0146,-1.1224,-1.1301,-1.1301,-1.1301,-1.1301,-1.1301,-1.1301,-1.1224,-1.101,-1.0572,-0.9821,-0.9346,-0.9226,-0.9038,-0.8996,-0.8996,-0.8996,-0.8935,-0.8447,-0.785,-0.6999,-0.6459,-0.6419,-0.6413,-0.6459,-0.6466,-0.6454,-0.644,-0.649,-0.6321,-0.6128,-0.5874,-0.5874,-0.5809,-1.6833,-1.674,-1.6641,-1.662,-1.6675,-1.662,-1.662,-1.6675,-1.6586,-1.6509,-1.65,-1.6457,-1.6457,-1.6509,-1.6446,-1.6321,-1.6187,-1.6024,-1.5831,-1.5522,-1.5067,-1.4665,-1.4156,-1.3645,-1.3694,-1.3547,-1.338,-1.3404,-1.3503,-1.3362,-1.3248,-1.3293,-1.3256,-1.3191,-1.3104,-1.3025,-1.2944,-1.2996,-1.2967,-1.293,-1.3131,-1.3126,-1.2964,-1.3007,-1.3099,-1.2908,-1.2579,-1.2084,-1.1866,-1.1682,-1.1501,-1.1193,-1.1033,-1.09,-1.09,-1.09,-1.09,-1.09,-1.09,-1.09,-1.09,-1.0941,-1.1158,-1.183,-1.215,-1.2793,-1.2793,-1.2803,-1.2803,-1.2803,-1.2813,-1.2813,-1.2813,-1.2813,-1.2948,-1.2958,-1.3309,-1.2996,-1.2021,-1.1062,-1.0831,-1.1301,-1.1301,-1.1301,-1.1301,-1.1301,-1.1301,-1.1301,-1.1301,-1.1224,-1.1147,-1.0488,-0.9761,-0.9252,-0.8996,-0.8996,-0.8996,-0.8996,-0.8895,-0.8467,-0.785,-0.6977,-0.6544,-0.6434,-0.6523,-0.6614,-0.6579,-0.6572,-0.6689,-0.6733,-0.6498,-0.6253,-0.5912,-0.5701,-0.5701]},{"header":{"parameterUnit":"m.s-1","parameterCategory":1,"la1":31.0,"la2":29.5877,"lo1":-88.7671,"lo2":-86.6584,"dy":0.0162,"dx":0.0185,"nx":115,"ny":88,"refTime":"2026-05-15T00:00:00:Z","depth":0,"parameterNumber":3,"parameterNumberName":"V-component_of_WINDS"},"data":[0.0,0.0,0.0,0.0,0.0,0.0,0.0,0.0,0.0,0.0,0.0,0.0,0.0,0.0,0.0,0.0,0.0,0.0,0.0,0.0,0.0,0.0,0.0,0.0,0.0,0.0,0.0,0.0,0.0,0.0,0.0,0.0,0.0,0.0,0.0,0.0,0.0,0.0,0.0,0.0,0.0,0.0,0.0,0.0,0.0,0.0,0.0,0.0,0.0,0.0,0.0,0.0,0.0,0.0,0.0,0.0,0.0,0.0,0.0,0.0,0.0,0.0,0.0,0.0,0.0,0.0,0.0,0.0,0.0,0.0,0.0,0.0,0.0,0.0,0.0,0.0,0.0,0.0,0.0,0.0,0.0,0.0,0.0,0.0,0.0,0.0,0.0,0.0,0.0,0.0,0.0,0.0,0.0,0.0,0.0,0.0,0.0,0.0,0.0,0.0,0.0,0.0,0.0,0.0,0.0,0.0,0.0,0.0,0.0,0.0,0.0,0.0,0.0,0.0,0.0,0.0,0.0,0.0,0.0,0.0,0.0,0.0,0.0,0.0,0.0,0.0,0.0,0.0,0.0,0.0,0.0,0.0,0.0,0.0,0.0,0.0,0.0,0.0,0.0,0.0,0.0,0.0,0.0,0.0,0.0,0.0,0.0,0.0,0.0,0.0,0.0,0.0,0.0,0.0,0.0,0.0,0.0,0.0,0.0,0.0,0.0,0.0,0.0,0.0,0.0,0.0,0.0,0.0,0.0,0.0,0.0,0.0,0.0,0.0,0.0,0.0,0.0,0.0,0.0,0.0,0.0,0.0,0.0,0.0,0.0,0.0,0.0,0.0,0.0,0.0,0.0,0.0,0.0,0.0,0.0,0.0,0.0,0.0,0.0,0.0,0.0,0.0,0.0,0.0,0.0,0.0,0.0,0.0,0.0,0.0,0.0,0.0,0.0,0.0,0.0,0.0,0.0,0.0,0.0,0.0,0.0,0.0,0.0,0.0,0.0,0.0,0.0,0.0,0.0,0.0,0.0,0.0,0.0,0.0,0.0,0.0,0.0,0.0,0.0,0.0,0.0,0.0,0.0,0.0,0.0,0.0,0.0,0.0,0.0,0.0,0.0,0.0,0.0,0.0,0.0,0.0,0.0,0.0,0.0,0.0,0.0,0.0,0.0,0.0,0.0,0.0,0.0,0.0,0.0,0.0,0.0,0.0,0.0,0.0,0.0,0.0,0.0,0.0,0.0,0.0,0.0,0.0,0.0,0.0,0.0,0.0,0.0,0.0,0.0,0.0,0.0,0.0,0.0,0.0,0.0,0.0,0.0,0.0,0.0,0.0,0.0,0.0,0.0,0.0,0.0,0.0,0.0,0.0,0.0,0.0,0.0,0.0,0.0,0.0,0.0,0.0,0.0,0.0,0.0,0.0,0.0,0.0,0.0,0.0,0.0,0.0,0.0,0.0,0.0,0.0,0.0,0.0,0.0,0.0,0.0,0.0,0.0,0.0,0.0,0.0,0.0,0.0,0.0,0.0,0.0,0.0,0.0,0.0,0.0,0.0,0.0,0.0,0.0,0.0,0.0,0.0,0.0,0.0,0.0,0.0,0.0,0.0,0.0,0.0,0.0,0.0,0.0,0.0,0.0,0.0,0.0,0.0,0.0,0.0,0.0,0.0,0.0,0.0,0.0,0.0,0.0,0.0,0.0,0.0,0.0,0.0,0.0,0.0,0.0,0.0,0.0,0.0,0.0,0.0,0.0,0.0,0.0,0.0,0.0,0.0,0.0,0.0,0.0,0.0,0.0,0.0,0.0,0.0,0.0,0.0,0.0,0.0,0.0,0.0,0.0,0.0,0.0,0.0,0.0,0.0,0.0,0.0,0.0,0.0,0.0,0.0,0.0,0.0,0.0,0.0,0.0,0.0,0.0,0.0,0.0,0.0,0.0,0.0,0.0,0.0,0.0,0.0,0.0,0.0,0.0,0.0,0.0,0.0,0.0,0.0,0.0,0.0,0.0,0.0,0.0,0.0,0.0,0.0,0.0,0.0,0.0,0.0,0.0,0.0,0.0,0.0,0.0,0.0,0.0,0.0,0.0,0.0,0.0,0.0,0.0,0.0,0.0,0.0,0.0,0.0,0.0,0.0,0.0,0.0,0.0,0.0,0.0,0.0,0.0,0.0,0.0,0.0,0.0,0.0,0.0,0.0,0.0,0.0,0.0,0.0,0.0,0.0,0.0,0.0,0.0,0.0,0.0,0.0,0.0,0.0,0.0,0.0,0.0,0.0,0.0,0.0,0.0,0.0,0.0,0.0,0.0,0.0,0.0,0.0,0.0,0.0,0.0,0.0,0.0,0.0,0.0,0.0,0.0,0.0,0.0,0.0,0.0,0.0,0.0,0.0,0.0,0.0,0.0,0.0,0.0,0.0,0.0,0.0,0.0,0.0,0.0,0.0,0.0,0.0,0.0,0.0,0.0,0.0,0.0,0.0,0.0,0.0,0.0,0.0,0.0,0.0,0.0,0.0,0.0,0.0,0.0,0.0,0.0,0.0,0.0,0.0,0.0,0.0,0.0,0.0,0.0,0.0,0.0,0.0,0.0,0.0,0.0,0.0,0.0,0.0,0.0,0.0,0.0,0.0,0.0,0.0,0.0,0.0,0.0,0.0,0.0,0.0,0.0,0.0,0.0,0.0,0.0,0.0,0.0,0.0,0.0,0.0,0.0,0.0,0.0,0.0,0.0,0.0,0.0,0.0,0.0,0.0,0.0,0.0,0.0,0.0,0.0,0.0,0.0,0.0,0.0,0.0,0.0,0.0,0.0,0.0,0.0,0.0,0.0,0.0,0.0,0.0,0.0,0.0,0.0,0.0,0.0,0.0,0.0,0.0,0.0,0.0,0.0,0.0,0.0,0.0,0.0,0.0,0.0,0.0,0.0,0.0,0.0,0.0,0.0,0.0,0.0,0.0,0.0,0.0,0.0,0.0,0.0,0.0,0.0,0.0,0.0,0.0,0.0,0.0,0.0,0.0,0.0,0.0,0.0,0.0,0.0,0.0,0.0,0.0,0.0,0.0,0.0,0.0,0.0,0.0,0.0,0.0,0.0,0.0,0.0,0.0,0.0,0.0,0.0,0.0,0.0,0.0,0.0,0.0,0.0,0.0,0.0,0.0,0.0,0.0,0.0,0.0,0.0,0.0,0.0,0.0,0.0,0.0,0.0,0.0,0.0,0.0,0.0,0.0,0.0,0.0,0.0,0.0,0.0,0.0,0.0,0.0,0.0,0.0,0.0,0.0,0.0,0.0,0.0,0.0,0.0,0.0,0.0,0.0,0.0,0.0,0.0,0.0,0.0,0.0,0.0,0.0,0.0,0.0,0.0,0.0,0.0,0.0,0.0,0.0,0.0,0.0,0.0,0.0,0.0,0.0,0.0,0.0,0.0,0.0,0.0,0.0,0.0,0.0,0.0,0.0,0.0,0.0,0.0,0.0,0.0,0.0,0.0,0.0,0.0,0.0,0.0,0.0,0.0,0.0,0.0,0.0,0.0,0.0,0.0,0.0,0.0,0.0,0.0,0.0,0.0,0.0,0.0,0.0,0.0,0.0,0.0,0.0,0.0,0.0,0.0,0.0,0.0,0.0,0.0,0.0,0.0,0.0,0.0,0.0,0.0,0.0,0.0,0.0,0.0,0.0,0.0,0.0,0.0,0.0,0.0,0.0,0.0,0.0,0.0,0.0,0.0,0.0,0.0,0.0,0.0,0.0,0.0,0.0,0.0,0.0,0.0,0.0,0.0,0.0,0.0,0.0,0.0,0.0,0.0,0.0,0.0,0.0,0.0,0.0,0.0,0.0,0.0,0.0,0.0,0.0,0.0,0.0,0.0,0.0,0.0,0.0,0.0,0.0,0.0,0.0,0.0,0.0,0.0,0.0,0.0,0.0,0.0,0.0,0.0,0.0,0.0,0.0,0.0,0.0,0.0,0.0,0.0,0.0,0.0,0.0,0.0,0.0,0.0,0.0,0.0,0.0,0.0,0.0,0.0,0.0,0.0,0.0,0.0,0.0,0.0,0.0,0.0,0.0,0.0,0.0,0.0,0.0,0.0,0.0,0.0,0.0,0.0,0.0,0.0,0.0,0.0,0.0,0.0,0.0,0.0,0.0,0.0,0.0,0.0,0.0,0.0,0.0,0.0,0.0,0.0,0.0,0.0,0.0,0.0,0.0,0.0,0.0,0.0,0.0,0.0,0.0,0.0,0.0,0.0,0.0,0.0,0.0,0.0,0.0,0.0,0.0,0.0,0.0,0.0,0.0,0.0,0.0,0.0,0.0,0.0,0.0,0.0,0.0,0.0,0.0,0.0,0.0,0.0,0.0,0.0,0.0,0.0,0.0,0.0,0.0,0.0,0.0,0.0,0.0,0.0,0.0,0.0,0.0,0.0,0.0,0.0,0.0,0.0,0.0,0.0,0.0,0.0,0.0,0.0,0.0,0.0,0.0,0.0,0.0,0.0,0.0,0.0,0.0,0.0,0.0,0.0,0.0,0.0,0.0,0.0,0.0,0.0,0.0,0.0,0.0,0.0,0.0,0.0,0.0,0.0,0.0,0.0,0.0,0.0,0.0,0.0,0.0,0.0,0.0,0.0,0.0,0.0,0.0,0.0,0.0,0.0,0.0,0.0,0.0,0.0,0.0,0.0,0.0,0.0,0.0,0.0,0.0,0.0,0.0,0.0,0.0,0.0,0.0,0.0,0.0,0.0,0.0,0.0,0.0,0.0,0.0,0.0,0.0,0.0,0.0,0.0,0.0,0.0,0.0,0.0,0.0,0.0,0.0,0.0,0.0,0.0,0.0,0.0,0.0,0.0,0.0,0.0,0.0,0.0,0.0,0.0,0.0,0.0,0.0,0.0,0.0,0.0,0.0,0.0,0.0,0.0,0.0,0.0,0.0,0.0,0.0,0.0,0.0,0.0,0.0,0.0,0.0,0.0,0.0,0.0,0.0,0.0,0.0,0.0,0.0,0.0,0.0,0.0,0.0,0.0,0.0,0.0,0.0,0.0,0.0,0.0,0.0,0.0,0.0,0.0,0.0,0.0,0.0,0.0,0.0,0.0,0.0,0.0,0.0,0.0,0.0,0.0,0.0,0.0,0.0,0.0,0.0,0.0,0.0,0.0,0.0,0.0,0.0,0.0,0.0,0.0,0.0,0.0,0.0,0.0,0.0,0.0,0.0,0.0,0.0,0.0,0.0,0.0,0.0,0.0,0.0,0.0,0.0,0.0,0.0,0.0,0.0,0.0,0.0,0.0,0.0,0.0,0.0,0.0,0.0,0.0,0.0,0.0,0.0,0.0,0.0,0.0,0.0,0.0,0.0,0.0,0.0,0.0,0.0,0.0,0.0,0.0,0.0,0.0,0.0,0.0,0.0,0.0,0.0,0.0,0.0,0.0,0.0,0.0,0.0,0.0,0.0,0.0,0.0,0.0,0.0,0.0,0.0,0.0,0.0,0.0,0.0,0.0,0.0,0.0,0.0,0.0,0.0,0.0,0.0,0.0,0.0,0.0,0.0,0.0,0.0,0.0,0.0,0.0,0.0,0.0,0.0,0.0,0.0,0.0,0.0,0.0,0.0,0.0,0.0,0.0,0.0,0.0,0.0,0.0,0.0,0.0,0.0,0.0,0.0,0.0,0.0,0.0,0.0,0.0,0.0,0.0,0.0,0.0,0.0,0.0,0.0,0.0,0.0,0.0,0.0,0.0,0.0,0.0,0.0,0.0,0.0,0.0,0.0,0.0,0.0,0.0,0.0,0.0,0.0,0.0,0.0,0.0,0.0,0.0,0.0,0.0,0.0,0.0,0.0,0.0,0.0,0.0,0.0,0.0,0.0,0.0,0.0,0.0,0.0,0.0,0.0,0.0,0.0,0.0,0.0,0.0,0.0,0.0,0.0,0.0,0.0,0.0,0.0,0.0,0.0,0.0,0.0,0.0,0.0,0.0,0.0,0.0,0.0,0.0,0.0,0.0,0.0,0.0,0.0,0.0,0.0,0.0,0.0,0.0,0.0,0.0,0.0,0.0,0.0,0.0,0.0,0.0,0.0,0.0,0.0,0.0,0.0,0.0,0.0,0.0,0.0,0.0,0.0,0.0,0.0,0.0,0.0,0.0,0.0,0.0,0.0,0.0,0.0,0.0,0.0,0.0,0.0,0.0,0.0,0.0,0.0,0.0,0.0,0.0,0.0,0.0,0.0,0.0,0.0,0.0,0.0,0.0,0.0,0.0,0.0,0.0,0.0,0.0,0.0,0.0,0.1888,0.0661,0.0,0.0,0.0,0.0,0.0,0.0,0.0,0.0,0.0,0.0,0.0,0.0,0.0,0.0,0.0,0.0,0.0,0.0,0.0,0.0,0.0,0.0,0.0,0.0,0.0,0.0,0.0,0.0,0.0,0.0,0.0,0.0,0.0,0.0,0.0,0.0,0.0,0.0,0.0,0.0,0.0,0.0,0.0,0.0,0.0,0.0,0.0,0.0,0.0,0.0,0.0,0.0,0.0,0.0,0.0,0.0,0.0,0.0,0.0,0.0,0.0,0.0,0.0,0.0,0.0,0.0,0.0,0.0,0.0,0.0,0.0,0.0,0.0,0.0,0.0,0.0,0.0,0.0,0.0,0.0,0.0,0.0,0.0,0.0,0.0,0.0,0.0,0.0,0.0,0.0,0.0,0.0,0.0,0.0,0.0,0.0,0.0,0.0,0.0,0.0,0.0,0.0,0.0,0.0,0.0,0.0,0.0,0.0,0.0,0.0,0.0,0.1529,0.0,0.3062,0.1112,0.0,0.0,0.0,0.0,0.0,0.0,0.0,0.0,0.0,0.0,0.0,0.0,0.0,0.0,0.0,0.0,0.0,0.0,0.0,0.0,0.0,0.0,0.0,0.0,0.0,0.0,0.0,0.0,0.0,0.0,0.0,0.0,0.0,0.0,0.0,0.0,0.0,0.0,0.0,0.0,0.0,0.0,0.0,0.0,0.0,0.0,0.0,0.0,0.0,0.0,0.0,0.0,0.0,0.0,0.0,0.0,0.0,0.0,0.0,0.0,0.0,0.0,0.0,0.0,0.0,0.0,0.0,0.0,0.0,0.0,0.0,0.0,0.0,0.0,0.0,0.0,0.0,0.0,0.0,0.0,0.0,0.0,0.0,0.0,0.0,0.0,0.0,0.0,0.0,0.0,0.0,0.0,0.0,0.0,0.0,0.0,0.0,0.0,0.0,0.0,0.0,0.0,0.0,0.0,0.0,0.0,0.0,0.0,0.0,0.0,0.0,0.0,0.1122,0.3018,0.1132,0.0,0.0,0.0,0.0,0.0,0.0,0.0,0.0,0.0,0.0,0.0,0.0,0.0,0.0,0.0,0.0,0.0,0.0,0.0,0.0,0.0,0.0,0.0,0.0,0.0,0.0,0.0,0.0,0.0,0.0,0.0,0.0,0.0,0.0,0.0,0.0,0.0,0.0,0.0,0.0,0.0,0.0,0.0,0.0,0.0,0.0,0.0,0.0,0.0,0.0,0.0,0.0,0.0,0.0,0.0,0.0,0.0,0.0,0.0,0.0,0.0,0.0,0.0,0.0,0.0,0.0,0.0,0.0,0.0,0.0,0.0,0.0,0.0,0.0,0.0,0.0,0.0,0.0,0.0,0.0,0.0,0.0,0.0,0.0,0.0,0.0,0.0,0.0,0.0,0.0,0.0,0.0,0.0,0.0,0.0,0.0,0.0,0.0,0.0,0.0,0.0,0.0,0.0,0.0,0.0,0.0,0.0,0.0,0.0,0.0,0.0,0.0,0.0365,0.1132,0.1712,0.1413,0.0,0.0,0.0,0.0,0.0,0.0,0.0,0.0,0.0,0.0,0.0,0.0,0.0,0.0,0.0,0.0,0.0,0.0,0.0,0.0,0.0,0.0,0.0,0.0,0.0,0.0,0.0,0.0,0.0,0.0,0.0,0.0,0.0,0.0,0.0,0.0,0.0,0.0,0.0,0.0,0.0,0.0,0.0,0.0,0.0,0.0,0.0,0.0,0.0,0.0,0.0,0.0,0.0,0.0,0.0,0.0,0.0,0.0,0.0,0.0,0.0,0.0,0.0,0.0,0.0,0.0,0.0,0.0,0.0,0.0,0.0,0.0,0.0,0.0,0.0,0.0,0.0,0.0,0.0,0.0,0.0,0.0,0.0,0.0,0.0,0.0,0.0,0.0,0.0,0.0,0.0,0.0,0.0,0.0,0.0,0.0,0.0,0.0,0.0,0.0,0.0,0.0,0.0,0.0,0.0,0.0,0.0,0.0,0.0,0.0,0.0,0.0,0.0,0.1393,0.1479,0.0,0.0,0.0,0.0,0.0,0.0,0.0,0.0,0.0,0.0,0.0,0.0,0.0,0.0,0.0,0.0,0.0,0.0,0.0,0.0,0.0,0.0,0.0,0.0,0.0,0.0,0.0,0.0,0.0,0.0,0.0,0.0,0.0,0.0,0.0,0.0,0.0,0.0,0.0,0.0,0.0,0.0,0.0,0.0,0.0,0.0,0.0,0.0,0.0,0.0,0.0,0.0,0.0,0.0,0.0,0.0,0.0,0.0,0.0,0.0,0.0,0.0,0.0,0.0,0.0,0.0,0.0,0.0,0.0,0.0,0.0,0.0,0.0,0.0,0.0,0.0,0.0,0.0,0.0,0.0,0.0,0.0,0.0,0.0,0.0,0.0,0.0,0.0,0.0,0.0,0.0,0.0,0.0,0.0,0.0,0.0,0.0,0.0,0.0,0.0,0.0,0.0,0.0,0.0,0.0,0.0,0.0,0.0,0.0,0.0,0.0,0.0,0.0,0.0,0.0,0.0,0.0,0.0,0.0,0.0,0.0,0.0,0.0,0.0,0.0,0.0,0.0,0.0,0.0,0.0,0.0,0.0,0.0,0.0,0.0,0.0,0.0,0.0,0.0,0.0,0.0,0.0,0.0,0.0,0.0,0.0,0.0,0.0,0.0,0.0,0.0,0.0,0.0,0.0,0.0,0.0,0.0,0.0,0.0,0.0,0.0,0.0,0.0,0.0,0.0,0.0,0.0,0.0,0.0,0.0,0.0,0.0,0.0,0.0,0.0,0.0,0.0,0.0,0.0,0.0,0.0,0.0,0.0,0.0,0.0,0.0,0.0,0.0,0.0,0.0,0.0,0.0,0.0,0.0,0.0,0.0,0.0,0.0,0.0,0.0,0.0,0.0,0.0,0.0,0.0,0.0,0.0,0.0,0.0,0.0,0.0,0.0,0.0,0.0,0.0,0.0,0.0,0.0,0.0,0.0,0.0,0.0,0.0,0.0,0.1732,0.0618,0.0,0.0,0.0,0.0,0.0,0.0,0.0,0.0,0.0,0.0,0.0,0.0,0.0,0.0,0.0,0.0,0.0,0.0,0.0,0.0,0.0,0.0,0.0,0.0,0.0,0.0,0.0,0.0,0.0,0.0,0.0,0.0,0.0,0.0,0.0,0.0,0.0,0.0,0.0,0.0,0.0,0.0,0.0,0.0,0.0,0.0,0.0,0.0,0.0,0.0,0.0,0.0,0.0,0.0,0.0,0.0,0.0,0.0,0.0,0.0,0.0,0.0,0.0,0.0,0.0,0.0,0.0,0.0,0.0,0.0,0.0,0.0,0.0,0.0,0.0,0.0,0.0,0.0,0.0,0.0,0.0,0.0,0.0,0.0,0.0,0.0,0.0,0.0,0.0,0.0,0.0,0.0,0.0,0.0,0.0,0.0,0.0,0.0,0.0,0.0,0.0,0.0,0.0,0.0,0.0,0.0,0.0,0.0,0.0,0.0,0.0,0.0,0.0,0.248,0.1549,0.0689,0.001,0.0,0.0,0.0,0.0,0.0,0.0,0.0,0.0,0.0,0.0,0.0,0.0,0.0,0.0,0.0,0.0,0.0,0.0,0.0,0.0,0.0,0.0,0.0,0.0,0.0,0.0,0.0,0.0,0.0,0.0,0.0,0.0,0.0,0.0,0.0,0.0,0.0,0.0,0.0,0.0,0.0,0.0,0.0,0.0,0.0,0.0,0.0,0.0,0.0,0.0,0.0,0.0,0.0,0.0,0.0,0.0,0.0,0.0,0.0,0.0,0.0,0.0,0.0,0.0,0.0,0.0,0.0,0.0,0.0,0.0,0.0,0.0,0.0,0.0,0.0,0.0,0.0,0.0,0.0,0.0,0.0,0.0,0.0,0.0,0.0,0.0,0.0,0.0,0.0,0.0,0.0,0.0,0.0,0.0,0.0,0.0,0.0,0.0,0.0,0.0,0.0,0.0,0.0,0.0,0.0,0.0,0.0,0.0,0.0,0.0,0.0,0.2577,0.267,0.1904,0.0,0.0,0.0,0.0,0.0,0.0,0.0,0.0,0.0,0.0,0.0,0.0,0.0,0.0,0.0,0.0,0.0,0.0,0.0,0.0,0.0,0.0,0.0,0.0,0.0,0.0,0.0,0.0,0.0,0.0,0.0,0.0,0.0,0.0,0.0,0.0,0.0,0.0,0.0,0.0,0.0,0.0,0.0,0.0,0.0,0.0,0.0,0.0,0.0,0.0,0.0,0.0,0.0,0.0,0.0,0.0,0.0,0.0,0.0,0.0,0.0,0.0,0.0,0.0,0.0,0.0,0.0,0.0,0.0,0.0,0.0,0.0,0.0,0.0,0.0,0.0,0.0,0.0,0.0,0.0,0.0,0.0,0.0,0.0,0.0,0.0,0.0,0.0,0.0,0.0,0.0,0.0,0.0,0.0,0.0,0.0,0.0,0.0,0.0,0.0,0.0,0.0,0.0,0.0,0.0,0.0,0.0,0.0,0.0,0.0,0.0,0.0,0.2659,0.2782,0.2591,0.2053,0.072,0.0,0.0,0.0,0.0,0.0,0.0,0.0,0.0,0.0,0.0,0.0,0.0,0.0,0.0,0.0,0.0,0.0,0.0,0.0,0.0,0.0,0.0,0.0,0.0,0.0,0.0,0.0,0.0,0.0,0.0,0.0,0.0,0.0,0.0,0.0,0.0,0.0,0.0,0.0,0.0,0.0,0.0,0.0,0.0,0.0,0.0,0.0,0.0,0.0,0.0,0.0,0.0,0.0,0.0,0.0,0.0,0.0,0.0,0.0,0.0,0.0,0.0,0.0,0.0,0.0,0.0,0.0,0.0,0.0,0.0,0.0,0.0,0.0,0.0,0.0,0.0,0.0,0.0,0.0,0.0,0.0,0.0,0.0,0.0,0.0,0.0,0.0,0.0,0.0,0.0,0.0,0.0,0.0,0.0,0.0,0.0,0.0,0.0,0.0,0.0,0.0,0.0,0.0,0.0,0.0,0.0,0.0,0.0,0.0,0.2627,0.2655,0.2849,0.2912,0.2838,0.1857,0.089,0.0,0.0,0.0,0.0,0.0,0.0,0.0,0.0,0.0,0.0,0.0,0.0,0.0,0.0,0.0,0.0,0.0,0.0,0.0,0.0,0.0,0.0,0.0,0.0,0.0,0.0,0.0,0.0,0.0,0.0,0.0,0.0,0.0,0.0,0.0,0.0,0.0,0.0,0.0,0.0,0.0,0.0,0.0,0.0,0.0,0.0,0.0,0.0,0.0,0.0,0.0,0.0,0.0,0.0,0.0,0.0,0.0,0.0,0.0,0.0,0.0,0.0,0.0,0.0,0.0,0.0,0.0,0.0,0.0,0.0,0.0,0.0,0.0,0.0,0.0,0.0,0.0,0.0,0.0,0.0,0.0,0.0,0.0,0.0,0.0,0.0,0.0,0.0,0.0,0.0,0.0,0.0,0.0,0.0,0.0,0.0,0.0,0.0,0.0,0.0,0.0,0.0,0.0,0.0,0.0,0.0,0.0,0.0,0.2593,0.2626,0.2858,0.2967,0.2912,0.3042,0.2246,0.0,0.0,0.0,0.0,0.0,0.0,0.0,0.0,0.0,0.0,0.0,0.0,0.0,0.0,0.0,0.0,0.0,0.0,0.0,0.0,0.0,0.0,0.0,0.0,0.0,0.0,0.0,0.0,0.0,0.0,0.0,0.0,0.0,0.0,0.0,0.0,0.0,0.0,0.0,0.0,0.0,0.0,0.0,0.0,0.0,0.0,0.0,0.0,0.0,0.0,0.0,0.0,0.0,0.0,0.0,0.0,0.0,0.0,0.0,0.0,0.0,0.0,0.0,0.0,0.0,0.0,0.0,0.0,0.0,0.0,0.0,0.0,0.0,0.0,0.0,0.0,0.0,0.0,0.0,0.0,0.0,0.0,0.0,0.0,0.0,0.0,0.0,0.0,0.0,0.0,0.0,0.0,0.0,0.0,0.0,0.0,0.0,0.0,0.0,0.0,0.0,0.0,0.0,0.0,0.0,0.0,0.0,0.0,0.2622,0.2674,0.2882,0.2985,0.298,0.3101,0.2974,0.0,0.0,0.0,0.0,0.0,0.0,0.0,0.0,0.0,0.0,0.0,0.0,0.0,0.0,0.0,0.0,0.0,0.0,0.0,0.0,0.0,0.0,0.0,0.0,0.0,0.0,0.0,0.0,0.0,0.0,0.0,0.0,0.0,0.0,0.0,0.0,0.0,0.0,0.0,0.0,0.0,0.0,0.0,0.0,0.0,0.0,0.0,0.0,0.4575,0.0,0.0,0.0,0.0,0.0,0.0,0.0,0.0,0.0,0.0,0.0,0.0,0.0,0.0,0.0,0.0,0.0,0.0,0.0,0.0,0.0,0.0,0.0,0.0,0.0,0.0,0.0,0.0,0.0,0.0,0.0,0.0,0.0,0.0,0.0,0.0,0.0,0.0,0.0,0.0,0.0,0.0,0.0,0.0,0.0,0.0,0.0,0.0,0.0,0.0,0.0,0.0,0.0,0.0,0.0,0.0,0.0,0.0,0.0,0.2656,0.2742,0.2882,0.2967,0.2999,0.313,0.321,0.0,0.0,0.0,0.0,0.0,0.0,0.0,0.0,0.0,0.0,0.0,0.0,0.0,0.0,0.0,0.0,0.0,0.0,0.0,0.0,0.0,0.0,0.0,0.0,0.0,0.0,0.0,0.0,0.0,0.0,0.0,0.0,0.0,0.0,0.0,0.0,0.0,0.0,0.0,0.0,0.0,0.0,0.0,0.0,0.0,0.0,0.0,0.0,0.0,0.0,0.0,0.0,0.0,0.0,0.0,0.0,0.0,0.0,0.0,0.0,0.0,0.0,0.0,0.0,0.0,0.0,0.0,0.0,0.0,0.0,0.0,0.0,0.0,0.0,0.0,0.0,0.0,0.0,0.0,0.0,0.0,0.0,0.0,0.0,0.0,0.0,0.0,0.0,0.0,0.0,0.0,0.0,0.0,0.0,0.0,0.0,0.0,0.0,0.0,0.0,0.0,0.0,0.0,0.0,0.0,0.0,0.0,0.2226,0.2697,0.2816,0.2864,0.2924,0.3022,0.314,0.3199,0.0,0.0,0.0,0.0,0.0,0.0,0.0,0.0,0.0,0.0,0.0,0.0,0.0,0.0,0.0,0.0,0.0,0.0,0.0,0.0,0.0,0.0,0.0,0.0,0.0,0.0,0.0,0.0,0.0,0.0,0.0,0.0,0.0,0.0,0.0,0.0,0.0,0.0,0.0,0.0,0.0,0.0,0.0,0.0,0.0,0.0,0.0,0.0,0.0,0.4329,0.0,0.0,0.0,0.0,0.0,0.0,0.0,0.0,0.0,0.0,0.0,0.0,0.0,0.0,0.0,0.0,0.0,0.0,0.0,0.0,0.0,0.0,0.0,0.0,0.0,0.0,0.0,0.0,0.0,0.0,0.0,0.0,0.0,0.0,0.0,0.0,0.0,0.0,0.0,0.0,0.0,0.0,0.0,0.0,0.0,0.0,0.0,0.0,0.0,0.0,0.0,0.0,0.0,0.0,0.0,0.0,0.1481,0.2331,0.2806,0.2885,0.2903,0.2953,0.3078,0.3162,0.3229,0.3197,0.0,0.0,0.0,0.0,0.0,0.0,0.0,0.0,0.0,0.0,0.0,0.0,0.0,0.0,0.0,0.0,0.0,0.0,0.0,0.0,0.0,0.0,0.0,0.0,0.0,0.0,0.0,0.0,0.0,0.0,0.0,0.0,0.0,0.0,0.0,0.0,0.0,0.0,0.0,0.0,0.1229,0.0,0.0,0.0,0.0,0.0,0.0,0.0,0.0,0.066,0.0,0.0,0.0,0.0,0.0,0.0,0.0,0.0,0.0,0.0,0.0,0.0,0.0,0.0,0.0,0.0,0.0,0.0,0.0,0.0,0.0,0.0,0.0,0.0,0.0,0.0,0.0,0.0,0.0,0.0,0.0,0.0,0.0,0.0,0.0,0.0,0.0,0.0,0.0,0.0,0.0,0.0,0.0,0.0,0.0,0.0,0.0,0.0,0.0,0.0,0.0,0.0,0.0,0.0,0.0,0.1546,0.2469,0.2951,0.2946,0.299,0.3055,0.3148,0.3203,0.3268,0.0,0.0,0.0,0.0,0.0,0.0,0.0,0.0,0.0,0.0,0.0,0.0,0.0,0.0,0.0,0.0,0.0,0.0,0.0,0.0,0.0,0.0,0.0,0.0,0.0,0.0,0.0,0.0,0.0,0.0,0.0,0.0,0.0,0.0,0.0,0.0,0.0,0.0,0.0,0.0,0.1503,0.3242,0.488,0.0,0.0,0.0,0.0,0.0,0.0,0.1152,0.0,0.0,0.0,0.0,0.0,0.0,0.0,0.0,0.0,0.0,0.0,0.0,0.0,0.0,0.0,0.0,0.0,0.0,0.0,0.0,0.0,0.0,0.0,0.0,0.0,0.0,0.0,0.0,0.0,0.0,0.0,0.0,0.0,0.0,0.0,0.0,0.0,0.0,0.0,0.0,0.0,0.0,0.0,0.0,0.0,0.0,0.0,0.0,0.0,0.0,0.0,0.0,0.0,0.0,0.0,0.0,0.1612,0.2611,0.309,0.3035,0.3085,0.3134,0.32,0.3263,0.3298,0.0,0.0,0.0,0.0,0.0,0.0,0.0,0.0,0.0,0.0,0.0,0.0,0.0,0.0,0.0,0.0,0.0,0.0,0.0,0.0,0.0,0.0,0.0,0.0,0.0,0.0,0.0,0.0,0.0,0.0,0.0,0.0,0.0,0.0,0.0,0.0,0.0,0.0,0.0,0.0,0.0,0.5097,0.5101,0.5013,0.0,0.0,0.0,0.0,0.4687,0.2792,0.0,0.0,0.0,0.0,0.0,0.0,0.0,0.0,0.0,0.0,0.0,0.0,0.0,0.0,0.0,0.0,0.0,0.0,0.0,0.0,0.0,0.0,0.0,0.0,0.0,0.0,0.0,0.0,0.0,0.0,0.0,0.0,0.0,0.0,0.0,0.0,0.0,0.0,0.0,0.0,0.0,0.0,0.0,0.0,0.0,0.0,0.0,0.0,0.0,0.0,0.0,0.0,0.0,0.0,0.0,0.0,0.1687,0.2672,0.3173,0.3167,0.3112,0.3145,0.3206,0.3268,0.3298,0.0,0.0,0.0,0.0,0.0,0.0,0.0,0.0,0.0,0.0,0.0,0.0,0.0,0.0,0.0,0.0,0.0,0.0,0.0,0.0,0.0,0.0,0.0,0.0,0.0,0.0,0.0,0.0,0.0,0.0,0.0,0.0,0.0,0.0,0.0,0.0,0.0,0.0,0.0,0.0,0.0,0.5096,0.5106,0.5091,0.4931,0.0,0.0,0.0,0.5058,0.4759,0.0,0.0,0.0,0.0,0.0,0.0,0.0,0.0,0.0,0.0,0.0,0.0,0.0,0.0,0.0,0.0,0.0,0.0,0.0,0.0,0.0,0.0,0.0,0.0,0.0,0.0,0.0,0.0,0.0,0.0,0.0,0.0,0.0,0.0,0.0,0.0,0.0,0.0,0.0,0.0,0.0,0.0,0.0,0.0,0.0,0.0,0.0,0.0,0.0,0.0,0.0,0.0,0.0,0.0,0.0,0.0563,0.1689,0.2737,0.3233,0.3205,0.3205,0.3223,0.3258,0.2685,0.2679,0.0,0.0,0.0,0.0,0.0,0.0,0.0,0.0,0.0,0.0,0.0,0.0,0.0,0.0,0.0,0.0,0.0,0.0,0.0,0.0,0.0,0.0,0.0,0.0,0.0,0.0,0.0,0.0,0.0,0.0,0.0,0.0,0.0,0.0,0.0,0.0,0.0,0.0,0.0,0.0,0.0,0.0,0.5092,0.5094,0.0,0.0,0.0,0.5099,0.5091,0.0,0.0,0.0,0.0,0.0,0.0,0.0,0.0,0.0,0.0,0.0,0.0,0.0,0.0,0.0,0.0,0.0,0.0,0.0,0.0,0.0,0.0,0.0,0.0,0.0,0.0,0.0,0.0,0.0,0.0,0.0,0.0,0.0,0.0,0.0,0.0,0.0,0.0,0.0,0.0,0.0,0.0,0.0,0.0,0.0,0.0,0.0,0.0,0.0,0.0,0.0,0.0,0.0,0.0,0.0,0.0,0.0,0.1678,0.2758,0.3264,0.3229,0.3262,0.3292,0.328,0.2257,0.0,0.0,0.0,0.0,0.0,0.0,0.0,0.0,0.0,0.0,0.0,0.0,0.0,0.0,0.0,0.0,0.0,0.0,0.0,0.0,0.0,0.0,0.0,0.0,0.0,0.0,0.0,0.0,0.0,0.0,0.0,0.0,0.0,0.0,0.0,0.0,0.0,0.0,0.0,0.0,0.0,0.0,0.5045,0.5022,0.5056,0.5057,0.0,0.0,0.5078,0.5058,0.4972,0.4861,0.0,0.0,0.0,0.0,0.0,0.0,0.0,0.0,0.0,0.0,0.0,0.0,0.0,0.0,0.0,0.0,0.0,0.0,0.0,0.0,0.0,0.0,0.0,0.0,0.0,0.0,0.0,0.0,0.0,0.0,0.0,0.0,0.0,0.0,0.0,0.0,0.0,0.0,0.0,0.0,0.0,0.0,0.0,0.0,0.0,0.0,0.0,0.0,0.0,0.0,0.0,0.0,0.0,0.0,0.0,0.1685,0.2748,0.3298,0.3298,0.3297,0.3297,0.3273,0.2262,0.1254,0.0,0.0,0.0,0.0,0.0,0.0,0.0,0.0,0.0,0.0,0.0,0.0,0.0,0.0,0.0,0.0,0.0,0.0,0.0,0.0,0.0,0.0,0.0,0.0,0.0,0.0,0.0,0.0,0.0,0.0,0.0,0.0,0.0,0.0,0.0,0.0,0.0,0.0,0.0,0.0,0.0,0.4886,0.4832,0.4868,0.4951,0.0,0.0,0.5001,0.5019,0.5056,0.5093,0.5091,0.0,0.0,0.0,0.0,0.0,0.0,0.0,0.0,0.0,0.0,0.0,0.0,0.0,0.0,0.0,0.0,0.0,0.0,0.0,0.0,0.0,0.0,0.0,0.0,0.0,0.0,0.0,0.0,0.0,0.0,0.0,0.0,0.0,0.0,0.0,0.0,0.0,0.0,0.0,0.0,0.0,0.0,0.0,0.0,0.0,0.0,0.0,0.0,0.0,0.0,0.0,0.0,0.0,0.0555,0.1689,0.2744,0.3298,0.3298,0.3294,0.3298,0.3298,0.291,0.185,0.0,0.0,0.0,0.0,0.0,0.0,0.0,0.0,0.0,0.0,0.0,0.0,0.0,0.0,0.0,0.0,0.0,0.0,0.0,0.0,0.0,0.0,0.0,0.0,0.0,0.0,0.0,0.0,0.0,0.0,0.0,0.0,0.0,0.0,0.0,0.0,0.0,0.0,0.0,0.0,0.0,0.5588,0.7547,0.7873,0.0,0.0,0.7948,0.8018,0.8018,0.6371,0.5097,0.5095,0.5091,0.0,0.0,0.0,0.0,0.0,0.0,0.0,0.0,0.0,0.0,0.0,0.0,0.0,0.0,0.0,0.0,0.0,0.0,0.0,0.0,0.0,0.0,0.0,0.0,0.0,0.0,0.0,0.0,0.0,0.0,0.0,0.0,0.0,0.0,0.0,0.0,0.0,0.0,0.0,0.0,0.0,0.0,0.0,0.0,0.0,0.0,0.0,0.0,0.0,0.0,0.0,0.0,0.121,0.1706,0.2751,0.3298,0.3298,0.3298,0.3298,0.3298,0.3298,0.2426,0.0,0.0,0.0,0.0,0.0,0.0,0.0,0.0,0.0,0.0,0.0,0.0,0.0,0.0,0.0,0.0,0.0,0.0,0.0,0.0,0.0,0.0,0.0,0.0,0.0,0.0,0.0,0.0,0.0,0.0,0.0,0.0,0.0,0.0,0.0,0.0,0.0,0.0,0.0,0.0,0.0,0.7095,0.9382,0.9743,0.9732,0.9667,0.9761,0.9825,0.9846,0.7146,0.5069,0.5093,0.0,0.0,0.0,0.0,0.0,0.0,0.0,0.0,0.0,0.0,0.0,0.0,0.0,0.0,0.0,0.0,0.0,0.0,0.0,0.0,0.0,0.0,0.0,0.0,0.0,0.0,0.0,0.0,0.0,0.0,0.0,0.0,0.0,0.0,0.0,0.0,0.0,0.0,0.0,0.0,0.0,0.0,0.0,0.0,0.0,0.0,0.0,0.0,0.0,0.0,0.0,0.0,0.0,0.0,0.1744,0.2773,0.3298,0.3298,0.3298,0.3298,0.3298,0.3298,0.2766,0.1651,0.0,0.0,0.0,0.0,0.0,0.0,0.0,0.0,0.0,0.0,0.0,0.0,0.0,0.0,0.0,0.0,0.0,0.0,0.0,0.0,0.0,0.0,0.0,0.0,0.0,0.0,0.0,0.0,0.0,0.0,0.0,0.0,0.0,0.0,0.0,0.0,0.0,0.0,0.0,0.9175,0.9371,0.9657,0.9698,0.9627,0.9471,0.9585,0.9706,0.971,0.7126,0.5027,0.0,0.0,0.0,0.0,0.0,0.0,0.0,0.0,0.0,0.0,0.0,0.0,0.0,0.0,0.0,0.0,0.0,0.0,0.0,0.0,0.0,0.0,0.0,0.0,0.0,0.0,0.0,0.1717,0.1737,0.0,0.0,0.0,0.0,0.0,0.0,0.0,0.0,0.0,0.0,0.0,0.3979,0.3437,0.0,0.0,0.0,0.0,0.0,0.0,0.0,0.0,0.0,0.0,0.0,0.0,0.3109,0.2812,0.3109,0.3298,0.3298,0.3298,0.3298,0.3298,0.3298,0.2436,0.0634,0.0,0.0,0.0,0.0,0.0,0.0,0.0,0.0,0.0,0.0,0.0,0.0,0.0,0.0,0.0,0.0,0.0,0.0,0.0,0.0,0.0,0.0,0.0,0.0,0.0,0.0,0.0,0.0,0.0,0.0,0.0,0.0,0.0,0.0,0.0,0.0,0.0,0.5681,0.8575,0.9097,0.9285,0.947,0.9501,0.9128,0.0,0.0,0.0,0.0,0.0,0.0,0.0,0.0,0.0,0.0,0.0,0.0,0.0,0.0,0.8478,0.8458,0.6581,0.4985,0.4954,0.0,0.0,0.0,0.0,0.0,0.0,0.0,0.0,0.0,0.0,0.0,0.0,0.0,0.0,0.0,0.0,0.3612,0.0,0.0,0.0,0.0,0.0,0.0,0.0,0.0,0.4928,0.4792,0.4296,0.4296,0.4132,0.0,0.368,0.2735,0.0,0.0,0.0,0.0,0.0,0.0,0.0,0.0,0.3298,0.3298,0.3298,0.3298,0.3298,0.3298,0.3298,0.3298,0.3332,0.2669,0.129,0.0456,0.0,0.0,0.0,0.0,0.0,0.0,0.0,0.0,0.0,0.0,0.0,0.0,0.0,0.0,0.0,0.0,0.0,0.0,0.0,0.0,0.0,0.0,0.0,0.0,0.0,0.0,0.0,0.0,0.0,0.0,0.0,0.0,0.0,0.0,0.322,0.4685,0.6526,0.8437,0.8869,0.9092,0.9276,0.0,0.0,0.0,0.0,0.0,0.0,0.0,0.922,0.7176,0.678,0.6374,0.5201,0.5063,0.5093,0.51,0.0,0.0,0.822,0.7075,0.5742,0.5188,0.5094,0.5097,0.5095,0.5895,0.6963,0.0,0.0,0.0,0.0,0.0,0.0,0.0,0.0,0.4943,0.5232,0.0,0.5428,0.0,0.0,0.0,0.0,0.0,0.0,0.0,0.0,0.5145,0.501,0.4991,0.4985,0.4979,0.4966,0.44,0.3852,0.3297,0.2873,0.0,0.0,0.0,0.0,0.0,0.0,0.3298,0.3298,0.3298,0.3298,0.3298,0.3298,0.3298,0.3298,0.3362,0.3437,0.3487,0.136,0.0,0.0,0.0,0.0,0.0,0.0,0.0,0.0,0.0,0.0,0.0,0.0,0.0,0.0,0.0,0.0,0.0,0.0,0.0,0.0,0.0,0.0,0.0,0.0,0.0,0.0,0.0,0.0,0.0,0.0,0.0,0.0,0.0,0.0,0.0736,0.4918,0.8268,0.8138,0.0,0.0,0.0,0.0,0.4546,0.4624,0.4684,0.5314,0.689,0.85,0.9694,0.9989,0.0,0.0,0.5531,0.505,0.5095,0.5097,0.5153,0.5097,0.5195,0.6433,0.6848,0.5425,0.5098,0.5097,0.5096,0.5173,0.525,0.5442,0.0,0.0,0.0,0.0,0.4332,0.4458,0.4641,0.4888,0.5125,0.5312,0.5424,0.0,0.0,0.0,0.0,0.0,0.0,0.5456,0.5214,0.5445,0.5369,0.5004,0.501,0.501,0.4998,0.4827,0.4482,0.4027,0.4013,0.3879,0.3574,0.0,0.0,0.0,0.0,0.3298,0.3298,0.3298,0.3298,0.3298,0.3298,0.3298,0.3298,0.3332,0.3349,0.3369,0.2851,0.1774,0.0,0.0,0.0,0.0,0.0,0.0,0.0,0.0,0.0,0.0,0.0,0.0,0.0,0.0,0.0,0.0,0.0,0.0,0.0,0.0,0.0,0.0,0.0,0.0,0.0,0.0,0.0,0.0,0.0,0.0,0.0,0.0,0.0,0.3208,0.6153,0.7726,0.0,0.0,0.5783,0.5798,0.505,0.4509,0.4509,0.0,0.0,0.0,0.5905,0.7137,0.9552,0.7908,0.594,0.5077,0.4976,0.5019,0.5026,0.5069,0.5099,0.5111,0.5445,0.5624,0.5193,0.5098,0.5096,0.5096,0.5093,0.5092,0.7029,0.6413,0.5538,0.5201,0.5233,0.5315,0.5443,0.5591,0.5649,0.5744,0.5893,0.5997,0.5944,0.5743,0.5452,0.0,0.0,0.0,0.5779,0.5673,0.5963,0.5938,0.5652,0.5639,0.5639,0.5632,0.5425,0.5169,0.4899,0.4792,0.4661,0.4502,0.0,0.0,0.3404,0.3526,0.3521,0.3315,0.3298,0.3298,0.3298,0.3298,0.3298,0.3298,0.3298,0.3306,0.334,0.3445,0.266,0.0798,0.0249,0.0,0.0,0.0,0.0,0.0,0.0,0.0,0.0,0.0,0.0,0.0,0.0,0.0,0.0,0.0,0.0,0.0,0.0,0.0,0.0,0.0,0.0,0.0,0.0,0.0,0.0,0.0,0.0,0.0212,0.3649,0.5679,0.4429,0.5722,0.6245,0.4656,0.4479,0.4478,0.449,0.0,0.449,0.449,0.4604,0.4706,0.4706,0.4783,0.5579,0.7541,0.6244,0.4874,0.4853,0.4901,0.4945,0.4946,0.503,0.5105,0.5091,0.5103,0.5095,0.5092,0.5095,0.5097,0.5096,0.5097,0.5098,0.8531,0.8152,0.7286,0.6882,0.6798,0.681,0.68,0.681,0.68,0.681,0.681,0.6939,0.6765,0.6319,0.5592,0.0,0.0,0.5764,0.5978,0.656,0.6598,0.659,0.659,0.6578,0.659,0.6578,0.6089,0.5845,0.5762,0.5313,0.5035,0.5004,0.4796,0.4338,0.3676,0.3988,0.3909,0.3382,0.3361,0.3357,0.3298,0.3298,0.3298,0.3298,0.3298,0.3332,0.3391,0.3391,0.2943,0.1934,0.0696,0.0,0.0,0.0,0.0,0.0,0.0,0.0,0.0,0.0,0.0,0.0,0.0,0.0,0.0,0.0,0.0,0.0,0.0,0.0,0.0315,0.0348,0.0,0.0,0.0,0.4995,0.4956,0.2222,0.0317,0.0332,0.0,0.0,0.0,0.0,0.4334,0.445,0.4485,0.4488,0.449,0.449,0.449,0.449,0.4604,0.4706,0.4708,0.4763,0.4872,0.508,0.4789,0.4789,0.4789,0.4817,0.4829,0.4874,0.5014,0.5097,0.51,0.5091,0.509,0.5094,0.5094,0.5101,0.5098,0.5093,0.5084,0.9207,0.9163,0.8921,0.8051,0.6821,0.681,0.681,0.681,0.681,0.681,0.681,0.689,0.6945,0.6977,0.6837,0.6955,0.7205,0.6865,0.6853,0.7087,0.6751,0.659,0.659,0.659,0.659,0.6586,0.6461,0.6186,0.5808,0.5669,0.5407,0.5048,0.5344,0.5222,0.4659,0.4744,0.4499,0.3912,0.3912,0.3708,0.3315,0.3298,0.3298,0.3298,0.3298,0.3302,0.3332,0.3332,0.3221,0.2914,0.1058,0.0,0.0,0.0,0.0,0.0,0.0,0.0,0.0,0.0,0.0,0.0,0.0,0.0,0.0,0.0,0.0,0.0,0.0,0.0917,0.3127,0.3306,0.0,0.0,0.4363,0.4414,0.4384,0.3678,0.3212,0.3201,0.4378,0.4937,0.4277,0.4204,0.424,0.4268,0.4405,0.4493,0.4483,0.449,0.449,0.4496,0.4564,0.4636,0.481,0.4761,0.4883,0.4789,0.4828,0.4789,0.4789,0.4789,0.4826,0.4888,0.501,0.5093,0.5097,0.5105,0.5086,0.5036,0.5063,0.5094,0.5097,0.5073,0.504,0.9977,0.9819,0.9802,0.9117,0.7993,0.8018,0.7894,0.7745,0.7731,0.7618,0.7408,0.7468,0.7573,0.7731,0.7614,0.7685,0.7888,0.761,0.7552,0.7631,0.7156,0.6953,0.694,0.6703,0.659,0.659,0.659,0.6449,0.6169,0.6156,0.6001,0.5732,0.6014,0.6014,0.5707,0.5475,0.4953,0.4102,0.3867,0.36,0.3315,0.3298,0.3298,0.3298,0.3298,0.3298,0.3298,0.2999,0.2731,0.2556,0.0945,0.0,0.0,0.0,0.0,0.0,0.0,0.0,0.0,0.0,0.0,0.0,0.0,0.0,0.0,0.0,0.0,0.0,0.1296,0.2731,0.4206,0.4332,0.4269,0.4204,0.4204,0.4204,0.4204,0.4204,0.4204,0.4204,0.4204,0.4204,0.4204,0.4204,0.4204,0.4204,0.4347,0.4463,0.448,0.449,0.449,0.4493,0.4531,0.517,0.6497,0.6912,0.6984,0.699,0.6987,0.6563,0.5086,0.4789,0.4824,0.4891,0.5011,0.5091,0.5081,0.5059,0.5055,0.5027,0.5029,0.5066,0.5095,0.5075,0.5053,1.0654,1.0293,1.0293,1.0046,0.9695,0.9668,0.9406,0.8989,0.8979,0.872,0.8309,0.828,0.8339,0.8378,0.8143,0.8164,0.8408,0.8215,0.8155,0.8172,0.7653,0.7387,0.7371,0.6849,0.659,0.659,0.659,0.659,0.659,0.659,0.659,0.659,0.659,0.659,0.6574,0.6131,0.5348,0.4225,0.3608,0.3298,0.3298,0.3298,0.3298,0.3298,0.3298,0.3298,0.3289,0.2688,0.2241,0.1919,0.0699,0.0,0.0,0.0,0.0,0.0,0.0,0.0,0.0,0.0,0.0,0.0,0.0,0.0,0.0,0.0536,0.0553,0.0535,0.3085,0.4609,0.4316,0.4278,0.4407,0.4691,0.4401,0.4204,0.4204,0.4204,0.4204,0.4204,0.4204,0.4204,0.4204,0.4204,0.4249,0.4754,0.4567,0.4431,0.4489,0.449,0.449,0.449,0.486,0.6345,0.8487,0.9368,0.9473,0.9561,0.9452,0.8703,0.608,0.5139,0.4833,0.4899,0.5013,0.5065,0.5001,0.4998,0.4999,0.4998,0.5001,0.5024,0.5093,0.5093,0.5091,1.08,1.0768,1.0776,1.0695,1.0623,1.0642,1.0159,0.9386,0.9386,0.9154,0.8771,0.8787,0.8672,0.8488,0.8588,0.8815,0.9085,0.8851,0.8763,0.8807,0.7847,0.7387,0.7369,0.6853,0.659,0.659,0.659,0.659,0.659,0.659,0.659,0.659,0.659,0.659,0.6586,0.0,0.0,0.0,0.3819,0.3298,0.3298,0.3298,0.3298,0.3298,0.3298,0.0,0.3294,0.3226,0.3197,0.3165,0.1181,0.0,0.0,0.0,0.0,0.0,0.0,0.0,0.0,0.0,0.0,0.0,0.3645,0.3488,0.3557,0.3527,0.3466,0.3424,0.396,0.4283,0.424,0.4211,0.5112,0.7159,0.5528,0.4204,0.4204,0.4233,0.4204,0.4204,0.422,0.4233,0.4325,0.4204,0.5084,0.6901,0.572,0.4529,0.448,0.449,0.449,0.4631,0.6519,0.8295,0.9116,0.9367,0.9461,0.9521,0.9615,0.9419,0.8714,0.6529,0.4973,0.4989,0.5011,0.5023,0.4998,0.4998,0.4998,0.4998,0.4998,0.5016,0.5094,0.5096,0.5101,1.0822,0.0,1.09,1.09,0.0,1.09,1.0642,1.0169,0.9943,0.9592,0.9185,0.8973,0.8898,0.889,0.8898,0.9085,0.9406,0.9403,0.9417,0.9404,0.8614,0.8112,0.7816,0.7263,0.6853,0.6611,0.659,0.659,0.659,0.659,0.659,0.659,0.659,0.659,0.659,0.659,0.6202,0.5407,0.402,0.3437,0.3675,0.3441,0.3298,0.3298,0.0,0.0,0.0,0.0,0.0,0.0,0.0,0.0,0.0,0.0,0.0,0.0,0.0,0.0557,0.1745,0.1869,0.2613,0.4291,0.4334,0.4307,0.4382,0.4338,0.4265,0.4204,0.4204,0.4204,0.4249,0.5394,0.6763,0.8046,0.7043,0.6225,0.6225,0.6225,0.6234,0.6214,0.6234,0.6229,0.6214,0.6209,0.6731,0.7903,0.6068,0.4465,0.4472,0.449,0.4929,0.6467,0.7907,0.909,0.9149,0.9199,0.9314,0.9426,0.9589,0.9717,0.9794,0.854,0.7021,0.5517,0.5011,0.4998,0.4998,0.4998,0.4998,0.4999,0.5029,0.5063,0.5088,0.5096,0.5069,1.0813,1.0871,1.09,1.09,1.09,1.09,1.09,1.086,0.0,0.0,0.0,0.9332,0.926,0.9342,0.9227,0.9302,0.9537,0.9776,0.9893,0.9868,0.9353,0.8812,0.8273,0.7678,0.7119,0.6603,0.659,0.659,0.659,0.659,0.659,0.659,0.659,0.659,0.659,0.659,0.6374,0.5921,0.4594,0.401,0.4249,0.3826,0.3597,0.3592,0.3529,0.3479,0.3441,0.3412,0.3438,0.3526,0.3577,0.3675,0.3727,0.1802,0.0664,0.0672,0.0665,0.1606,0.3643,0.3811,0.388,0.4087,0.427,0.4386,0.4409,0.435,0.4478,0.4897,0.4918,0.4957,0.4937,0.6911,0.8302,0.8302,0.8302,0.8277,0.8277,0.8302,0.8166,0.8302,0.8166,0.8286,0.8176,0.8166,0.8302,0.8059,0.6655,0.5197,0.5297,0.5539,0.6374,0.8374,0.8971,0.9092,0.9118,0.9154,0.9209,0.9408,0.9581,0.9721,0.9815,0.9945,0.8911,0.6643,0.5565,0.5208,0.5361,0.5246,0.5036,0.4998,0.5037,0.5092,0.5084,0.5086,0.5044,1.0708,1.0822,1.0822,1.0841,1.09,1.09,1.09,1.09,1.0819,1.0604,1.0295,1.0263,0.9993,0.9575,0.9767,0.9755,0.9604,0.9802,0.9893,0.0,0.9353,0.8812,0.8275,0.7678,0.7128,0.6624,0.659,0.659,0.659,0.659,0.659,0.659,0.659,0.659,0.659,0.659,0.657,0.6474,0.6248,0.5725,0.4909,0.4789,0.4764,0.4751,0.4413,0.4159,0.3997,0.3612,0.3454,0.3578,0.3654,0.3726,0.3774,0.3436,0.3261,0.3261,0.3261,0.3439,0.3774,0.3811,0.3888,0.4115,0.4748,0.4951,0.4457,0.434,0.5243,0.7387,0.7587,0.7707,0.7755,0.804,0.8302,0.8302,0.8302,0.8302,0.8302,0.8302,0.8302,0.8302,0.8302,0.8302,0.8302,0.8302,0.8302,0.8294,0.7899,0.8025,0.8109,0.8447,0.8598,0.8983,0.9087,0.9128,0.9199,0.9292,0.9385,0.9474,0.9601,0.9725,0.9783,0.9866,0.9656,0.9281,0.7067,0.5989,0.6817,0.5934,0.5343,0.5171,0.5026,0.5026,0.5027,0.5022,0.5036,1.0746,1.0803,1.0822,1.0871,1.09,1.09,1.0949,1.1006,1.1044,1.0975,1.0809,1.0705,1.0454,1.0106,1.0141,0.9968,0.9658,0.9828,0.9893,0.988,0.9642,0.9089,0.8336,0.8012,0.7438,0.6637,0.659,0.659,0.659,0.659,0.659,0.659,0.659,0.659,0.659,0.659,0.659,0.659,0.659,0.624,0.5463,0.5727,0.5601,0.5036,0.4614,0.4309,0.4095,0.365,0.3446,0.3555,0.3638,0.3722,0.3788,0.3811,0.3811,0.3811,0.3811,0.3811,0.3811,0.3811,0.3833,0.395,0.4647,0.5411,0.6086,0.5643,0.6139,0.7975,0.824,0.8302,0.8302,0.8302,0.8302,0.8302,0.8302,0.8302,0.8302,0.8302,0.8302,0.8302,0.8302,0.8302,0.8302,0.8302,0.8302,0.8348,0.8636,0.8958,0.9066,0.9087,0.9087,0.9087,0.9092,0.9171,0.9282,0.9448,0.9564,0.9613,0.9649,0.9713,0.9729,0.9772,0.981,0.986,0.8573,0.8207,0.883,0.8352,0.7147,0.519,0.4998,0.4998,0.4998,0.4998,0.5029,1.0876,1.0793,1.0852,1.09,1.09,1.09,1.0987,1.112,1.1223,1.1325,1.1364,1.1175,1.09,1.0598,1.054,1.0241,0.9773,0.9841,0.9893,0.9893,0.9893,0.9378,0.8526,0.835,0.7761,0.6862,0.6662,0.659,0.659,0.659,0.659,0.659,0.659,0.659,0.659,0.659,0.659,0.659,0.659,0.6407,0.6006,0.6394,0.621,0.5412,0.5059,0.4708,0.4306,0.3721,0.3408,0.3479,0.3594,0.3687,0.3784,0.381,0.3811,0.3811,0.3811,0.3811,0.3821,0.4087,0.4093,0.3839,0.4745,0.5964,0.7301,0.6946,0.6899,0.7828,0.8108,0.8229,0.8296,0.8302,0.8302,0.8302,0.8302,0.8302,0.8302,0.8302,0.8302,0.8302,0.8302,0.8302,0.8302,0.8302,0.8335,0.8457,0.8801,0.9071,0.9087,0.9087,0.9087,0.9087,0.9087,0.9154,0.933,0.9497,0.9601,0.9645,0.9665,0.9698,0.9706,0.9702,0.9728,0.9793,0.9933,0.9801,0.9982,0.9977,0.8947,0.6935,0.5823,0.4998,0.4998,0.5024,0.549,1.1133,1.0824,1.0803,1.0841,1.09,1.09,1.1025,1.1204,1.1407,1.1693,1.1963,1.1984,1.156,1.0959,1.1082,1.0683,0.9813,0.9867,0.9893,0.9893,0.9893,0.9591,0.8988,0.8537,0.7974,0.7316,0.6853,0.6637,0.659,0.659,0.659,0.659,0.659,0.659,0.659,0.659,0.659,0.659,0.659,0.6565,0.6536,0.6574,0.6557,0.6474,0.6403,0.5931,0.4909,0.3892,0.334,0.3399,0.3479,0.3602,0.3771,0.3803,0.3811,0.3811,0.3811,0.3811,0.3872,0.4877,0.4973,0.406,0.5513,0.6748,0.7496,0.7511,0.7482,0.7717,0.7855,0.8059,0.8269,0.8302,0.8302,0.8302,0.8302,0.8302,0.8302,0.8302,0.8302,0.8302,0.8302,0.8302,0.8302,0.8302,0.8393,0.8589,0.8863,0.9071,0.9071,0.9104,0.9087,0.9087,0.9087,0.9133,0.9221,0.9334,0.9435,0.9504,0.9625,0.9687,0.9698,0.9702,0.9717,0.978,1.0229,1.0398,1.0033,1.0054,1.0001,0.8987,0.7187,0.5193,0.506,0.5094,0.5994,1.1388,1.1133,1.0935,1.0881,1.09,1.09,1.1052,1.1317,1.1593,1.1902,1.2294,1.249,1.2044,1.1164,1.1378,1.0874,0.9904,0.9893,0.9893,0.9893,0.9893,0.9629,0.9113,0.8888,0.8311,0.7456,0.7156,0.689,0.664,0.659,0.659,0.659,0.659,0.659,0.659,0.659,0.659,0.659,0.659,0.659,0.659,0.659,0.659,0.659,0.659,0.6101,0.5042,0.396,0.3374,0.3399,0.35,0.3566,0.361,0.3722,0.381,0.3821,0.3811,0.3811,0.3814,0.4296,0.4998,0.5933,0.6357,0.6861,0.7511,0.7672,0.7797,0.7982,0.8085,0.8174,0.8289,0.8302,0.8302,0.8302,0.8302,0.8302,0.8302,0.8302,0.8302,0.8302,0.8302,0.8302,0.8302,0.8302,0.8396,0.8567,0.8795,0.8969,0.8985,0.9039,0.9087,0.9087,0.9087,0.912,0.9143,0.9169,0.9273,0.9417,0.9589,0.9698,0.9698,0.9698,0.971,0.9729,1.1245,1.1454,1.0076,1.0073,1.0077,0.9716,0.9642,0.8002,0.8003,0.6435,0.619,1.1634,1.1398,1.1067,1.09,1.09,1.09,1.112,1.1456,1.1748,1.2113,1.2502,1.2826,1.2477,1.1678,1.1618,1.0973,0.9993,0.9893,0.9893,0.9893,0.9893,0.9692,0.9327,0.9151,0.8674,0.7939,0.7531,0.7128,0.6653,0.659,0.659,0.659,0.659,0.659,0.659,0.659,0.659,0.659,0.659,0.659,0.659,0.6616,0.6616,0.659,0.659,0.6156,0.5249,0.4353,0.3881,0.3905,0.4005,0.3876,0.3531,0.3666,0.3768,0.3872,0.4494,0.4514,0.3898,0.445,0.5626,0.7294,0.7088,0.7056,0.7533,0.7717,0.7912,0.8243,0.8302,0.8296,0.8302,0.8302,0.8302,0.8302,0.8302,0.8302,0.8302,0.8302,0.8302,0.8302,0.8302,0.8302,0.8302,0.8309,0.8354,0.8454,0.8612,0.8778,0.8841,0.8974,0.9087,0.9087,0.9087,0.9092,0.9087,0.9102,0.9196,0.9375,0.9582,0.9698,0.9698,0.9698,0.9698,1.003,1.2687,1.3085,1.0551,0.9964,1.0061,1.0061,0.9988,0.9903,0.965,0.7806,0.6883,1.1996,1.155,1.1106,1.0919,1.09,1.0919,1.1126,1.1545,1.1932,1.2323,1.2692,1.303,1.2872,1.2284,1.1814,1.0973,1.0005,0.9905,0.9893,0.9893,0.9893,0.988,0.983,0.9353,0.9075,0.88,0.7964,0.7216,0.6665,0.659,0.659,0.659,0.659,0.659,0.659,0.659,0.659,0.659,0.659,0.659,0.6599,0.6668,0.6668,0.6625,0.659,0.6327,0.5772,0.5285,0.5034,0.5107,0.512,0.47,0.3703,0.367,0.3848,0.4124,0.607,0.6316,0.4597,0.5916,0.7301,0.7554,0.7526,0.7629,0.7833,0.7753,0.7855,0.826,0.8302,0.8302,0.8302,0.8302,0.8302,0.8302,0.8302,0.8302,0.8302,0.8302,0.8302,0.846,0.8435,0.8331,0.8309,0.8302,0.8335,0.8354,0.8351,0.8469,0.873,0.8942,0.9066,0.9087,0.9087,0.9087,0.9087,0.9087,0.9201,0.938,0.9548,0.9694,0.9698,0.9698,0.9698,1.0172,1.2168,1.2376,1.0542,0.9796,0.9906,0.9982,1.0034,1.0051,1.0086,1.0092,0.9325,1.2658,1.1991,1.1488,1.1295,1.1284,1.1284,1.1479,1.1763,1.215,1.2455,1.2768,1.3077,1.2914,1.2379,1.1854,1.1161,1.0419,1.0069,0.9893,0.9893,0.9893,0.9893,0.988,0.9679,0.9415,0.9075,0.8674,0.7989,0.7131,0.6778,0.659,0.659,0.659,0.659,0.659,0.659,0.659,0.659,0.659,0.659,0.6599,0.6676,0.6715,0.6774,0.6659,0.6369,0.5868,0.6146,0.6012,0.5295,0.5371,0.5245,0.4925,0.5669,0.618,0.631,0.7084,0.7192,0.6411,0.6303,0.6766,0.7518,0.7717,0.7884,0.8046,0.7941,0.7933,0.8207,0.8302,0.8302,0.8302,0.8302,0.8302,0.8302,0.8302,0.8302,0.8302,0.8334,0.8935,1.0223,0.956,0.8351,0.8419,0.8488,0.8561,0.8561,0.8554,0.8646,0.88,0.8985,0.9087,0.9087,0.9087,0.9087,0.9087,0.9087,0.9164,0.9362,0.9543,0.9637,0.9691,0.9694,0.9698,0.9698,1.1452,1.1498,0.9729,0.9768,0.9856,0.9936,0.999,1.0025,1.0076,1.009,1.0094,1.3274,1.2499,1.2098,1.1845,1.1693,1.17,1.1818,1.2084,1.2336,1.2597,1.2838,1.3094,1.2985,1.2613,1.2102,1.1538,1.0946,1.0257,0.9893,0.9893,0.9893,0.9893,0.9893,0.9893,0.9705,0.9327,0.8975,0.8334,0.747,0.6898,0.6646,0.6646,0.6642,0.6625,0.6608,0.6633,0.6646,0.6633,0.6633,0.6646,0.6651,0.6723,0.6829,0.6903,0.6858,0.6664,0.6305,0.6801,0.6782,0.6119,0.6075,0.6154,0.6276,0.7085,0.759,0.759,0.759,0.759,0.7518,0.6781,0.6708,0.7496,0.779,0.8019,0.8249,0.8121,0.8142,0.8263,0.8302,0.8302,0.8302,0.8302,0.8302,0.8302,0.8302,0.8302,0.8365,0.9156,1.0492,1.1526,0.9931,0.8636,0.8536,0.8683,0.8771,0.8812,0.8823,0.8875,0.8964,0.9034,0.9087,0.9087,0.9087,0.9087,0.9087,0.9087,0.9128,0.9306,0.9439,0.9552,0.9645,0.9675,0.9698,0.9698,0.9698,0.9698,0.9717,0.9751,0.9825,0.9897,0.9923,0.9974,1.003,1.0092,1.0094,1.3815,1.3004,1.29,1.2558,1.2148,1.2095,1.2222,1.2401,1.2549,1.272,1.2925,1.3112,1.3173,1.3048,1.2551,1.2065,1.1414,1.0445,0.993,0.9905,0.9893,0.9893,0.9893,0.9893,0.9893,0.9767,0.8835,0.8135,0.7681,0.7109,0.6799,0.674,0.6723,0.6659,0.659,0.6659,0.6689,0.6719,0.6706,0.6698,0.6727,0.6849,0.6952,0.7039,0.7158,0.7185,0.7074,0.7217,0.7262,0.7284,0.7352,0.7492,0.7416,0.7569,0.759,0.759,0.759,0.759,0.759,0.7525,0.7402,0.7635,0.7768,0.8012,0.8243,0.826,0.826,0.8286,0.8302,0.8302,0.8302,0.8302,0.8302,0.8302,0.8302,0.8302,0.8768,1.0769,1.2467,1.2183,1.0295,0.8659,0.8651,0.8794,0.8908,0.9002,0.9046,0.9056,0.9055,0.9099,0.9087,0.9087,0.9087,0.9087,0.9087,0.9097,0.9149,0.9219,0.9301,0.9421,0.9539,0.9589,0.9683,0.9698,0.9725,0.9728,0.9714,0.975,0.9803,0.986,0.9888,0.9938,1.0006,1.0074,1.0092,1.4458,1.3773,1.3455,1.2996,1.2556,1.252,1.2591,1.268,1.2773,1.2908,1.3042,1.3146,1.321,1.3085,1.2622,1.2115,1.155,1.0809,1.0256,0.9955,0.9893,0.9893,0.9893,0.9893,0.9893,0.978,0.9249,0.8907,0.8684,0.7849,0.7403,0.7383,0.6937,0.6668,0.6608,0.6664,0.674,0.6846,0.6841,0.6883,0.6969,0.7058,0.7155,0.7272,0.7294,0.7334,0.7438,0.7476,0.7483,0.7459,0.7527,0.758,0.7597,0.759,0.759,0.759,0.759,0.759,0.759,0.759,0.759,0.7642,0.7783,0.8019,0.8256,0.8302,0.8302,0.8302,0.8302,0.8302,0.8302,0.8302,0.835,0.8318,0.8302,0.835,0.8808,1.0824,1.2262,1.2451,1.1709,1.0534,0.9113,0.8819,0.9133,0.9162,0.9143,0.9093,0.919,0.9432,0.9087,0.9087,0.9087,0.9242,0.9087,0.9102,0.9149,0.9209,0.9277,0.9366,0.9452,0.9577,0.9667,0.9809,0.9817,0.9813,0.9799,0.9765,0.9795,0.9844,0.9888,0.9938,1.0013,1.0048,1.0083,1.5278,1.4707,1.4232,1.3705,1.3202,1.3001,1.2903,1.2943,1.2995,1.306,1.3146,1.3181,1.321,1.3152,1.2839,1.2388,1.1864,1.1284,1.0733,1.0219,0.9956,0.9893,0.9893,0.9893,0.9893,0.9818,0.9449,0.9324,0.9431,0.8384,0.7829,0.7733,0.7136,0.6736,0.6676,0.6732,0.6841,0.6919,0.6977,0.7072,0.7177,0.7235,0.7343,0.7413,0.7396,0.7459,0.7597,0.759,0.7582,0.7551,0.7588,0.7596,0.759,0.759,0.759,0.759,0.759,0.759,0.759,0.759,0.759,0.7635,0.7724,0.7891,0.8101,0.8223,0.8302,0.8302,0.8302,0.8302,0.8302,0.8302,0.8697,0.982,0.8894,0.8871,0.9725,1.1377,1.2362,1.2499,1.2404,1.1587,1.0567,1.0096,1.0321,1.0359,0.9627,0.9841,1.0238,1.0866,1.071,1.071,1.1101,1.0618,0.9294,0.9113,0.9143,0.9214,0.9282,0.9362,0.9452,0.9597,0.9706,1.0116,1.0239,1.0283,1.0269,0.9894,0.9774,0.9831,1.0176,0.9941,0.9995,1.0044,1.0061,1.6174,1.5655,1.511,1.4513,1.3979,1.3423,1.3176,1.3181,1.3181,1.3181,1.3198,1.321,1.321,1.321,1.3123,1.281,1.2366,1.1779,1.1186,1.0634,1.0168,0.9893,0.9893,0.9893,0.9893,0.983,0.9563,0.9498,0.9642,0.8681,0.8056,0.8217,0.753,0.694,0.6928,0.6905,0.696,0.7042,0.7155,0.7262,0.7332,0.7389,0.7437,0.7496,0.7498,0.7544,0.7583,0.7605,0.7598,0.759,0.7597,0.7605,0.759,0.759,0.759,0.759,0.759,0.759,0.759,0.7635,0.7627,0.7598,0.7627,0.7687,0.7934,0.8114,0.8382,0.8643,0.8824,0.8824,0.884,0.8887,0.9955,1.1589,1.0318,1.0121,1.2009,1.2451,1.2499,1.2514,1.2514,1.2435,1.2139,1.2158,1.2378,1.2313,1.0898,1.1185,1.2188,1.2811,1.3346,1.3225,1.2707,1.212,1.0866,1.0751,1.0841,1.1063,1.0766,1.037,0.9843,0.9749,0.9725,1.0139,1.0907,1.0877,1.0956,1.0873,1.0851,1.1198,1.1031,1.0311,1.0083,1.0236,1.0149,1.6174,1.5643,1.5123,1.4601,1.4047,1.3453,1.321,1.321,1.321,1.321,1.321,1.321,1.321,1.321,1.3198,1.2897,1.24,1.1839,1.1274,1.0695,1.0157,0.9905,0.9893,0.9893,0.9893,0.9881,0.9881,1.0077,1.03,0.957,0.9381,0.9642,0.8383,0.7782,0.7721,0.7302,0.7201,0.7282,0.7373,0.7443,0.7498,0.7529,0.7545,0.7567,0.756,0.7575,0.759,0.7657,0.765,0.759,0.759,0.759,0.759,0.759,0.759,0.759,0.759,0.759,0.7605,0.7679,0.7709,0.762,0.7627,0.7717,0.7949,0.7992,0.8617,0.9609,1.0682,1.1307,1.1329,1.1266,1.1826,1.2189,1.1573,1.1487,1.2246,1.2514,1.2514,1.2514,1.2514,1.2514,1.2514,1.2534,1.2671,1.2865,1.2653,1.2284,1.3304,1.3605,1.3605,1.3605,1.3294,1.3087,1.2759,1.2621,1.2725,1.3123,1.28,1.2076,1.1091,1.0042,0.9902,0.9894,1.1574,1.2047,1.2515,1.2757,1.2812,1.2604,1.1667,1.0881,1.0728,1.0742,1.0439,1.6333,1.5969,1.5211,1.4727,1.4337,1.3541,1.321,1.321,1.321,1.321,1.321,1.321,1.321,1.321,1.321,1.3052,1.2663,1.1939,1.1412,1.1008,1.0282,0.9918,0.9893,0.9893,0.9893,0.9918,1.0046,1.0298,1.0511,1.0119,1.0051,0.9947,0.894,0.8247,0.8075,0.7585,0.7343,0.7421,0.7496,0.7557,0.7605,0.759,0.759,0.759,0.759,0.759,0.7598,0.7657,0.7679,0.7642,0.7627,0.759,0.759,0.759,0.759,0.759,0.759,0.759,0.7605,0.7672,0.7717,0.7717,0.7739,0.8184,0.8598,0.849,0.8753,1.0109,1.1631,1.2362,1.2514,1.2514,1.2514,1.2499,1.2514,1.2514,1.2514,1.2514,1.2514,1.2514,1.2514,1.2514,1.2514,1.2514,1.2703,1.3022,1.3336,1.3294,1.3605,1.3605,1.3605,1.3605,1.3605,1.3398,1.3294,1.3173,1.3259,1.3776,1.392,1.3345,1.261,1.124,1.1547,1.1864,1.272,1.329,1.3648,1.3945,1.3908,1.3388,1.233,1.1814,1.1729,1.1868,1.1461,1.6513,1.64,1.5349,1.4884,1.4695,1.3704,1.321,1.321,1.321,1.321,1.321,1.321,1.321,1.321,1.321,1.3198,1.3115,1.2065,1.1512,1.1025,1.0397,0.9918,0.9918,0.9918,0.9893,0.9919,1.0046,1.0323,1.0512,1.0233,1.0203,1.0211,0.9313,0.8672,0.8565,0.7949,0.7608,0.7669,0.7622,0.7596,0.7612,0.7605,0.7627,0.7627,0.7627,0.7598,0.7627,0.7679,0.7717,0.7694,0.765,0.7642,0.7635,0.7627,0.759,0.759,0.759,0.759,0.7605,0.765,0.7753,0.7914,0.8115,0.882,0.9895,0.9711,0.9491,1.0194,1.1603,1.2378,1.2514,1.2514,1.2514,1.2514,1.2514,1.2514,1.2514,1.2514,1.2514,1.2514,1.2514,1.2514,1.2514,1.2544,1.262,1.2922,1.3278,1.3487,1.3559,1.3573,1.3589,1.3605,1.3605,1.3605,1.357,1.3553,1.3731,1.4028,1.4259,1.4095,1.4127,1.3534,1.403,1.4384,1.3966,1.3974,1.4335,1.4539,1.4576,1.4428,1.3555,1.3202,1.3031,1.3374,1.3277,1.6513,1.6412,1.5329,1.4884,1.4708,1.3704,1.321,1.321,1.321,1.321,1.321,1.321,1.321,1.321,1.321,1.321,1.306,1.209,1.1173,1.0258,1.0147,0.997,0.997,0.9944,0.9906,0.9944,1.0046,1.0323,1.0565,1.0711,1.0865,1.1027,1.0349,1.0008,0.9787,0.8775,0.835,0.8263,0.7871,0.7611,0.762,0.7665,0.7679,0.7679,0.7672,0.765,0.7635,0.7717,0.7753,0.7724,0.7731,0.7739,0.7724,0.765,0.759,0.759,0.759,0.759,0.7671,0.7894,0.7956,0.8242,0.925,1.0432,1.1872,1.1711,1.1068,1.0945,1.1633,1.2471,1.2514,1.2514,1.2514,1.2514,1.2514,1.2514,1.2514,1.2514,1.2514,1.2514,1.2514,1.2514,1.2514,1.2514,1.2646,1.2876,1.3112,1.3388,1.3487,1.3517,1.3573,1.3605,1.3605,1.3605,1.362,1.3661,1.3828,1.4054,1.4293,1.454,1.4585,1.4607,1.4624,1.4591,1.4485,1.4609,1.4696,1.4706,1.4651,1.4688,1.4706,1.4261,1.4056,1.4576,1.4688,1.6513,1.6409,1.5349,1.4884,1.4708,1.3704,1.321,1.321,1.321,1.321,1.321,1.321,1.321,1.321,1.321,1.321,1.2964,1.2074,1.0985,1.0157,0.9957,1.0046,1.016,1.0122,1.0097,1.0046,1.0173,1.0436,1.0705,1.0934,1.1141,1.1423,1.0857,1.0434,1.0314,0.9275,0.8639,0.8449,0.7984,0.7642,0.7605,0.7694,0.7746,0.7739,0.7717,0.7694,0.7702,0.7761,0.7775,0.7761,0.779,0.7805,0.7783,0.7694,0.7612,0.759,0.759,0.759,0.7745,0.9022,0.9592,0.8454,1.0192,1.1583,1.2469,1.2649,1.2301,1.1787,1.2091,1.2616,1.2534,1.2514,1.2514,1.2514,1.2514,1.2514,1.2514,1.2514,1.2514,1.2514,1.2514,1.2514,1.2514,1.2554,1.2548,1.2735,1.2751,1.3004,1.3354,1.3412,1.3557,1.3605,1.3605,1.3613,1.3628,1.3708,1.3831,1.4019,1.421,1.4453,1.4624,1.4635,1.4645,1.4596,1.4557,1.4613,1.4683,1.4701,1.4706,1.4706,1.4706,1.4706,1.4706,1.4706,1.4706,1.6513,1.6421,1.5329,1.4884,1.472,1.3692,1.321,1.321,1.321,1.321,1.321,1.321,1.3215,1.3232,1.3262,1.3182,1.2722,1.2121,1.103,1.0071,1.0072,1.0173,1.0311,1.0386,1.0399,1.0261,1.0386,1.062,1.0837,1.1027,1.125,1.1379,1.1024,1.0805,1.0442,0.9622,0.9096,0.9075,0.8551,0.7928,0.7839,0.7967,0.8227,0.8124,0.8226,0.8336,0.8382,0.8354,0.819,0.8071,0.7923,0.7798,0.7739,0.7679,0.7635,0.7642,0.7642,0.8003,0.8977,1.0604,1.1335,0.9189,1.1139,1.2549,1.2776,1.2757,1.2626,1.2597,1.2687,1.2747,1.2587,1.2524,1.2514,1.2514,1.2514,1.2514,1.2514,1.2514,1.2514,1.2514,1.2514,1.2524,1.2603,1.2662,1.2607,1.2587,1.2597,1.2713,1.3085,1.3354,1.3535,1.3605,1.3605,1.3605,1.362,1.3748,1.3871,1.3966,1.4148,1.4344,1.4561,1.4607,1.4596,1.4613,1.4631,1.4656,1.4683,1.4706,1.4706,1.4706,1.4706,1.4706,1.4706,1.4706,1.4706,1.6513,1.6412,1.5329,1.4884,1.472,1.3679,1.321,1.321,1.321,1.321,1.321,1.321,1.3267,1.3352,1.3357,1.292,1.236,1.1878,1.1225,1.0341,1.0287,1.0399,1.0522,1.0668,1.0741,1.0753,1.0777,1.0873,1.1017,1.1143,1.1342,1.1493,1.1424,1.1348,1.1149,1.0711,1.0157,0.999,0.9469,0.8762,0.8314,0.8894,0.9272,0.9035,0.9121,0.9416,0.9683,0.9597,0.9446,0.9307,0.8407,0.7923,0.7907,0.7832,0.8011,0.8138,0.8144,0.8829,1.0446,1.1771,1.2479,1.2248,1.2491,1.2736,1.2785,1.2785,1.2747,1.2801,1.2867,1.294,1.2782,1.2597,1.2524,1.2514,1.2767,1.2815,1.2783,1.2593,1.2566,1.2538,1.2528,1.2577,1.2723,1.2867,1.2951,1.297,1.2979,1.3058,1.3286,1.3453,1.3583,1.3605,1.3605,1.3605,1.3605,1.3756,1.3878,1.3915,1.4058,1.4183,1.4381,1.4482,1.4522,1.4602,1.4659,1.4691,1.4706,1.4706,1.4706,1.4706,1.4706,1.4706,1.4706,1.4706,1.4706,1.6513,1.6375,1.5349,1.4884,1.4695,1.3679,1.321,1.321,1.321,1.321,1.321,1.3215,1.3271,1.3408,1.3514,1.3158,1.2705,1.2246,1.1693,1.1029,1.0732,1.0681,1.0789,1.0944,1.1108,1.1201,1.1224,1.1155,1.1155,1.1282,1.1444,1.1545,1.1601,1.1593,1.1457,1.0967,1.0775,1.0579,1.0091,0.9502,0.8975,1.0103,1.0419,1.006,0.9842,1.0032,1.0295,1.0023,0.98,0.968,0.9259,0.8942,0.9,0.9471,0.9967,0.9999,0.9955,1.0335,1.1666,1.2467,1.2708,1.2753,1.2738,1.2738,1.2766,1.2785,1.2794,1.2829,1.2857,1.2913,1.2811,1.261,1.2534,1.2773,1.3626,1.4415,1.4261,1.331,1.3002,1.2882,1.2853,1.2945,1.2959,1.3129,1.3303,1.3362,1.3346,1.3404,1.3495,1.3543,1.3605,1.3605,1.3605,1.3638,1.3661,1.3778,1.3888,1.3918,1.3962,1.4082,1.4196,1.4319,1.4493,1.4645,1.4696,1.4706,1.4706,1.4706,1.4706,1.4706,1.4706,1.4706,1.4706,1.4706,1.4706,1.6513,1.6412,1.5462,1.4997,1.4752,1.384,1.335,1.3279,1.325,1.3279,1.3267,1.3254,1.334,1.3514,1.37,1.3683,1.3426,1.2906,1.2375,1.1664,1.1303,1.1136,1.1099,1.1213,1.1342,1.1478,1.1511,1.1489,1.1362,1.1429,1.153,1.1597,1.1615,1.1637,1.1515,1.1241,1.0964,1.0767,1.0485,1.0192,1.045,1.1121,1.1506,1.0832,1.0404,1.0454,1.0778,1.0574,1.0409,1.0394,1.0309,1.0279,1.0496,1.149,1.2215,1.2359,1.2379,1.2379,1.2463,1.2639,1.2876,1.2841,1.2726,1.2709,1.2763,1.2811,1.2857,1.2804,1.2754,1.2745,1.2687,1.2581,1.292,1.3847,1.5283,1.642,1.5808,1.5062,1.4309,1.4009,1.3583,1.3477,1.3654,1.3303,1.347,1.3535,1.3527,1.3527,1.3583,1.3575,1.3605,1.3605,1.363,1.3653,1.37,1.3793,1.3863,1.3903,1.3911,1.3966,1.4072,1.4168,1.4387,1.464,1.4701,1.4706,1.4706,1.4706,1.4706,1.4706,1.4706,1.4706,1.4706,1.4706,1.4706,1.6513,1.6437,1.5844,1.5376,1.4942,1.4328,1.3841,1.3493,1.3433,1.3408,1.3446,1.3412,1.3543,1.3891,1.4189,1.4073,1.3783,1.3538,1.3011,1.2231,1.1892,1.1587,1.1289,1.133,1.1433,1.1578,1.159,1.1601,1.1553,1.156,1.1615,1.167,1.1681,1.1703,1.1732,1.1583,1.1694,1.1623,1.154,1.148,1.1495,1.1685,1.1681,1.1606,1.1491,1.142,1.1461,1.1356,1.1371,1.1431,1.1501,1.1561,1.1668,1.1917,1.2483,1.2827,1.3002,1.2993,1.2948,1.2984,1.3002,1.2906,1.2839,1.2728,1.2754,1.2885,1.2959,1.2794,1.2668,1.2607,1.2648,1.2697,1.3763,1.4975,1.62,1.6662,1.6412,1.626,1.5581,1.6039,1.5881,1.499,1.4598,1.4029,1.3597,1.3669,1.37,1.3692,1.3669,1.3646,1.3605,1.3605,1.3677,1.3733,1.3748,1.3848,1.3888,1.3896,1.3896,1.3903,1.398,1.4127,1.4405,1.4596,1.4664,1.4706,1.4706,1.4706,1.4706,1.4706,1.4706,1.4706,1.4706,1.4706,1.4706,1.6513,1.645,1.5919,1.5628,1.5412,1.4741,1.4304,1.4028,1.3706,1.3564,1.3564,1.3564,1.3865,1.4335,1.4624,1.4669,1.4524,1.4226,1.3813,1.3074,1.2613,1.2123,1.1871,1.1609,1.1511,1.1564,1.1608,1.1663,1.167,1.167,1.1696,1.1703,1.1725,1.1747,1.1816,1.1816,1.1801,1.1786,1.1786,1.1801,1.1816,1.1816,1.1816,1.1816,1.1816,1.1816,1.1816,1.1816,1.1816,1.1816,1.1816,1.1816,1.1859,1.2075,1.2469,1.3012,1.3084,1.3075,1.3075,1.3093,1.3057,1.3039,1.2984,1.2904,1.2829,1.3037,1.3136,1.282,1.2726,1.2748,1.3261,1.4218,1.5438,1.6517,1.6857,1.6873,1.6885,1.6914,1.6853,1.7551,1.7992,1.6874,1.6037,1.5948,1.5003,1.3763,1.3786,1.3786,1.3748,1.3677,1.3646,1.3605,1.3717,1.3826,1.3834,1.3888,1.3911,1.3918,1.3918,1.3933,1.3959,1.4109,1.4399,1.4591,1.4685,1.4706,1.4706,1.4706,1.4706,1.4706,1.4706,1.4706,1.4706,1.4706,1.4712,1.6513,1.645,1.607,1.5913,1.5911,1.5302,1.4982,1.4776,1.4437,1.4166,1.3999,1.401,1.4292,1.4747,1.492,1.5043,1.521,1.4776,1.4471,1.3978,1.3398,1.2762,1.2328,1.1928,1.1706,1.1604,1.1637,1.1692,1.1762,1.1772,1.1725,1.1736,1.1757,1.1794,1.1805,1.1816,1.1816,1.1816,1.1816,1.1816,1.1816,1.1816,1.1816,1.1816,1.1816,1.1816,1.1816,1.1816,1.1816,1.1816,1.1816,1.1816,1.1848,1.2065,1.2399,1.2817,1.2938,1.303,1.3066,1.3093,1.3093,1.3159,1.3323,1.3364,1.3088,1.3392,1.4189,1.4378,1.4319,1.4227,1.4412,1.6066,1.6636,1.7016,1.7179,1.7195,1.7183,1.7183,1.7289,1.7692,1.8089,1.8375,1.7838,1.8012,1.682,1.4506,1.3888,1.3976,1.4141,1.4305,1.4297,1.4368,1.3955,1.4056,1.3994,1.3998,1.4003,1.4012,1.4012,1.4034,1.4082,1.4216,1.4441,1.4591,1.4696,1.4706,1.4706,1.4706,1.4706,1.4706,1.4706,1.4706,1.4706,1.4781,1.486,1.6513,1.6509,1.6471,1.6288,1.6048,1.6271,1.6102,1.5713,1.5634,1.5353,1.4962,1.4754,1.4671,1.492,1.5087,1.5208,1.5283,1.524,1.4877,1.45,1.4123,1.3481,1.2912,1.2468,1.2121,1.1748,1.1689,1.1725,1.1794,1.1805,1.1794,1.182,1.1805,1.1816,1.1816,1.1816,1.1816,1.1816,1.1816,1.1816,1.1816,1.1816,1.1816,1.1816,1.1816,1.1816,1.1816,1.1816,1.1816,1.1816,1.1816,1.1816,1.1859,1.2012,1.2282,1.2463,1.2687,1.2848,1.3021,1.3093,1.3093,1.3306,1.3651,1.4005,1.3962,1.5846,1.6767,1.6579,1.6243,1.6535,1.6805,1.7363,1.7386,1.7378,1.7366,1.7366,1.7366,1.7391,1.7517,1.7794,1.8078,1.8345,1.8495,1.8406,1.7922,1.5747,1.5264,1.5352,1.5633,1.5766,1.5573,1.5337,1.4557,1.4324,1.4217,1.4188,1.416,1.4234,1.4268,1.4274,1.43,1.4435,1.4557,1.4607,1.4706,1.4706,1.4762,1.4892,1.4911,1.4762,1.4706,1.4706,1.5152,1.5542,1.5505,1.6735,1.6735,1.6748,1.6676,1.6537,1.6692,1.6684,1.6523,1.6395,1.6014,1.5483,1.5057,1.4934,1.5118,1.5193,1.5298,1.5358,1.5373,1.5184,1.4964,1.4598,1.4186,1.3611,1.2981,1.2444,1.2207,1.197,1.1751,1.1805,1.1876,1.1816,1.1816,1.1816,1.1816,1.1816,1.1846,1.1861,1.1831,1.1831,1.1816,1.1816,1.1816,1.1816,1.1816,1.1816,1.1816,1.1816,1.1816,1.1816,1.1816,1.1831,1.1846,1.1816,1.1923,1.1997,1.2112,1.2327,1.2668,1.3054,1.3126,1.3093,1.3242,1.3835,1.4645,1.5205,1.6254,1.6757,1.7006,1.7486,1.7486,1.747,1.7453,1.7474,1.7486,1.7486,1.7486,1.7486,1.7486,1.7522,1.7686,1.7999,1.8311,1.8423,1.8485,1.7896,1.7098,1.6887,1.6729,1.6923,1.7098,1.6852,1.6765,1.6098,1.6062,1.6044,1.5343,1.4504,1.4666,1.4896,1.5086,1.5294,1.46,1.4701,1.472,1.5263,1.5895,1.6001,1.5431,1.5096,1.4855,1.4744,1.4706,1.5338,1.634,1.6675,1.7178,1.7157,1.7157,1.7115,1.7076,1.7176,1.7289,1.7356,1.7315,1.6761,1.5982,1.5485,1.5229,1.5296,1.5313,1.5344,1.5389,1.5404,1.5448,1.5301,1.5065,1.4783,1.431,1.3821,1.3285,1.2963,1.2629,1.2399,1.2164,1.2104,1.1995,1.1891,1.1816,1.1816,1.1861,1.1999,1.2089,1.21,1.188,1.198,1.2055,1.1905,1.1816,1.1816,1.1816,1.1816,1.1816,1.1816,1.1816,1.191,1.1999,1.204,1.192,1.1816,1.1816,1.1921,1.2116,1.252,1.3002,1.3556,1.3473,1.3317,1.4427,1.5746,1.6669,1.6553,1.6901,1.7287,1.7486,1.7486,1.7486,1.7486,1.7486,1.7486,1.7486,1.7486,1.7486,1.7486,1.7486,1.7552,1.7839,1.8048,1.8253,1.8355,1.8266,1.7835,1.7748,1.7634,1.78,1.7958,1.8029,1.8003,1.7898,1.8073,1.8294,1.7351,1.6599,1.6975,1.7064,1.6812,1.6657,1.5988,1.6025,1.6842,1.7374,1.7597,1.7541,1.73,1.6155,1.4874,1.4929,1.5115,1.6935,1.803,1.855,1.776,1.7787,1.776,1.7645,1.7474,1.7808,1.8052,1.816,1.828,1.7723,1.665,1.6186,1.5697,1.543,1.5374,1.5404,1.5433,1.5477,1.5507,1.5477,1.5432,1.5122,1.481,1.4436,1.4061,1.378,1.3446,1.3109,1.2774,1.2774,1.2475,1.219,1.219,1.204,1.1935,1.2445,1.2729,1.2699,1.2194,1.2388,1.2553,1.2314,1.216,1.1965,1.1846,1.1816,1.1816,1.1816,1.1816,1.1876,1.2538,1.2568,1.2209,1.2328,1.2343,1.2321,1.2466,1.2789,1.3268,1.4516,1.4602,1.4072,1.5332,1.642,1.7221,1.7337,1.7216,1.7486,1.7486,1.7486,1.7486,1.7486,1.7486,1.7486,1.7486,1.7486,1.7486,1.7552,1.7576,1.7587,1.7569,1.7639,1.7933,1.8173,1.8416,1.8407,1.846,1.8495,1.8495,1.8495,1.8495,1.8495,1.8495,1.8495,1.8553,1.887,1.877,1.914,1.8996,1.842,1.8383,1.8228,1.8506,1.9045,1.8915,1.8636,1.9008,1.9379,1.79,1.6489,1.5691,1.608,1.8067,1.9355,1.953,1.8069,1.8055,1.8055,1.8075,1.8143,1.8274,1.8383,1.8449,1.8355,1.7852,1.7098,1.6563,1.5986,1.5594,1.5448,1.5477,1.5522,1.5536,1.558,1.5697,1.5682,1.5607,1.5323,1.495,1.468,1.4382,1.4096,1.3825,1.3451,1.3451,1.3406,1.3166,1.2912,1.2852,1.2624,1.2774,1.2939,1.3361,1.3259,1.3259,1.3408,1.3211,1.2897,1.2505,1.2074,1.185,1.195,1.1995,1.1995,1.2074,1.281,1.3092,1.3196,1.3496,1.4255,1.4395,1.4648,1.5236,1.5795,1.6591,1.6569,1.6254,1.6127,1.6823,1.737,1.747,1.7486,1.7486,1.7486,1.7486,1.7486,1.7486,1.7486,1.7486,1.7486,1.7486,1.7522,1.7646,1.7709,1.7721,1.7715,1.7933,1.8184,1.8246,1.8435,1.8495,1.8495,1.8495,1.8495,1.8495,1.8495,1.8495,1.8495,1.8495,1.8592,1.8843,1.9162,1.9313,1.9402,1.9267,1.9434,1.9562,1.9527,1.9323,1.9453,1.9583,1.9583,1.9527,1.9219,1.8327,1.7455,1.7195,1.8662,1.9499,1.9582,1.8489,1.8509,1.8503,1.8581,1.8678,1.8572,1.8616,1.8712,1.8574,1.8193,1.759,1.6996,1.64,1.5963,1.5654,1.5551,1.561,1.5653,1.5668,1.5799,1.5814,1.5754,1.5589,1.538,1.5231,1.5005,1.4766,1.4451,1.4154,1.4141,1.3959,1.3765,1.3812,1.366,1.3508,1.3658,1.3762,1.4169,1.4244,1.4333,1.4333,1.4169,1.4032,1.3166,1.2467,1.2014,1.2358,1.2493,1.2493,1.2718,1.3151,1.366,1.4212,1.4956,1.5779,1.5983,1.6434,1.6847,1.7202,1.7321,1.7233,1.7238,1.6972,1.7039,1.7387,1.747,1.7486,1.7486,1.7486,1.7486,1.7486,1.7486,1.7486,1.7486,1.7486,1.7486,1.7634,1.7766,1.802,1.7992,1.8014,1.8256,1.8406,1.8435,1.8485,1.8495,1.8495,1.8495,1.8495,1.8495,1.8495,1.8495,1.8495,1.8495,1.8573,1.8761,1.9086,1.9442,1.9472,1.9442,1.9486,1.9439,1.9508,1.9595,1.9602,1.9583,1.9583,1.9472,1.9311,1.9311,1.91,1.9119,1.9583,1.9611,1.9645,1.9097,1.9116,1.9116,1.9064,1.9026,1.8765,1.8803,1.9082,1.9087,1.8764,1.8226,1.7566,1.7004,1.6437,1.5921,1.5684,1.5639,1.5755,1.577,1.5784,1.5814,1.5814,1.5814,1.5724,1.5604,1.5694,1.5574,1.5125,1.4857,1.4841,1.4526,1.4169,1.4214,1.4348,1.4586,1.4689,1.4721,1.4931,1.514,1.5125,1.4975,1.5259,1.4781,1.3929,1.3151,1.3005,1.3331,1.369,1.3703,1.3912,1.4287,1.4197,1.4506,1.5246,1.5823,1.6439,1.7063,1.7314,1.7462,1.7486,1.7486,1.7486,1.7437,1.747,1.7486,1.7486,1.7486,1.7486,1.7486,1.7486,1.7486,1.7486,1.7486,1.7486,1.7486,1.7587,1.7766,1.7982,1.8294,1.8375,1.8375,1.8465,1.8465,1.8495,1.8495,1.8495,1.8495,1.8495,1.8495,1.8495,1.8495,1.8495,1.8495,1.8495,1.8592,1.8696,1.8798,1.9101,1.914,1.914,1.9212,1.9315,1.9435,1.9505,1.9562,1.9583,1.9583,1.9583,1.9564,1.9583,1.9583,1.9583,1.9583,1.9609,1.9677,1.9116,1.9116,1.9116,1.9116,1.9097,1.9007,1.9011,1.9116,1.9101,1.8812,1.8358,1.8167,1.7558,1.6665,1.6442,1.6114,1.5905,1.5784,1.5799,1.5814,1.5814,1.5814,1.5814,1.5814,1.5814,1.5814,1.5769,1.5694,1.553,1.5499,1.5454,1.5275,1.5035,1.5275,1.5379,1.5499,1.5469,1.5485,1.5694,1.5589,1.5515,1.5694,1.5185,1.4556,1.4466,1.4303,1.4079,1.4766,1.4718,1.4201,1.4592,1.4534,1.4002,1.5182,1.6191,1.705,1.7391,1.7486,1.7486,1.7486,1.7486,1.7486,1.7486,1.7486,1.7486,1.7486,1.7486,1.7486,1.7486,1.7486,1.7486,1.7486,1.7486,1.7486,1.7486,1.7552,1.7721,1.7917,1.8211,1.8475,1.8495,1.8495,1.8495,1.8495,1.8495,1.8495,1.8495,1.8495,1.8495,1.8495,1.8495,1.8495,1.8495,1.8495,1.8495,1.8573,1.8603,1.8679,1.8789,1.8851,1.8878,1.9008,1.9256,1.9442,1.9555,1.9583,1.9583,1.9583,1.9583,1.9583,1.9583,1.9583,1.9602,1.9609,1.9636,1.9116,1.9101,1.9172,1.9191,1.9172,1.9134,1.912,1.9157,1.9176,1.9002,1.8776,1.8564,1.8102,1.7517,1.6965,1.6488,1.6204,1.5904,1.5814,1.5814,1.5844,1.5814,1.5814,1.5814,1.5814,1.5814,1.5814,1.5784,1.5814,1.5814,1.5769,1.5739,1.5814,1.5814,1.5784,1.5739,1.5769,1.5769,1.5799,1.5814,1.5814,1.5814,1.55,1.535,1.5664,1.5185,1.4751,1.5559,1.5255,1.4809,1.5261,1.5211,1.4923,1.5942,1.6672,1.7415,1.7462,1.7486,1.7486,1.7486,1.7486,1.7486,1.7486,1.7486,1.7486,1.7486,1.7486,1.7486,1.7486,1.7486,1.7486,1.7486,1.7486,1.7486,1.7486,1.7486,1.7627,1.7766,1.807,1.8396,1.8495,1.8495,1.8495,1.8565,1.8495,1.8495,1.8495,1.8495,1.8495,1.8495,1.8495,1.8495,1.8495,1.8495,1.8495,1.8495,1.8544,1.8555,1.8574,1.8612,1.859,1.8834,1.9235,1.9446,1.9576,1.9583,1.9583,1.9583,1.9583,1.9583,1.9583,1.9583,1.9583,1.9602,1.9625,1.9101,1.912,1.9265,1.9302,1.9284,1.9191,1.9195,1.9288,1.9321,1.9343,1.9284,1.8898,1.8691,1.8235,1.7548,1.704,1.6742,1.6428,1.6173,1.5904,1.6009,1.5979,1.5829,1.5814,1.5814,1.5814,1.5814,1.5814,1.5814,1.5814,1.5814,1.5814,1.5814,1.5814,1.5814,1.5814,1.5814,1.5814,1.5814,1.5814,1.5814,1.5814,1.5814,1.5769,1.5799,1.5708,1.5723,1.5813,1.5842,1.5955,1.6022,1.6028,1.6311,1.6761,1.7285,1.7451,1.7486,1.7486,1.7486,1.7486,1.7486,1.7486,1.7486,1.7486,1.7486,1.7486,1.7486,1.7486,1.7486,1.7486,1.7486,1.7486,1.7486,1.7486,1.7486,1.7486,1.7545,1.7743,1.8005,1.8628,1.9731,1.9749,2.0047,2.024,2.0363,1.9503,1.9345,1.9433,1.9047,1.9047,1.8583,1.8565,1.8495,1.8495,1.8495,1.8495,1.8495,1.8495,1.8495,1.8495,1.8534,1.8852,1.9261,1.9438,1.9583,1.9583,1.9583,1.9583,1.9583,1.9583,1.9583,1.9583,1.9583,1.959,1.9604,1.9157,1.9265,1.9339,1.9339,1.9321,1.9321,1.9321,1.9321,1.9483,1.9538,1.9527,1.9367,1.9111,1.8655,1.8311,1.7863,1.7444,1.7116,1.6921,1.6607,1.6458,1.6203,1.5873,1.5858,1.5828,1.5814,1.5814,1.5814,1.5799,1.5814,1.5814,1.5814,1.5814,1.5799,1.5814,1.5814,1.5828,1.5842,1.5813,1.5813,1.5828,1.5814,1.5814,1.5814,1.5814,1.5827,1.5856,1.5956,1.6067,1.6191,1.6274,1.6421,1.6617,1.7203,1.7451,1.7486,1.7486,1.7486,1.7486,1.7486,1.7486,1.7486,1.7486,1.7486,1.7486,1.7486,1.7486,1.7486,1.7486,1.7486,1.7486,1.7486,1.7486,1.7486,1.7536,1.7536,1.7598,1.7961,1.8194,1.9156,2.0571,2.1294,2.1592,2.1803,2.2002,2.2054,2.2089,2.1879,2.0914,2.0423,1.8969,1.8741,1.853,1.8495,1.8495,1.8495,1.8495,1.8495,1.8495,1.8495,1.8514,1.8974,1.9431,1.9497,1.9583,1.9583,1.9583,1.9583,1.9583,1.9583,1.9618,1.9638,1.9625,1.9643,1.9604,1.9284,1.9354,1.9376,1.9428,1.9413,1.9428,1.9395,1.9465,1.9556,1.9614,1.9632,1.9603,1.9445,1.9046,1.8852,1.8612,1.8102,1.7772,1.7458,1.7189,1.6922,1.6608,1.6323,1.608,1.5928,1.5899,1.5871,1.5857,1.5887,1.5814,1.5814,1.5814,1.5799,1.5813,1.5827,1.5842,1.587,1.5899,1.5914,1.5944,1.5944,1.5886,1.5814,1.5814,1.5813,1.5842,1.5997,1.6123,1.6315,1.6423,1.649,1.6821,1.7038,1.7366,1.7474,1.7486,1.7486,1.7486,1.7486,1.7486,1.7486,1.7486,1.7486,1.7486,1.7486,1.7486,1.7486,1.7486,1.7486,1.7486,1.7486,1.7486,1.7486,1.7486,1.7768,1.795,1.9068,2.0206,1.9469,1.8679,2.0398,2.23,2.2493,2.2493,2.2651,2.2651,2.3002,2.3019,2.2282,2.1703,2.0223,1.8987,1.8811,1.8583,1.8495,1.8495,1.8495,1.8495,1.8495,1.8639,1.8779,1.9232,1.9583,1.9627,1.9627,1.9583,1.9583,1.9683,1.962,1.9583,1.9638,1.9698,1.9679,1.9691,1.9672,1.9395,1.9413,1.9431,1.9501,1.9574,1.9501,1.9501,1.9574,1.9626,1.965,1.969,1.9708,1.9708,1.9465,1.9151,1.8957,1.8732,1.8476,1.8117,1.776,1.745,1.7318,1.7061,1.671,1.6662,1.6494,1.636,1.6243,1.6155,1.5976,1.5814,1.5814,1.5828,1.5842,1.59,1.5957,1.6029,1.6266,1.6369,1.6369,1.6222,1.5988,1.5885,1.5842,1.5827,1.5856,1.6095,1.6355,1.6596,1.6688,1.674,1.705,1.7277,1.7451,1.7462,1.7486,1.7486,1.7486,1.7486,1.7486,1.7486,1.7486,1.7486,1.7669,1.7785,1.8116,1.8116,1.8133,1.8133,1.8133,1.8149,1.8149,1.8166,1.8199,1.8547,1.8796,2.0427,2.1871,2.0587,1.9133,2.0802,2.2949,2.3107,2.3107,2.3107,2.3107,2.3107,2.3107,2.2949,2.251,2.1616,2.0135,1.9215,1.8969,1.8583,1.8495,1.8495,1.8495,1.8524,1.8752,1.9009,1.936,1.9587,1.9683,1.9664,2.0101,1.9975,1.9938,1.982,2.0276,1.9673,1.9735,1.975,1.975,1.977,1.945,1.9556,1.9614,1.9632,1.9611,1.9632,1.9632,1.9611,1.9636,1.9675,1.9708,1.9744,1.9744,1.9675,1.96,1.945,1.9333,1.9139,1.8867,1.854,1.8359,1.8232,1.8038,1.7743,1.7927,1.7695,1.7281,1.6965,1.6786,1.6246,1.5858,1.5948,1.5903,1.5931,1.6003,1.6193,1.6605,1.6936,1.7325,1.7474,1.7544,1.7107,1.6117,1.5956,1.5855,1.6011,1.6246,1.6594,1.6751,1.6879,1.705,1.7277,1.7403,1.7486,1.7486,1.7486,1.7486,1.7486,1.7486,1.7486,1.7486,1.7553,1.7901,1.8978,1.9492,2.0472,2.0472,2.0489,2.0489,2.0489,2.0505,2.0505,2.0505,2.0505,2.0721,2.0737,2.1508,2.2062,2.1742,2.1479,2.2206,2.3107,2.3107,2.3107,2.3107,2.3107,2.3107,2.3107,2.3107,2.2949,2.2791,2.1504,2.0012,1.9022,1.8495,1.8495,1.8495,1.8495,1.8544,1.8742,1.9009,1.9367,1.9559,1.9657,2.0532,2.1301,2.1026,2.0844,2.1708,2.2021,2.0376,1.9757,1.98,1.9801,1.9801]}]]